[[{"header":{"parameterUnit":"m.s-1","parameterCategory":1,"la1":30.6,"la2":29.2853,"lo1":-89.7004,"lo2":-87.6739,"dy":0.0162,"dx":0.0183,"nx":112,"ny":82,"refTime":"2025-02-23T18:00:00:Z","depth":0,"parameterNumber":2,"parameterNumberName":"U-component_of_WINDS"},"data":[0.0,0.0,0.0,0.0,0.0,0.0,0.0,0.0,0.0,0.0,0.0,0.0,0.0,0.0,0.0,0.0,0.0,0.0,0.0,0.0,0.0,0.0,0.0,0.0,0.0,0.0,0.0,0.0,0.0,0.0,0.0,0.0,0.0,0.0,0.0,0.0,0.0,0.0,0.0,0.0,0.0,0.0,0.0,0.0,0.0,0.0,0.0,0.0,0.0,0.0,0.0,0.0,0.0,0.0,0.0,0.0,0.0,0.0,0.0,0.0,0.0,0.0,0.0,0.0,0.0,0.0,0.0,0.0,0.0,0.0,0.0,0.0,0.0,0.0,0.0,0.0,0.0,0.0,0.0,0.0,0.0,0.0,0.0,0.0,0.0,0.0,0.0,0.0,0.0,0.0,0.0,-0.3747,-0.5695,-0.6822,-0.6698,-0.6645,-0.6726,-0.7001,0.0,0.0,0.0,0.0,0.0,0.0,0.0,0.0,0.0,0.0,0.0,0.0,0.0,0.0,0.0,0.0,0.0,0.0,0.0,0.0,0.0,0.0,0.0,0.0,0.0,0.0,0.0,0.0,0.0,0.0,0.0,0.0,0.0,0.0,0.0,0.0,0.0,0.0,0.0,0.0,0.0,0.0,0.0,0.0,0.0,0.0,0.0,0.0,0.0,0.0,0.0,0.0,0.0,0.0,0.0,0.0,0.0,0.0,0.0,0.0,0.0,0.0,0.0,0.0,0.0,0.0,0.0,0.0,0.0,0.0,0.0,0.0,0.0,0.0,0.0,0.0,0.0,0.0,0.0,0.0,0.0,0.0,0.0,0.0,0.0,0.0,0.0,0.0,0.0,0.0,0.0,0.0,0.0,0.0,0.0,0.0,0.0,0.0,0.0,0.0,0.0,0.0,0.0,0.0,-0.2665,-0.4,-0.5187,-0.5891,-0.5869,-0.5077,-0.5022,-0.6227,0.0,0.0,0.0,0.0,0.0,0.0,0.0,0.0,0.0,0.0,0.0,0.0,0.0,0.0,0.0,0.0,0.0,0.0,0.0,0.0,0.0,0.0,0.0,0.0,0.0,0.0,0.0,0.0,0.0,0.0,0.0,0.0,0.0,0.0,0.0,0.0,0.0,0.0,0.0,0.0,0.0,0.0,0.0,0.0,0.0,0.0,0.0,0.0,0.0,0.0,0.0,0.0,0.0,0.0,0.0,0.0,0.0,0.0,0.0,0.0,0.0,0.0,0.0,0.0,0.0,0.0,0.0,0.0,0.0,0.0,0.0,0.0,0.0,0.0,0.0,0.0,0.0,0.0,0.0,0.0,0.0,0.0,0.0,0.0,0.0,0.0,0.0,0.0,0.0,0.0,0.0,0.0,0.0,0.0,0.0,0.0,0.0,0.0,0.0,0.0,0.0,0.0,0.0,-0.2718,-0.3167,-0.3421,-0.4362,-0.4921,-0.4921,-0.4387,-0.4683,-0.6025,-0.5573,0.0,0.0,0.0,0.0,0.0,0.0,0.0,0.0,0.0,0.0,0.0,0.0,0.0,0.0,0.0,0.0,0.0,0.0,0.0,0.0,0.0,0.0,0.0,0.0,0.0,0.0,0.0,0.0,0.0,0.0,0.0,0.0,0.0,0.0,0.0,0.0,0.0,0.0,0.0,0.0,0.0,0.0,0.0,0.0,0.0,0.0,0.0,0.0,0.0,0.0,0.0,0.0,0.0,0.0,0.0,0.0,0.0,0.0,0.0,0.0,0.0,0.0,0.0,0.0,0.0,0.0,0.0,0.0,0.0,0.0,0.0,0.0,0.0,0.0,0.0,0.0,0.0,0.0,0.0,0.0,0.0,0.0,0.0,0.0,0.0,0.0,0.0,0.0,0.0,0.0,0.0,0.0,0.0,0.0,0.0,0.0,0.0,0.0,0.0,0.0,0.0,0.0,-0.3188,-0.3377,-0.2946,-0.3499,-0.3942,-0.3942,-0.3858,-0.4333,-0.5712,-0.5114,0.0,0.0,0.0,0.0,0.0,0.0,0.0,0.0,0.0,0.0,0.0,0.0,0.0,0.0,0.0,0.0,0.0,0.0,0.0,0.0,0.0,0.0,0.0,0.0,0.0,0.0,0.0,0.0,0.0,0.0,0.0,0.0,0.0,0.0,0.0,0.0,0.0,0.0,0.0,0.0,0.0,0.0,0.0,0.0,0.0,0.0,0.0,0.0,0.0,0.0,0.0,0.0,0.0,0.0,0.0,0.0,0.0,0.0,0.0,0.0,0.0,0.0,0.0,0.0,0.0,0.0,0.0,0.0,0.0,0.0,0.0,0.0,0.0,0.0,0.0,0.0,0.0,0.0,0.0,0.0,0.0,0.0,0.0,0.0,0.0,0.0,0.0,0.0,0.0,0.0,0.0,0.0,0.0,0.0,0.0,0.0,0.0,0.0,0.0,0.0,0.0,0.0,-0.3164,-0.2884,-0.2867,-0.2963,-0.2963,-0.2963,-0.2794,-0.3379,-0.4854,-0.474,0.0,0.0,0.0,0.0,0.0,0.0,0.0,0.0,0.0,0.0,0.0,0.0,0.0,0.0,0.0,0.0,0.0,0.0,0.0,0.0,0.0,0.0,0.0,0.0,0.0,0.0,0.0,0.0,0.0,0.0,0.0,0.0,0.0,0.0,0.0,0.0,0.0,0.0,0.0,0.0,0.0,0.0,0.0,0.0,0.0,0.0,0.0,0.0,0.0,0.0,0.0,0.0,0.0,0.0,0.0,0.0,0.0,0.0,0.0,0.0,0.0,0.0,0.0,0.0,0.0,0.0,0.0,0.0,0.0,0.0,0.0,0.0,0.0,0.0,0.0,0.0,0.0,0.0,0.0,0.0,0.0,0.0,0.0,0.0,0.0,0.0,0.0,0.0,0.0,0.0,0.0,0.0,0.0,0.0,0.0,0.0,0.0,0.0,0.0,0.0,0.0,0.0,-0.3208,-0.3277,0.0,-0.2875,-0.2858,-0.2822,-0.2719,-0.3245,-0.4754,0.0,0.0,0.0,0.0,0.0,0.0,0.0,0.0,0.0,0.0,0.0,0.0,0.0,0.0,0.0,0.0,0.0,0.0,0.0,0.0,0.0,0.0,0.0,0.0,0.0,0.0,0.0,0.0,0.0,0.0,0.0,0.0,0.0,0.0,0.0,0.0,0.0,0.0,0.0,0.0,0.0,0.0,0.0,0.0,0.0,0.0,0.0,0.0,0.0,0.0,0.0,0.0,0.0,0.0,0.0,0.0,0.0,0.0,0.0,0.0,0.0,0.0,0.0,0.0,0.0,0.0,0.0,0.0,0.0,0.0,0.0,0.0,0.0,0.0,0.0,0.0,0.0,0.0,0.0,0.0,0.0,0.0,0.0,0.0,0.0,0.0,0.0,0.0,0.0,0.0,0.0,0.0,0.0,0.0,0.0,0.0,0.0,0.0,0.0,0.0,0.0,0.0,-0.3196,-0.339,-0.3384,0.0,-0.2875,-0.285,-0.2788,-0.2692,-0.3292,-0.4836,0.0,0.0,0.0,0.0,0.0,0.0,0.0,0.0,0.0,0.0,0.0,0.0,0.0,0.0,0.0,0.0,0.0,0.0,0.0,0.0,0.0,0.0,0.0,0.0,0.0,0.0,0.0,0.0,0.0,0.0,0.0,0.0,0.0,0.0,0.0,0.0,0.0,0.0,0.0,0.0,0.0,0.0,0.0,0.0,0.0,0.0,0.0,0.0,0.0,0.0,0.0,0.0,0.0,0.0,0.0,0.0,0.0,0.0,0.0,0.0,0.0,0.0,0.0,0.0,0.0,0.0,0.0,0.0,0.0,0.0,0.0,0.0,0.0,0.0,0.0,0.0,0.0,0.0,0.0,0.0,0.0,0.0,0.0,0.0,0.0,0.0,0.0,0.0,0.0,0.0,0.0,0.0,0.0,0.0,0.0,0.0,0.0,0.0,0.0,0.0,0.0,0.0,-0.4375,-0.3567,-0.2875,-0.2875,-0.2873,-0.2849,-0.2788,-0.2616,-0.3254,0.0,0.0,0.0,0.0,0.0,0.0,0.0,0.0,0.0,0.0,0.0,0.0,0.0,0.0,0.0,0.0,0.0,0.0,0.0,0.0,0.0,0.0,0.0,0.0,0.0,0.0,0.0,0.0,0.0,0.0,0.0,0.0,0.0,0.0,0.0,0.0,0.0,0.0,0.0,0.0,0.0,0.0,0.0,0.0,0.0,0.0,0.0,0.0,0.0,0.0,0.0,0.0,0.0,0.0,0.0,0.0,0.0,0.0,0.0,0.0,0.0,0.0,0.0,0.0,0.0,0.0,0.0,0.0,0.0,0.0,0.0,0.0,0.0,0.0,0.0,0.0,0.0,0.0,0.0,0.0,0.0,0.0,0.0,0.0,0.0,0.0,0.0,0.0,0.0,0.0,0.0,0.0,0.0,0.0,0.0,0.0,0.0,0.0,0.0,0.0,0.0,0.0,0.0,-0.375,-0.3316,-0.2875,-0.2875,-0.2835,-0.2959,-0.3147,-0.2995,-0.3514,-0.5151,0.0,0.0,0.0,0.0,0.0,0.0,0.0,0.0,0.0,0.0,0.0,0.0,0.0,0.0,0.0,0.0,0.0,0.0,0.0,0.0,0.0,0.0,0.0,0.0,0.0,0.0,0.0,0.0,0.0,0.0,0.0,0.0,0.0,0.0,0.0,0.0,0.0,0.0,0.0,0.0,0.0,0.0,0.0,0.0,0.0,0.0,0.0,0.0,0.0,0.0,0.0,0.0,0.0,0.0,0.0,0.0,0.0,0.0,0.0,0.0,0.0,0.0,0.0,0.0,0.0,0.0,0.0,0.0,0.0,0.0,0.0,0.0,0.0,0.0,0.0,0.0,0.0,0.0,0.0,0.0,0.0,0.0,0.0,0.0,0.0,0.0,0.0,0.0,0.0,0.0,0.0,0.0,0.0,0.0,0.0,0.0,0.0,0.0,0.0,0.0,0.0,0.0,-0.3822,-0.3316,-0.2875,-0.2875,-0.2995,-0.31,-0.3281,-0.3304,-0.3812,-0.5047,0.0,0.0,0.0,0.0,0.0,0.0,0.0,0.0,0.0,0.0,0.0,0.0,0.0,0.0,0.0,0.0,0.0,0.0,0.0,0.0,0.0,0.0,0.0,0.0,0.0,0.0,0.0,0.0,0.0,0.0,0.0,0.0,0.0,0.0,0.0,0.0,0.0,0.0,0.0,0.0,0.0,0.0,0.0,0.0,0.0,0.0,0.0,0.0,0.0,0.0,0.0,0.0,0.0,0.0,0.0,0.0,0.0,0.0,0.0,0.0,0.0,0.0,0.0,0.0,0.0,0.0,0.0,0.0,0.0,0.0,0.0,0.0,0.0,0.0,0.0,0.0,0.0,0.0,0.0,0.0,0.0,0.0,0.0,0.0,0.0,0.0,0.0,0.0,0.0,0.0,0.0,0.0,0.0,0.0,0.0,0.0,0.0,0.0,0.0,0.0,0.0,0.0,-0.4361,-0.3562,-0.2955,-0.2955,-0.3333,-0.3517,-0.3522,-0.3852,-0.428,-0.4856,0.0,0.0,0.0,0.0,0.0,0.0,0.0,0.0,0.0,0.0,0.0,0.0,0.0,0.0,0.0,0.0,0.0,0.0,0.0,0.0,0.0,0.0,0.0,0.0,0.0,0.0,0.0,0.0,0.0,0.0,0.0,0.0,0.0,0.0,0.0,0.0,0.0,0.0,0.0,0.0,0.0,0.0,0.0,0.0,0.0,0.0,0.0,0.0,0.0,0.0,0.0,0.0,0.0,0.0,0.0,0.0,0.0,0.0,0.0,0.0,0.9679,0.0,0.0,0.0,0.0,0.0,0.0,0.0,0.0,0.0,0.0,0.0,0.0,0.0,0.0,0.0,0.0,0.0,0.0,0.0,0.0,0.0,0.0,0.0,0.0,0.0,0.0,0.0,0.0,0.0,0.0,0.0,0.0,0.0,0.0,0.0,0.0,0.0,0.0,0.0,0.0,0.0,-0.3738,-0.3514,-0.3324,-0.3324,-0.411,-0.4768,-0.49,-0.5384,-0.5641,-0.5846,0.0,0.0,0.0,0.0,0.0,0.0,0.0,0.0,0.0,0.0,0.0,0.0,0.0,0.0,0.0,0.0,0.0,0.0,0.0,0.0,0.0,0.0,0.0,0.0,0.0,0.0,0.0,0.0,0.0,0.0,0.0,0.0,0.0,0.0,0.0,0.0,0.0,0.0,0.0,0.0,0.0,0.0,0.0,0.0,0.0,0.0,0.0,0.0,0.0,0.0,0.0,0.0,0.0,0.0,0.0,0.0,0.0,0.0,0.0,0.0,0.0,0.9647,0.0,0.0,0.0,0.0,0.0,0.0,0.0,0.0,0.0,0.0,0.0,0.0,0.0,0.0,0.0,0.0,0.0,0.0,0.0,0.0,0.0,0.0,0.0,0.0,0.0,0.0,0.0,0.0,0.0,0.0,0.0,0.0,0.0,0.0,0.0,0.0,0.0,0.0,0.0,0.0,-0.3814,-0.3665,-0.3559,-0.3732,-0.4671,-0.5309,-0.5428,-0.6099,-0.6474,-0.6373,-0.6328,0.0,0.0,0.0,0.0,0.0,0.0,0.0,0.0,0.0,0.0,0.0,0.0,0.0,0.0,0.0,0.0,0.0,0.0,0.0,0.0,0.0,0.0,0.0,0.0,0.0,0.0,0.0,0.0,0.0,0.0,0.0,0.0,0.0,0.0,0.0,0.0,0.0,0.0,0.0,0.0,0.0,0.0,0.0,0.0,0.0,0.0,0.0,0.0,0.0,0.0,0.0,0.0,0.0,1.1347,1.1242,1.1106,1.1035,1.0913,1.0699,1.0489,1.0253,0.9954,0.0,0.0,0.0,0.0,0.0,0.0,0.0,0.0,0.0,0.0,0.0,0.0,0.0,0.0,0.0,0.0,0.0,0.0,0.0,0.0,0.0,0.0,0.0,0.0,0.0,-0.1035,-0.1682,0.0,0.0,0.0,0.0,0.0,0.0,0.0,0.0,0.0,0.0,0.0,0.0,-0.399,-0.3979,-0.3951,-0.4308,-0.5315,-0.5933,-0.5796,-0.6702,-0.7095,-0.6845,-0.6907,-0.692,0.0,0.0,0.0,0.0,0.0,0.0,0.0,0.0,0.0,0.0,0.0,0.0,0.0,0.0,0.0,0.0,0.0,0.0,0.0,0.0,0.0,0.0,0.0,0.0,0.0,0.0,0.0,0.0,0.0,0.0,0.0,0.0,1.5953,1.5476,0.0,0.0,0.0,0.0,0.0,0.0,0.0,0.0,0.0,0.0,0.0,0.0,0.0,0.0,1.2218,1.2016,1.1897,1.1823,1.2276,1.241,1.2163,1.1922,1.1691,1.1555,1.1261,0.0,1.0223,0.9938,0.0,0.0,0.0,0.0,0.0,0.0,0.0,0.0,0.0,0.0,0.0,0.0,0.0,0.0,0.0,0.0,0.0,0.0,0.0,0.0,0.0,0.0,-0.0166,-0.1244,-0.1583,-0.1825,0.0,-0.2169,-0.2139,-0.2177,-0.2216,0.0,0.0,0.0,0.0,0.0,0.0,0.0,-0.3443,-0.447,-0.5265,-0.5371,-0.6742,-0.7628,-0.7525,-0.8102,-0.8156,-0.7508,-0.7381,-0.7189,-0.7001,-0.6595,0.0,0.0,0.0,0.0,0.0,0.0,0.0,0.0,0.0,0.0,0.0,0.0,0.0,0.0,0.0,0.0,0.0,0.0,0.0,0.0,0.0,0.0,0.0,0.0,0.0,0.0,0.0,0.0,0.0,1.6448,1.6171,1.6225,1.5824,1.5408,0.0,0.0,0.0,0.0,0.0,0.0,0.0,0.0,0.0,1.4765,1.4216,1.3634,1.2863,1.2569,1.2278,1.2195,1.2427,1.2369,1.2032,1.1866,1.1699,1.144,1.1354,1.1091,1.0859,1.0476,1.0186,0.9954,0.0,0.0,0.0,0.0,0.8736,0.8835,0.7774,0.6936,0.0,0.0,0.0,0.0,0.0,0.0,0.0,0.0,0.0,0.0,0.0,0.0,0.0,-0.1622,-0.1989,-0.2169,-0.2292,-0.2413,-0.2483,0.0,-0.2304,-0.2264,-0.2146,0.0,0.0,0.0,0.0,0.0,-0.4115,-0.5036,-0.5849,-0.6322,-0.7388,-0.7911,-0.7799,-0.8318,-0.8585,-0.8266,-0.8079,-0.7933,-0.778,-0.735,-0.7099,0.0,0.0,0.0,0.0,0.0,0.0,0.0,0.0,0.0,0.0,0.0,0.0,0.0,0.0,0.0,0.0,0.0,0.0,0.0,0.0,0.0,0.0,0.0,0.0,0.0,0.0,0.0,0.0,1.656,1.6757,1.6837,1.6622,1.6208,0.0,0.0,0.0,0.0,0.0,0.0,1.6208,1.6225,1.602,1.5462,1.4866,1.4306,1.3632,1.2934,1.2534,1.2363,1.2363,1.2118,1.1699,1.1699,1.1527,1.1262,1.1262,1.1262,1.1235,1.0896,1.0622,1.0444,1.0196,1.0105,0.9967,0.9034,0.8704,0.8519,0.7461,0.6496,0.5745,0.578,0.0,0.391,0.3932,0.0,0.0,0.0,0.0,0.1194,0.082,-0.0502,-0.179,-0.1918,-0.2218,-0.2503,-0.2551,-0.2707,-0.2721,0.0,-0.2466,-0.2428,-0.2309,0.0,0.0,0.0,0.0,-0.4121,-0.4967,-0.5837,-0.6644,-0.7266,-0.7852,-0.8225,-0.803,-0.847,-0.8703,-0.8703,-0.8562,-0.8481,-0.8481,-0.799,-0.7664,-0.756,0.0,0.0,0.0,0.0,0.0,0.0,0.0,0.0,0.0,0.0,0.0,0.0,0.0,0.0,0.0,0.0,0.0,0.0,0.0,0.0,0.0,0.0,0.0,0.0,0.0,0.0,0.0,0.0,0.0,1.6724,1.7113,0.0,0.0,0.0,0.0,1.6251,1.6276,1.6602,1.7346,1.7381,1.715,1.6611,1.5831,1.4928,1.4021,1.2948,1.2448,1.2363,1.2118,1.1871,1.1699,1.1699,1.1527,1.1262,1.1262,1.1262,1.1246,1.1074,1.0961,1.0929,1.0692,1.06,1.0353,0.8633,0.8499,0.8822,0.6218,0.5534,0.58,0.5051,0.4431,0.4028,0.4018,0.3893,0.0,0.0,0.1941,0.0983,-0.0171,-0.1126,-0.1919,-0.2319,-0.2512,-0.2603,-0.278,-0.2824,-0.2745,0.0,-0.2593,-0.2553,-0.2432,0.0,-0.312,-0.3117,-0.4533,-0.5662,-0.5902,-0.7261,-0.825,-0.8242,-0.8653,-0.8857,-0.8641,-0.8699,-0.8703,-0.8703,-0.8689,-0.8685,-0.8685,-0.8477,-0.817,-0.7773,-0.7532,0.0,0.0,0.0,0.0,0.0,0.0,0.0,0.0,0.0,0.0,0.0,0.0,0.0,0.0,0.0,0.0,0.0,0.0,0.0,0.0,0.0,0.0,0.0,0.0,0.0,0.0,0.0,0.0,1.7519,1.7672,0.0,0.0,1.6661,1.667,1.703,1.7064,1.7287,1.7809,1.7834,1.7485,1.669,1.5711,1.4713,1.3789,1.2705,1.2123,1.1952,1.1871,1.1699,1.1435,1.1435,1.1354,1.1262,1.1262,1.1262,1.1257,1.1257,1.1219,1.1214,1.1128,1.0668,0.9979,0.8777,0.8041,0.7396,0.5654,0.5129,0.5039,0.4577,0.4262,0.4112,0.4055,0.361,0.302,0.2706,0.1456,0.0087,-0.0353,-0.133,-0.2312,-0.242,-0.2604,-0.2784,-0.2873,-0.2857,-0.2828,-0.2785,-0.2713,-0.2634,-0.255,-0.2988,-0.3343,-0.3294,-0.4789,-0.5999,-0.6425,-0.7644,-0.8595,-0.8756,-0.8909,-0.8935,-0.8718,-0.8703,-0.8703,-0.8703,-0.8703,-0.8703,-0.8703,-0.851,-0.8269,-0.7976,-0.7645,-0.7229,0.0,0.0,0.0,0.0,0.0,0.0,0.0,0.0,0.0,0.0,0.0,0.0,0.0,0.0,0.0,0.0,0.0,0.0,0.0,0.0,0.0,0.0,0.0,0.0,0.0,0.0,1.7894,1.8023,1.8382,1.8365,1.7723,1.7552,1.7535,1.7655,1.7655,1.7775,1.8023,1.7708,1.7286,1.6617,1.5289,1.4287,1.362,1.2454,1.1871,1.1699,1.1613,1.144,1.1262,1.1262,1.1262,1.1262,1.1262,1.1262,1.1262,1.1262,1.1262,1.1262,1.1262,1.0738,0.9767,0.8803,0.7658,0.6511,0.5186,0.4656,0.4559,0.4322,0.4216,0.4204,0.4142,0.3469,0.2719,0.2279,0.0886,-0.0538,-0.0987,-0.1794,-0.2513,-0.2604,-0.2784,-0.2875,-0.2875,-0.2875,-0.2875,-0.2875,-0.2809,-0.2734,-0.2673,-0.3219,-0.375,-0.3912,-0.5464,-0.6771,-0.7355,-0.8377,-0.9105,-0.9189,-0.9233,-0.9119,-0.8836,-0.8812,-0.8779,-0.8708,-0.8637,-0.86,-0.86,-0.8401,-0.8193,-0.7981,-0.7579,-0.7234,-0.6955,0.0,0.0,0.0,0.0,0.0,0.0,0.0,0.0,0.0,0.0,0.0,0.0,0.0,0.0,0.0,0.0,0.0,0.0,0.0,0.0,0.0,0.0,0.0,1.6901,1.7903,1.8477,1.8143,1.9085,1.9238,1.8211,1.8417,1.8468,1.81,1.8074,1.7993,1.7993,1.7147,1.664,1.6386,1.4643,1.3646,1.3392,1.2307,1.1721,1.1721,1.1451,1.1278,1.1278,1.1267,1.1262,1.1262,1.1262,1.1262,1.1262,1.1262,1.1262,1.1262,1.1267,1.0646,0.968,0.8536,0.7386,0.6151,0.4741,0.43,0.43,0.43,0.43,0.43,0.43,0.3583,0.2597,0.1431,0.0358,-0.0807,-0.2154,-0.2513,-0.2603,-0.2873,-0.2875,-0.2875,-0.2875,-0.2875,-0.2875,-0.2875,-0.2875,-0.2945,-0.2883,-0.3714,-0.4532,-0.5211,-0.677,0.0,-0.8803,-0.9506,-0.9871,-0.9667,-0.9559,-0.9478,-0.9067,-0.9025,-0.893,-0.8718,-0.851,-0.8401,-0.8401,-0.8203,-0.7995,-0.7792,-0.745,-0.7235,-0.7231,0.0,0.0,0.0,0.0,0.0,0.0,0.0,0.0,0.0,0.0,0.0,0.0,0.0,0.0,0.0,0.0,0.0,0.0,0.0,0.0,0.0,0.0,1.7603,1.7715,1.8468,1.9179,1.9624,1.9949,2.0018,1.9701,1.9521,1.9264,1.8888,1.8862,1.8507,1.7819,1.7555,1.7024,1.5966,1.4669,1.3888,1.3609,1.2563,1.1945,1.1945,1.1682,1.1602,1.1596,1.1429,1.1262,1.1262,1.1262,1.1262,1.1262,1.1262,1.1262,1.1262,1.0559,0.9589,0.8532,0.7566,0.6337,0.5099,0.4476,0.43,0.43,0.43,0.43,0.43,0.43,0.3042,0.1522,0.1163,-0.0358,-0.1974,-0.2424,-0.2604,-0.2784,-0.2873,-0.2875,-0.2875,-0.2875,-0.2875,-0.2875,-0.2875,-0.3142,-0.358,-0.3997,-0.4632,-0.5437,-0.6455,-0.7712,0.0,-0.889,-0.9506,-0.9871,-0.9667,-0.9559,-0.9535,-0.9266,-0.911,-0.893,-0.8718,-0.851,-0.8401,-0.8401,-0.8344,-0.8212,-0.8004,-0.774,-0.7532,0.0,0.0,0.0,0.0,0.0,0.0,0.0,0.0,0.0,0.0,0.0,0.0,0.0,0.0,0.0,0.0,0.0,0.0,0.0,0.0,0.0,0.0,1.8175,1.8622,1.8939,1.923,1.9573,2.0009,2.0198,2.0232,2.0078,1.9872,1.959,1.9204,1.917,1.8732,1.7755,1.7231,1.6426,1.5089,1.4019,1.3308,1.303,1.2403,1.214,1.2135,1.1908,1.1844,1.1838,1.1602,1.1553,0.0,1.1435,1.1321,1.1488,1.1392,1.1262,0.0,0.0,0.0,0.0,0.0,0.5366,0.448,0.4389,0.43,0.43,0.43,0.43,0.43,0.4032,0.2685,0.1074,0.0716,-0.0896,-0.2513,-0.2604,-0.2784,-0.2875,-0.2875,-0.2875,-0.2875,-0.2875,-0.3232,-0.3499,-0.3499,-0.4121,0.0,-0.58,-0.58,-0.6154,-0.7386,-0.8356,-0.8978,-0.9331,-0.9772,-0.9904,-0.9786,-0.9771,-0.9686,-0.9478,-0.9271,0.0,0.0,0.0,-0.8363,-0.8269,-0.8269,0.0,0.0,0.0,0.0,0.0,0.0,0.0,0.0,-0.8037,-0.8042,0.0,0.0,0.0,0.0,0.0,0.0,0.0,0.0,0.0,0.0,0.0,0.0,0.0,0.0,0.0,0.0,1.8768,1.9487,2.0198,2.0009,1.9821,1.9864,2.0163,2.0232,1.9898,1.9872,1.971,1.9333,1.9212,1.8762,1.7699,0.0,0.0,0.0,0.0,1.24,1.2221,1.2221,1.2221,1.2221,1.2194,1.2091,1.2081,1.1849,1.1849,1.2118,1.1607,1.1548,1.1725,1.1515,1.125,1.0891,1.0047,0.8886,0.7566,0.5455,0.448,0.43,0.43,0.0,0.0,0.43,0.43,0.4121,0.3585,0.2329,0.0805,0.0089,-0.1254,-0.2604,-0.2873,-0.2875,-0.2875,-0.2875,-0.2963,-0.3053,-0.3053,-0.3765,-0.4476,-0.4476,-0.5361,-0.6511,-0.7654,-0.6949,-0.6773,-0.8181,-0.8803,-0.9244,-0.9951,-1.0038,-1.0038,-1.0038,0.0,0.0,-0.9696,-0.9483,-0.9275,-0.9072,-0.8689,-0.8387,-0.8193,-0.8188,-0.8188,-0.8188,-0.8188,-0.8368,-0.8737,-0.876,-0.8869,-0.9044,-0.8481,-0.8406,0.0,0.0,0.0,0.0,0.0,0.0,0.0,0.0,0.0,0.0,0.0,0.0,0.0,0.0,0.0,1.8768,1.9333,1.9787,2.0223,2.0232,2.03,2.0626,2.072,2.0737,2.0668,2.066,2.0497,2.0103,1.9331,1.8407,1.739,1.6171,0.0,1.3671,1.3194,1.2912,1.2624,1.2624,1.2624,1.2624,0.0,0.0,1.2334,1.2091,1.2097,1.2135,1.1951,1.1935,1.1978,1.193,1.0894,0.9113,0.8456,0.7034,0.5277,0.4656,0.4389,0.43,0.43,0.43,0.43,0.43,0.4032,0.3585,0.2957,0.1522,0.0,-0.0715,-0.1792,-0.2873,-0.2875,-0.2875,-0.2875,-0.2875,-0.3499,-0.4032,-0.4032,-0.4743,-0.5453,-0.5453,-0.6071,-0.6864,-0.7658,-0.783,-0.8181,-0.9506,-0.9685,-0.9864,-0.9951,-1.0038,-1.0038,-1.0038,-1.0038,-0.9937,-0.9894,-0.9705,-0.9493,-0.928,-0.9039,-0.8883,-0.8841,-0.8841,-0.8841,-0.8841,-0.8841,-0.8878,-0.8963,-0.9124,-0.9223,-0.9266,-0.9138,-0.9039,0.0,0.0,0.0,0.0,0.0,0.0,0.0,0.0,0.0,0.0,0.0,1.7175,1.7655,0.0,1.8853,1.9615,1.9898,2.0155,2.0531,2.0412,2.036,2.0566,2.0583,2.0583,2.0583,2.0583,2.0314,1.9554,1.9072,1.8133,1.664,1.5697,1.4663,1.3539,1.3152,1.2861,1.2764,1.2764,1.2764,1.2764,1.2646,1.2587,1.2581,1.2339,1.2296,1.2487,1.2243,1.1831,1.1366,1.0598,0.9153,0.7453,0.7211,0.6125,0.4734,0.446,0.4338,0.43,0.43,0.43,0.43,0.43,0.3762,0.2957,0.2329,0.0895,-0.0716,-0.1254,-0.2153,-0.2875,-0.2875,-0.323,-0.3587,-0.3587,-0.43,-0.501,-0.501,-0.5719,-0.6428,-0.6428,-0.7224,-0.8021,-0.8456,-0.8715,-0.9152,-0.9864,-1.0038,-1.0038,-1.0038,-1.0038,-1.0038,-1.0038,-1.0038,-1.0038,-1.0038,-0.9762,-0.9554,-0.9337,-0.9228,-0.9176,-0.9176,-0.9176,-0.9176,-0.9176,-0.9176,-0.9228,-0.9337,-0.9436,-0.954,-0.9639,-0.9639,-0.953,0.0,0.0,0.0,0.0,0.0,0.0,0.0,0.0,1.8424,1.8315,1.8391,1.8629,1.8742,1.9324,1.9864,2.0232,2.0292,2.0403,2.072,2.0489,2.0292,2.0292,2.0292,2.0292,2.0292,2.0292,1.9911,1.8888,1.8603,1.7762,1.5893,1.5134,1.4388,1.3539,1.3055,1.2764,1.2764,1.2764,1.2764,1.2764,1.2764,1.2764,1.2759,1.2571,1.2587,1.2743,1.2162,1.1531,1.0628,0.8946,0.7563,0.6325,0.6135,0.5504,0.4769,0.4562,0.4416,0.4353,0.4353,0.4353,0.4353,0.4078,0.3262,0.2175,0.145,0.009,-0.1352,-0.1895,-0.2431,-0.2875,-0.2875,-0.3587,-0.43,-0.43,-0.5188,-0.5985,-0.5985,-0.6697,-0.7408,-0.7408,-0.8204,-0.8999,-0.9262,-0.9432,-0.9689,-0.9951,-1.0038,-1.0038,-1.0038,-1.0038,-1.0038,-1.0038,-1.0038,-1.0038,-1.0038,-0.98,-0.963,-0.9455,-0.9445,-0.9445,-0.9445,-0.9408,-0.9408,-0.9445,-0.9408,-0.9493,-0.9705,-0.9705,-0.979,-1.0038,-1.0038,-0.9861,2.2879,2.1847,2.133,2.1675,2.2067,2.2282,0.0,0.0,2.1145,1.9832,1.949,1.941,1.9538,1.9596,1.9864,2.0232,2.0292,2.0309,2.0352,2.0317,2.0292,2.0292,2.0292,2.0292,2.0292,2.0292,1.9911,1.8888,1.7948,1.7016,1.5893,1.4484,1.363,1.3539,1.3055,1.2764,1.2764,1.2764,1.2764,1.2764,1.2764,1.2764,1.2764,1.2737,1.2737,1.2759,1.1716,1.1118,1.0644,0.8266,0.7081,0.6589,0.5399,0.4851,0.4669,0.4587,0.4551,0.4542,0.4542,0.4542,0.4352,0.321,0.2362,0.1513,-0.0378,-0.1401,-0.1936,-0.2672,-0.2913,-0.2875,-0.2875,-0.3587,-0.43,-0.43,-0.563,-0.6962,-0.6962,-0.7764,-0.8388,-0.8388,-0.8652,-0.8999,-0.9262,-0.9432,-0.9689,-0.9951,-1.0038,-1.0038,-1.0038,-1.0038,-1.0038,-1.0038,-1.0038,-1.0038,-1.0038,-0.9932,-0.9904,-0.9885,-0.988,-0.988,-0.988,-0.9705,-0.9696,-0.988,-0.9705,-0.971,-0.9918,-0.9918,-0.9927,-1.0038,-1.0038,-1.0024,2.433,2.3661,0.0,0.0,2.3089,2.2842,2.2475,2.1806,2.1137,2.049,2.0457,2.0488,2.0338,2.0339,2.0386,0.0,2.0292,2.0292,2.0292,2.0292,2.0292,2.0292,1.982,1.9637,2.0201,1.9729,1.898,1.8041,1.7016,1.5893,1.4771,1.3919,1.3443,1.3249,1.2958,1.2764,1.2764,1.2764,1.2764,1.2764,1.2764,1.2764,1.2764,1.2764,1.2462,1.177,1.0578,0.9493,0.8605,0.6728,0.5834,0.5532,0.5035,0.4812,0.4771,0.4683,0.4618,0.4573,0.4573,0.4093,0.3328,0.2756,0.1426,-0.019,-0.1047,-0.1878,-0.259,-0.2958,-0.2917,-0.3053,-0.3587,-0.4387,-0.5275,-0.5808,-0.6962,-0.794,-0.794,-0.83,-0.8568,-0.8568,-0.8656,-0.8828,-0.8999,-0.917,-0.9345,-0.9689,-0.9864,-1.0038,-1.0038,-1.0038,-1.0038,-1.0038,-1.0038,-1.0038,-1.0038,-1.0038,-1.0038,-1.0038,-1.0038,-1.0038,-1.0038,-0.9871,-0.9866,-1.0038,-0.9866,-0.9866,-1.0038,-1.0038,-1.0038,-1.0038,-1.0038,-1.0038,2.4958,0.0,0.0,2.4487,2.4205,2.379,2.2984,2.2276,2.1621,2.1116,2.114,2.1177,2.0797,2.0798,0.0,2.0335,2.0292,2.0292,2.0292,2.0292,2.0292,2.0292,1.9446,1.9072,1.982,1.898,1.7948,1.6922,1.617,1.514,1.3931,1.3539,1.3346,1.3147,1.2861,1.2764,1.2764,1.2764,1.2764,1.2764,1.2764,1.2764,1.2764,1.2462,1.1868,1.0974,0.9395,0.8011,0.7027,0.5737,0.5037,0.4834,0.4834,0.4834,0.4826,0.4767,0.4702,0.4645,0.4353,0.3577,0.2511,0.1835,0.029,-0.1354,-0.1741,-0.2386,-0.3008,-0.3008,-0.2955,-0.3168,-0.4064,-0.5029,-0.5897,-0.6874,-0.7852,-0.8568,-0.8568,-0.8568,-0.8568,-0.8568,-0.8568,-0.8656,-0.8823,-0.8911,-0.8999,-0.9428,-0.9694,-0.9864,-0.9951,-1.0038,-1.0038,-1.0038,-1.0038,-1.0038,-1.0038,-1.0038,-1.0038,-1.0038,-1.0038,-1.0038,-1.0038,-1.0038,-1.0038,-1.0038,-1.0038,-1.0038,-1.0038,-1.0038,-1.0038,-1.0038,-1.0038,-1.0125,0.0,0.0,2.4912,2.4889,2.567,2.5926,2.4073,2.4031,2.379,2.1811,2.1401,2.1221,2.0753,2.0663,2.0581,2.0382,2.0292,2.0292,2.0292,2.0292,2.0292,2.0292,1.9446,1.8796,0.0,1.7948,1.6922,1.5886,1.5596,1.4943,1.3931,1.3443,1.3147,1.3147,1.2861,1.2764,1.2764,1.2764,1.2764,1.2764,1.2764,1.2764,1.2764,1.1473,1.0877,1.0681,0.8308,0.7123,0.6731,0.5639,0.5037,0.4834,0.4834,0.4834,0.4834,0.483,0.4828,0.4626,0.362,0.3016,0.2412,0.0101,-0.0906,-0.1409,-0.272,-0.3083,-0.3134,-0.3134,-0.3048,-0.323,-0.4147,-0.5082,-0.5897,-0.6874,-0.7852,-0.8568,-0.8568,-0.8568,-0.8568,-0.8568,-0.8568,-0.8656,-0.8823,-0.8911,-0.8999,-0.9262,-0.9349,-0.9519,-0.9951,-1.0038,-1.0038,-1.0038,-1.0038,-1.0038,-1.0038,-1.0038,-1.0038,-1.0038,-1.0038,-1.0038,-1.0038,-1.0038,-1.0038,-1.0038,-1.0038,-1.0038,-1.0038,-1.0038,-1.0038,-1.0038,-1.0038,-1.0467,0.0,0.0,2.5945,2.5945,2.6289,2.6184,2.4577,2.4191,2.3644,2.1974,2.159,2.1416,2.096,2.0863,2.0692,2.0335,2.0292,2.0292,2.0292,2.0292,2.0292,2.0292,1.8788,0.0,0.0,0.0,0.0,1.5798,1.4956,1.4202,1.3642,1.3244,1.305,1.2953,1.2861,1.2764,1.2764,1.2764,1.2764,1.2764,1.2764,1.2462,1.1765,1.1077,0.9993,0.8616,0.7425,0.6431,0.5737,0.5135,0.4834,0.4834,0.4834,0.4834,0.4734,0.4029,0.3728,0.3726,0.3324,0.2014,0.0302,-0.0504,-0.1613,-0.2623,-0.3029,-0.3188,-0.3139,-0.3139,-0.3559,-0.4223,-0.5083,-0.6042,-0.7078,-0.7878,-0.8388,-0.8568,-0.8568,-0.8568,-0.8568,-0.8568,-0.8568,-0.8656,-0.8652,-0.874,-0.874,-0.8999,-0.9174,-0.9345,-0.9519,-0.9519,-0.9607,-0.9689,-0.9777,-0.9777,-0.9951,-1.0038,-1.0038,-1.0038,-1.0038,-1.0038,-1.0038,-1.0038,-1.0038,-1.0038,-1.0038,-1.0294,-1.0895,-1.0895,-1.1149,-1.1826,-1.1826,-1.1574,2.5463,2.6094,2.6783,2.6967,2.7194,2.6876,2.5175,2.4517,2.39,2.2082,2.1672,2.1499,2.1041,2.0937,2.0767,2.0335,2.0292,2.0292,2.0292,2.0292,2.0292,2.0292,1.8511,0.0,0.0,0.0,0.0,1.5235,1.4298,1.3636,1.3539,1.3152,1.2958,1.2764,1.2764,1.2764,1.2764,1.2764,1.2764,1.2764,1.2365,1.1868,1.0974,0.9989,0.8707,0.7229,0.6431,0.5734,0.5037,0.4834,0.4834,0.4834,0.4834,0.4834,0.4634,0.3626,0.2922,0.2519,0.2116,0.0705,-0.0907,-0.131,-0.232,-0.323,-0.323,-0.3203,-0.3172,-0.3566,-0.4195,-0.4882,-0.6227,-0.6971,-0.7605,-0.85,-0.8613,-0.8568,-0.8568,-0.8568,-0.8568,-0.8568,-0.8568,-0.8568,-0.8568,-0.8568,-0.8656,-0.874,-0.8915,-0.9087,-0.9262,-0.9262,-0.9345,-0.9519,-0.9519,-0.9607,-0.9694,-0.9777,-0.9864,-0.9864,-0.9951,-1.0038,-1.0038,-1.0038,-1.0038,-1.0038,-1.0299,-1.0722,-1.1327,-1.166,-1.2083,-1.2674,-1.2339,-1.226,2.6198,2.6852,2.738,2.7862,2.8344,2.8121,2.577,2.5228,2.449,2.2162,2.1651,2.1544,0.0,0.0,2.0817,2.0382,2.0292,2.03,2.0317,2.0309,2.0292,0.0,0.0,0.0,0.0,0.0,0.0,1.4298,0.0,1.3443,1.3443,1.3055,1.2764,1.2764,1.2764,1.2764,1.2764,1.2764,1.2764,1.2764,1.1668,1.1072,1.0681,0.8308,0.7024,0.6631,0.5334,0.4834,0.4834,0.4834,0.4834,0.4834,0.4834,0.4734,0.4632,0.3525,0.2418,0.131,-0.0,-0.0706,-0.1109,-0.2321,-0.2927,-0.323,-0.323,-0.323,-0.343,-0.4533,-0.4771,-0.5287,-0.723,-0.7691,-0.7738,-0.8548,-0.8698,-0.8576,-0.8568,-0.8568,-0.8568,-0.8568,-0.8568,-0.8568,-0.8568,-0.8568,-0.8568,-0.8568,-0.8568,-0.874,-0.9174,-0.9262,-0.9262,-0.9262,-0.9262,-0.9257,-0.9262,-0.9519,-0.9602,-0.9689,-0.9864,-1.0038,-1.0125,-1.0038,-1.0038,-1.012,-1.0895,-1.1322,-1.1408,-1.2339,-1.276,-1.2845,-1.1918,-1.2431,2.6393,2.7105,2.7828,2.7954,2.8344,2.8121,2.577,2.5228,2.449,2.2162,2.1454,2.1096,2.0722,0.0,0.0,2.0292,2.0292,0.0,2.0686,2.048,0.0,0.0,0.0,1.8133,1.739,1.617,0.0,0.0,1.3732,1.3443,1.3244,1.2953,1.2764,1.2764,1.2764,1.2764,1.2764,1.2764,1.2764,1.2764,1.1668,1.0676,0.9592,0.7912,0.6628,0.5539,0.5035,0.4834,0.4834,0.4834,0.4834,0.4834,0.4834,0.4331,0.3525,0.2418,0.131,0.0202,-0.111,-0.1817,-0.2017,-0.2422,-0.2826,-0.323,-0.323,-0.323,-0.343,-0.4533,-0.5411,-0.6262,-0.7446,-0.8328,-0.8867,-0.8794,-0.8787,-0.8723,-0.8597,-0.8568,-0.8568,-0.8568,-0.8568,-0.8568,-0.8568,-0.8568,-0.8568,-0.8568,-0.8568,-0.8656,-0.874,-0.874,-0.8828,-0.8999,-0.8999,-0.9087,-0.9257,-0.9519,-0.9859,-1.0636,-1.0212,-1.0636,-1.1997,-1.0717,-1.0636,-1.1997,-1.158,-1.2009,-1.3372,-1.3626,-1.4055,-1.4741,-1.4482,-1.423,2.707,2.7702,2.8253,2.8035,2.8089,2.7533,2.543,2.4753,2.3958,2.1609,2.1065,0.0,2.0339,0.0,0.0,0.0,0.0,0.0,2.0848,2.0686,2.0489,0.0,1.898,0.0,1.739,1.5981,1.4771,0.0,1.3636,1.3346,1.3147,1.2953,1.2764,1.2764,1.2764,1.2764,1.2764,1.2764,1.2559,1.2063,1.0877,0.9592,0.8308,0.6924,0.5834,0.5037,0.0,0.4834,0.4834,0.4834,0.4834,0.4734,0.4331,0.3728,0.3022,0.1512,0.0504,-0.0202,-0.1515,-0.2222,-0.2422,-0.2522,-0.2826,-0.323,-0.323,-0.3531,-0.4133,-0.5231,-0.6226,-0.7307,-0.8322,-0.9026,-0.9303,-0.9104,-0.8999,-0.8917,-0.882,-0.8735,-0.8658,-0.858,-0.8568,-0.8568,-0.8568,-0.8568,-0.8568,-0.8568,-0.8568,-0.874,-0.9087,-0.8828,-0.8656,-0.874,-0.9082,-0.9428,-0.9519,-1.012,-1.0722,-1.1241,-1.1154,-1.1499,-1.2516,-1.166,-1.1655,-1.2674,-1.2601,-1.3033,-1.4139,-1.4482,-1.4915,-1.5431,-1.4999,-1.4741,2.7954,2.8436,2.8689,2.8195,2.7779,2.6955,2.5039,2.4149,2.3086,2.0911,0.0,2.0585,1.9835,2.0006,2.0228,2.0305,0.0,2.0857,2.1002,2.09,2.0694,2.0403,1.8635,1.7483,1.7289,1.5609,1.4298,1.3835,1.3642,1.3346,1.3147,1.2953,1.2764,1.2764,1.2764,1.2764,1.2764,1.2662,1.2165,1.117,0.969,0.8407,0.7123,0.5837,0.5037,0.4834,0.0,0.0,0.4834,0.4834,0.4734,0.4531,0.3525,0.3022,0.2518,0.0705,-0.0101,-0.0403,-0.1515,-0.2121,-0.2422,-0.2725,-0.3027,-0.323,-0.323,-0.3932,-0.5033,-0.6126,-0.722,-0.8223,-0.9324,-0.951,-0.9384,-0.936,-0.9242,-0.9125,-0.91,-0.897,-0.8816,-0.8666,-0.8637,-0.8637,-0.8637,-0.8617,-0.8601,-0.8601,-0.858,-0.8911,-0.9772,-0.9257,-0.8828,-0.8915,-0.9602,-1.012,-1.012,-1.1068,-1.1757,-1.1843,-1.2186,-1.2534,-1.279,-1.2687,-1.2845,-1.3021,-1.3711,-1.4139,-1.4314,-1.4999,-1.5431,-1.5347,-1.4657,-1.4657,2.8551,2.8964,2.9228,2.8712,2.7939,2.6955,2.5039,2.3654,0.0,0.0,0.0,1.9529,1.9383,1.944,0.0,2.018,0.0,0.0,0.0,0.0,2.0489,0.0,0.0,0.0,0.0,0.0,0.0,0.0,0.0,0.0,1.3147,1.2953,1.2764,1.2764,1.2764,1.2764,1.2764,1.1965,1.137,1.117,0.8909,0.7624,0.7123,0.5837,0.5037,0.4834,0.4834,0.0,0.4834,0.4834,0.423,0.3425,0.3224,0.2115,0.0504,0.0101,-0.0605,-0.1313,-0.1617,-0.202,-0.2422,-0.2725,-0.3027,-0.323,-0.323,-0.3932,-0.5033,-0.6126,-0.722,-0.8223,-0.9324,-0.9604,-0.9543,-0.9388,-0.9332,-0.9271,-0.9129,-0.9072,-0.9039,-0.9011,-0.9007,-0.9007,-0.9007,-0.8877,-0.8775,-0.8775,-0.8658,-0.8911,-0.9772,-0.9772,-0.9946,-1.0722,-1.0982,-1.1068,-1.1068,-1.1413,-1.2009,-1.276,-1.2522,-1.3045,-1.458,-1.3366,-1.336,-1.4915,-1.4398,-1.4482,-1.5173,-1.534,-1.5431,-1.5431,-1.5257,-1.5257,2.9045,2.9297,2.9309,2.8517,2.7626,2.6433,2.4378,0.0,0.0,0.0,1.9652,1.9361,1.9011,0.0,0.0,0.0,0.0,0.0,0.0,0.0,0.0,0.0,0.0,0.0,0.0,0.0,0.0,0.0,0.0,0.0,1.2953,1.2861,1.2764,1.2764,1.2764,1.2764,1.2764,1.1765,1.0877,1.0391,0.8315,0.7027,0.6329,0.5436,0.4937,0.4834,0.4834,0.0,0.4734,0.423,0.3626,0.3123,0.2015,0.0907,-0.0101,-0.0605,-0.1111,-0.1617,-0.1718,-0.2021,-0.2322,-0.3127,-0.3731,-0.4033,-0.4033,-0.5131,-0.6528,-0.7123,-0.8021,-0.8924,-0.9426,-0.9628,-0.9604,-0.9518,-0.9498,-0.9449,-0.9271,-0.923,-0.9206,-0.9116,-0.9096,-0.9096,-0.9096,-0.9023,-0.8966,-0.8966,-0.9259,-0.9753,-1.0627,-1.1137,-1.1327,-1.1327,-1.1757,-1.2015,-1.2015,-1.2619,-1.313,-1.3555,-1.3548,-1.3977,-1.4824,-1.4391,-1.4482,-1.5347,-1.4999,-1.4999,-1.5431,-1.5431,-1.5431,-1.5431,-1.5431,-1.5602,2.9389,2.9573,2.9412,2.839,2.7435,2.6151,2.3872,2.2837,0.0,0.0,1.9317,1.9291,1.8754,0.0,0.0,0.0,0.0,0.0,0.0,0.0,0.0,0.0,0.0,0.0,0.0,0.0,0.0,0.0,0.0,0.0,1.2764,1.2764,1.2764,1.2764,1.2764,1.2764,1.2764,1.1473,1.0391,0.9608,0.7822,0.6431,0.5534,0.5135,0.4834,0.4834,0.4834,0.0,0.0,0.3525,0.2922,0.2317,0.0705,-0.0101,-0.0403,-0.1313,-0.1617,-0.1617,-0.1819,-0.2122,-0.2524,-0.353,-0.4232,-0.4634,-0.4933,-0.6429,-0.7925,-0.8021,-0.8722,-0.9628,-0.9628,-0.9628,-0.9628,-0.9628,-0.9628,-0.9587,-0.9445,-0.9602,-0.9656,-0.9234,-0.9399,-0.9583,-0.9583,-0.9361,-0.9337,-0.9801,-1.0086,-1.0651,-1.176,-1.2389,-1.2593,-1.1935,-1.2534,-1.296,-1.296,-1.3652,-1.4088,-1.4088,-1.4489,-1.4734,-1.4734,-1.5166,-1.5431,-1.5431,-1.5431,-1.5431,-1.5431,-1.5431,-1.5431,-1.5431,-1.5431,-1.5683,2.9481,2.9814,2.9906,2.8884,2.8015,2.665,2.3945,0.0,0.0,1.9405,1.8878,1.8736,1.8451,1.8504,1.8845,1.9615,0.0,2.03,0.0,0.0,0.0,0.0,0.0,0.0,0.0,0.0,0.0,0.0,0.0,0.0,0.0,1.2764,1.2764,1.2764,1.2764,1.2764,1.2764,1.0788,0.9706,0.9608,0.7232,0.5939,0.5634,0.5338,0.5037,0.4834,0.4834,0.0,0.0,0.3224,0.2015,0.0302,0.0101,-0.0605,-0.1515,-0.1516,-0.1617,-0.1617,-0.1617,-0.2423,-0.3428,-0.3627,-0.383,-0.4334,-0.5529,-0.6728,-0.773,-0.7925,-0.8722,-0.9628,-0.9628,-0.9628,-0.9628,-0.9628,-0.9628,-0.9624,-0.9608,-1.0373,-1.0751,-0.9776,-1.0347,-1.1021,-1.1021,-1.0105,-0.9988,-1.1869,-1.1306,-1.1182,-1.2768,-1.2985,-1.3231,-1.377,-1.3913,-1.4004,-1.4004,-1.4082,-1.4088,-1.4088,-1.4489,-1.4734,-1.4734,-1.5166,-1.5431,-1.5431,-1.5431,-1.5431,-1.5431,-1.5431,-1.5431,-1.5431,-1.5431,-1.5683,2.9412,2.9848,2.9975,2.8953,2.8083,2.6704,2.3956,0.0,2.1173,1.9396,1.8763,1.8523,1.8442,1.8322,1.8502,1.9273,1.9204,1.9581,0.0,0.0,0.0,0.0,0.0,0.0,0.0,0.0,0.0,0.0,0.0,0.0,0.0,1.2764,1.2764,1.2764,1.2764,1.2462,1.1868,1.0395,0.9308,0.8616,0.6833,0.5839,0.5634,0.5338,0.5037,0.4734,0.413,0.0,0.0,0.1813,0.0806,-0.0101,-0.0706,-0.1212,-0.1718,-0.2321,-0.2521,-0.2622,-0.3324,-0.3925,-0.4427,-0.5031,-0.5334,-0.5634,-0.6631,-0.773,-0.8634,-0.8928,-0.9225,-0.9628,-0.9628,-0.9628,-0.9628,-0.9628,-0.9628,-0.9821,-1.04,-1.0881,-1.1268,-1.1468,-1.1858,-1.2145,-1.2145,-1.1686,-1.1631,-1.2491,-1.257,-1.2749,-1.3483,-1.3742,-1.4035,-1.4276,-1.4195,-1.4088,-1.4088,-1.4088,-1.4166,-1.4237,-1.4573,-1.4741,-1.4915,-1.5257,-1.5431,-1.5431,-1.5431,-1.5431,-1.5431,-1.5431,-1.5431,-1.5431,-1.5789,-1.6227,2.8763,2.9543,3.0009,2.9148,2.8195,2.6737,0.0,2.2481,2.1081,1.9236,1.8603,1.8362,1.8282,1.8121,1.8245,1.8896,1.8862,1.9213,2.0523,0.0,0.0,0.0,0.0,0.0,0.0,0.0,0.0,0.0,0.0,0.0,0.0,1.2764,1.2764,1.2764,1.2764,1.2262,1.117,1.0096,0.9011,0.8021,0.6736,0.5939,0.5634,0.5438,0.5138,0.4734,0.0,0.0,0.0,0.0705,-0.0202,-0.0504,-0.1313,-0.1818,-0.212,-0.2923,-0.3423,-0.3825,-0.4524,-0.5027,-0.5427,-0.6134,-0.6637,-0.7036,-0.7633,-0.8432,-0.9133,-0.9529,-0.9628,-0.9628,-0.9628,-0.9821,-1.0109,-1.0109,-1.0306,-1.0694,-1.1463,-1.1853,-1.2242,-1.263,-1.2926,-1.3216,-1.3216,-1.2926,-1.292,-1.3505,-1.3832,-1.406,-1.426,-1.4566,-1.475,-1.4663,-1.4469,-1.4275,-1.4102,-1.4088,-1.4166,-1.4398,-1.4566,-1.4824,-1.509,-1.5264,-1.5431,-1.5431,-1.5431,-1.5431,-1.5431,-1.5526,-1.557,-1.5577,-1.6156,-1.6737,2.7349,2.8813,3.0101,2.9607,2.8465,2.6726,0.0,2.2609,2.0999,1.8833,1.8442,1.8362,1.8031,1.804,1.816,1.8528,1.8913,1.9427,2.0189,0.0,0.0,0.0,0.0,0.0,0.0,0.0,0.0,0.0,0.0,0.0,0.0,1.2764,1.2764,1.2764,1.2764,1.2262,1.117,1.0096,0.9011,0.8021,0.693,0.6137,0.5636,0.5634,0.5336,0.0,0.0,0.0,0.0,0.0403,-0.0605,-0.1617,-0.1617,-0.222,-0.3224,-0.3224,-0.3825,-0.4824,-0.4824,-0.5529,-0.6337,-0.6437,-0.7138,-0.8038,-0.8333,-0.8627,-0.8924,-0.9426,-0.9628,-0.9628,-0.9628,-1.04,-1.1175,-1.1175,-1.195,-1.2635,-1.2727,-1.3516,-1.4004,-1.2926,-1.3516,-1.4292,-1.4292,-1.3414,-1.3409,-1.5445,-1.4962,-1.4582,-1.5246,-1.5391,-1.5277,-1.499,-1.4957,-1.4716,-1.4135,-1.4088,-1.4166,-1.4398,-1.4566,-1.4824,-1.509,-1.5264,-1.5431,-1.5431,-1.5431,-1.5431,-1.5431,-1.5752,-1.5913,-1.5921,-1.6498,-1.7181,2.5486,2.6226,2.6768,2.5968,2.4977,2.3754,2.2217,2.0914,1.9706,1.8619,1.8273,1.8121,1.804,1.804,1.8331,1.923,1.9033,0.0,0.0,0.0,0.0,0.0,0.0,0.0,0.0,0.0,0.0,0.0,0.0,0.0,0.0,1.2764,1.2764,1.2764,1.2063,1.1175,1.0096,0.9011,0.7925,0.6933,0.6534,0.6137,0.5636,0.5636,0.0,0.0,0.0,0.0,0.0,-0.0605,-0.1313,-0.1718,-0.2422,-0.2923,-0.3425,-0.483,-0.5632,-0.6032,-0.6734,-0.7235,-0.7537,-0.7537,-0.7736,-0.8038,-0.8333,-0.8432,-0.863,-0.9133,-0.9335,-0.9529,-1.0498,-1.0979,-1.1365,-1.2047,-1.2436,-1.2926,-1.3613,-1.41,-1.4388,-1.4765,-1.5057,-1.535,-1.535,-1.5057,-1.5051,-1.573,-1.554,-1.5412,-1.5611,-1.5518,-1.5357,-1.5271,-1.5084,-1.4803,-1.4416,-1.4382,-1.446,-1.458,-1.465,-1.4908,-1.5264,-1.5347,-1.5431,-1.5431,-1.565,-1.576,-1.576,-1.6074,-1.6514,-1.7092,-1.7481,-1.7975,0.0,2.4475,2.5026,2.4441,2.3426,2.2285,2.1337,2.0099,1.8997,1.836,1.8121,1.804,1.804,1.804,1.8271,1.8982,1.8939,0.0,0.0,0.0,0.0,0.0,0.0,0.0,0.0,0.0,0.0,0.0,0.0,0.0,0.0,0.0,1.2565,1.2165,1.1565,1.0685,0.9608,0.8517,0.7428,0.6437,0.6437,0.6137,0.5737,0.5233,0.0,0.0,0.0,0.0,0.0,-0.1111,-0.1818,-0.222,-0.2923,-0.3725,-0.4528,-0.5934,-0.6637,-0.7135,-0.7739,-0.8038,-0.8038,-0.8038,-0.8038,-0.8038,-0.8237,-0.863,-0.9225,-0.9525,-0.992,-1.0408,-1.1282,-1.1858,-1.2339,-1.3022,-1.3505,-1.4082,-1.4675,-1.4873,-1.5064,-1.5635,-1.5832,-1.5832,-1.5832,-1.5832,-1.5832,-1.5832,-1.5832,-1.5832,-1.5832,-1.5671,-1.5558,-1.5558,-1.5398,-1.513,-1.4723,-1.4677,-1.4702,-1.4838,-1.4888,-1.4999,-1.534,-1.5431,-1.5489,-1.5613,-1.5811,-1.5972,-1.6089,-1.6492,-1.7079,-1.7766,-1.8055,-1.8454,0.0,2.3362,2.4418,2.4386,2.3213,2.188,2.131,2.0044,0.0,1.8074,1.7997,1.8006,1.8031,1.8014,1.8031,1.8143,1.8725,0.0,0.0,0.0,0.0,0.0,0.0,0.0,0.0,0.0,0.0,0.0,0.0,0.0,0.0,0.0,1.2262,1.1268,1.1072,1.0485,0.9509,0.8418,0.7428,0.6437,0.6437,0.6239,0.5942,0.4732,0.0,0.0,0.0,0.0,0.0,-0.1312,-0.2321,-0.3224,-0.3324,-0.4628,-0.6437,-0.6437,-0.7138,-0.8038,-0.8038,-0.8038,-0.8038,-0.8038,-0.8038,-0.8041,-0.8137,-0.9126,-1.0314,-1.0408,-1.1096,-1.1975,-1.2073,-1.2942,-1.3902,-1.4004,-1.4867,-1.5737,-1.5737,-1.5825,-1.5832,-1.5832,-1.5832,-1.5832,-1.5832,-1.5832,-1.5832,-1.5832,-1.5832,-1.5832,-1.5832,-1.5832,-1.5832,-1.5832,-1.5832,-1.5611,-1.5161,-1.5008,-1.4977,-1.5168,-1.5163,-1.5173,-1.5431,-1.5452,-1.5606,-1.5913,-1.5965,-1.6133,-1.6529,-1.7018,-1.7598,-1.8087,-1.8381,-1.8658,1.9049,0.0,2.0917,2.0514,2.004,1.9624,0.0,1.8797,1.8388,1.7759,0.0,1.7689,1.798,1.78,1.798,1.9153,1.9247,0.0,0.0,0.0,0.0,0.0,0.0,0.0,0.0,0.0,0.0,0.0,0.0,0.0,0.0,0.0,1.1468,1.117,0.9596,0.8616,0.8418,0.7329,0.6634,0.6437,0.645,0.6255,0.5952,0.5859,0.0,0.0,0.0,0.0,-0.1313,-0.2421,-0.3024,-0.3324,-0.5031,-0.5934,-0.6537,-0.7338,-0.7739,-0.8038,-0.8038,-0.8038,-0.8038,-0.8038,-0.8038,-0.8137,-0.9019,-0.9513,-0.9809,-1.0002,-1.0886,-1.196,-1.2931,-1.3323,-1.3806,-1.4592,-1.5166,-1.554,-1.554,-1.5737,-1.5832,-1.5832,-1.5832,-1.5832,-1.5832,-1.5832,-1.5832,-1.5832,-1.5832,-1.5832,-1.5832,-1.5832,-1.5832,-1.5832,-1.5832,-1.5873,-1.5933,-1.5527,-1.5108,-1.4789,-1.5041,-1.5173,-1.5431,-1.5672,-1.584,-1.5913,-1.6389,-1.6882,-1.7398,-1.7749,-1.811,-1.8381,-1.8651,-1.8735,1.8073,1.8733,1.924,1.8934,1.8867,1.8798,1.8373,1.8092,0.0,0.0,0.0,1.7329,1.7706,1.7749,0.0,1.905,0.0,0.0,0.0,0.0,0.0,0.0,0.0,0.0,0.0,0.0,0.0,0.0,0.0,0.0,0.0,0.0,1.0979,1.0489,0.8909,0.8021,0.8021,0.6933,0.6439,0.6448,0.6358,0.5754,0.4638,0.4847,0.3939,0.0,0.0,0.0,-0.1718,-0.2924,-0.3828,-0.4529,-0.5934,-0.6736,-0.7238,-0.7739,-0.8038,-0.8038,-0.8038,-0.8038,-0.8038,-0.8531,-0.8726,-0.8924,-0.9998,-1.0681,-1.1072,-1.117,-1.2047,-1.3028,-1.3709,-1.4004,-1.4202,-1.479,-1.5077,-1.5356,-1.5445,-1.5635,-1.5737,-1.5737,-1.5832,-1.5832,-1.5832,-1.5832,-1.5832,-1.5832,-1.5832,-1.5832,-1.5832,-1.5832,-1.5832,-1.5832,-1.5832,-1.5873,-1.6033,-1.5803,-1.5645,-1.5486,-1.5591,-1.5769,-1.5862,-1.603,-1.6191,-1.6345,-1.6926,-1.745,-1.7721,-1.8094,-1.8381,-1.8481,-1.8743,-1.8827,1.799,1.8412,1.8715,1.8638,1.8713,1.8603,1.8257,0.0,0.0,0.0,0.0,0.0,0.0,0.0,0.0,0.0,0.0,0.0,0.0,0.0,0.0,0.0,0.0,0.0,0.0,0.0,0.0,0.0,0.0,0.0,0.0,0.0,0.0,0.9608,0.8418,0.7726,0.7726,0.6833,0.6445,0.6364,0.6057,0.5144,0.363,0.3026,0.2726,0.0,0.0,0.0,-0.1919,-0.3226,-0.4531,-0.5939,-0.6437,-0.7238,-0.8038,-0.8038,-0.8038,-0.8038,-0.8038,-0.8038,-0.8137,-0.9217,-0.9608,-0.9801,-1.1072,-1.2047,-1.2727,-1.2926,-1.3613,-1.4298,-1.4298,-1.4496,-1.4592,-1.4592,-1.4885,-1.5077,-1.5356,-1.5445,-1.554,-1.5737,-1.5737,-1.5832,-1.5832,-1.5832,-1.5832,-1.5832,-1.5832,-1.5832,-1.5832,-1.5832,-1.5832,-1.5832,-1.5832,-1.5927,-1.5961,-1.6111,-1.638,-1.6571,-1.649,-1.6389,-1.644,-1.644,-1.6594,-1.6923,-1.7487,-1.7721,-1.7721,-1.8295,-1.8481,-1.8574,-1.8743,-1.8827,1.7917,1.8412,1.8638,1.8493,1.8713,1.8825,1.8443,0.0,0.0,0.0,0.0,0.0,0.0,0.0,0.0,0.0,0.0,0.0,0.0,0.0,0.0,0.0,0.0,0.0,0.0,0.0,0.0,0.0,0.0,0.0,0.0,0.0,0.0,0.9608,0.7726,0.6634,0.6634,0.6434,0.6445,0.6364,0.4537,0.444,0.5773,0.2121,0.0505,0.0,0.0,-0.1212,-0.2927,-0.3217,-0.4318,-0.6132,-0.7335,-0.7839,-0.8038,-0.8038,-0.8038,-0.8038,-0.8038,-0.8038,-0.8137,-0.9217,-0.9608,-0.9998,-1.1853,-1.2533,-1.2926,-1.3806,-1.4196,-1.4298,-1.4298,-1.4298,-1.4394,-1.4394,-1.4592,-1.479,-1.4783,-1.5166,-1.554,-1.554,-1.5635,-1.5832,-1.5832,-1.5832,-1.5832,-1.5832,-1.5832,-1.5832,-1.5832,-1.5832,-1.5832,-1.5832,-1.6028,-1.6204,-1.6432,-1.6713,-1.6994,-1.7166,-1.6696,-1.6491,-1.6769,-1.6784,-1.693,-1.7252,-1.7505,-1.7815,-1.7994,-1.8381,-1.8566,-1.8735,-1.8827,-1.8827,1.7206,1.7761,1.8212,1.8199,1.8708,1.8967,1.8382,1.8048,0.0,0.0,0.0,0.0,0.0,0.0,0.0,0.0,0.0,0.0,0.0,0.0,0.0,0.0,0.0,0.0,0.0,0.0,0.0,0.0,0.0,0.0,0.0,0.0,0.0,0.0,0.7528,0.6437,0.6437,0.6445,0.6358,0.6369,0.5356,0.4244,0.2829,0.0909,-0.0,-0.0,0.0,-0.1918,-0.4956,-0.4939,-0.5634,-0.6845,-0.7543,-0.7842,-0.8038,-0.8627,-0.8821,-0.892,-0.9509,-0.9706,-0.9899,-1.0974,-1.1268,-1.1556,-1.3119,-1.3607,-1.3709,-1.4196,-1.4298,-1.4298,-1.4298,-1.4298,-1.4298,-1.4298,-1.4394,-1.449,-1.4688,-1.4981,-1.5363,-1.5445,-1.5642,-1.5832,-1.5832,-1.5832,-1.5832,-1.5832,-1.5832,-1.5832,-1.5832,-1.5832,-1.5832,-1.5832,-1.6028,-1.6312,-1.6588,-1.6878,-1.7066,-1.7333,-1.7055,-1.6952,-1.7106,-1.7113,-1.7279,-1.7527,-1.7807,-1.8094,-1.8288,-1.8558,-1.8743,-1.8827,-1.8827,-1.8827,1.6973,1.7478,1.8019,1.8095,0.0,1.9173,1.8594,1.8189,0.0,0.0,0.0,0.0,0.0,0.0,0.0,0.0,0.0,0.0,0.0,0.0,0.0,0.0,0.0,0.0,0.0,0.0,0.0,0.0,0.0,0.0,0.0,0.0,0.0,0.0,0.7428,0.6439,0.6442,0.6358,0.6165,0.566,0.6181,0.4147,-0.0,-0.0,-0.0505,-0.1515,-0.1515,-0.3334,-0.6382,-0.6469,-0.6862,-0.7353,-0.755,-0.7942,-0.8432,-0.9316,-0.9805,-1.0096,-1.0877,-1.117,-1.1365,-1.2339,-1.2727,-1.2926,-1.4004,-1.4298,-1.4298,-1.4298,-1.4298,-1.4298,-1.4298,-1.4298,-1.4298,-1.4298,-1.4298,-1.4394,-1.4592,-1.4885,-1.5178,-1.5356,-1.5642,-1.5832,-1.5832,-1.5832,-1.5832,-1.5832,-1.5832,-1.5832,-1.5832,-1.5832,-1.5825,-1.5927,-1.6123,-1.6407,-1.677,-1.6965,-1.716,-1.7333,-1.7326,-1.7326,-1.7326,-1.7326,-1.7426,-1.7721,-1.7994,-1.8187,-1.8481,-1.8743,-1.8827,-1.8827,-1.8827,-1.8827,1.8064,1.8317,1.8525,1.8252,1.8722,0.0,1.9384,1.9261,0.0,1.9024,0.0,0.0,0.0,0.0,0.0,0.0,0.0,0.0,0.0,0.0,0.0,0.0,0.0,0.0,0.0,0.0,0.0,0.0,0.0,0.0,0.0,0.0,0.0,0.0,0.0,0.6445,0.6361,0.6372,0.5354,0.3426,0.5464,0.4147,-0.0,-0.0,-0.2223,-0.5979,-0.5979,-0.6075,-0.6467,-0.6765,-0.6956,-0.6945,-0.7447,-0.8333,-0.9509,-0.9608,-1.0194,-1.1077,-1.117,-1.117,-1.1365,-1.2339,-1.2727,-1.2926,-1.4004,-1.4298,-1.4298,-1.4298,-1.4298,-1.4298,-1.4298,-1.4298,-1.4298,-1.4298,-1.4298,-1.4298,-1.4298,-1.479,-1.5083,-1.5083,-1.5452,-1.5832,-1.5832,-1.5832,-1.5832,-1.5832,-1.5832,-1.5832,-1.5832,-1.5832,-1.5927,-1.6123,-1.64,-1.677,-1.7239,-1.7239,-1.7232,-1.7326,-1.7326,-1.7326,-1.7326,-1.7326,-1.7426,-1.7721,-1.7994,-1.8187,-1.8481,-1.8743,-1.8827,-1.8827,-1.8827,-1.8827,1.8345,1.8816,1.9146,1.8175,1.9191,0.0,0.0,1.885,1.8866,1.9178,1.917,0.0,0.0,0.0,0.0,0.0,0.0,0.0,0.0,0.0,0.0,0.0,0.0,0.0,0.0,0.0,0.0,0.0,0.0,0.0,0.0,0.0,0.0,0.0,0.0,0.6356,0.6364,0.6377,0.5974,0.5157,0.3334,0.1616,-0.0,-0.0,-0.2324,-0.639,-0.639,-0.638,-0.6364,-0.6564,-0.6656,-0.6845,-0.7739,-0.8432,-0.9019,-1.0587,-1.1365,-1.1853,-1.2829,-1.3125,-1.3221,-1.3607,-1.3709,-1.3806,-1.4196,-1.4298,-1.4298,-1.4298,-1.4298,-1.4298,-1.4298,-1.4298,-1.4298,-1.4298,-1.4298,-1.4298,-1.4298,-1.4688,-1.5083,-1.5083,-1.5458,-1.5832,-1.5832,-1.5832,-1.5832,-1.5832,-1.5832,-1.5832,-1.5832,-1.5832,-1.5927,-1.613,-1.6595,-1.6965,-1.7232,-1.7326,-1.7326,-1.7326,-1.7326,-1.7326,-1.7326,-1.7434,-1.7714,-1.79,-1.8187,-1.8465,-1.8651,-1.8735,-1.8827,-1.8827,-1.8827,-1.8827,1.8686,1.9219,1.9752,1.8713,0.0,0.0,1.9191,1.8897,1.9032,1.9581,1.9615,0.0,0.0,0.0,0.0,0.0,0.0,0.0,0.0,0.0,0.0,0.0,0.0,0.0,0.0,0.0,0.0,0.0,0.0,0.0,0.0,0.0,0.0,0.0,0.0,0.6369,0.6372,0.6382,0.6393,0.6292,0.0707,-0.1313,-0.0,-0.1414,-0.3233,-0.5464,-0.6075,-0.6372,-0.6356,-0.6356,-0.6751,-0.7241,-0.7939,-0.873,-0.9517,-1.1179,-1.2058,-1.2646,-1.3715,-1.4202,-1.4298,-1.4298,-1.4298,-1.4298,-1.4298,-1.4298,-1.4298,-1.4298,-1.4298,-1.4298,-1.4298,-1.4298,-1.4298,-1.4298,-1.4298,-1.4298,-1.4394,-1.479,-1.5083,-1.5178,-1.5547,-1.5832,-1.5832,-1.5832,-1.5832,-1.5832,-1.5832,-1.5832,-1.5832,-1.5832,-1.6028,-1.6414,-1.6878,-1.7153,-1.7333,-1.7326,-1.7326,-1.7326,-1.7326,-1.7326,-1.7326,-1.7535,-1.7815,-1.8087,-1.8381,-1.8566,-1.8827,-1.8827,-1.8827,-1.8827,-1.8827,-1.8827,1.9399,1.9581,2.0379,0.0,0.0,0.0,2.0021,1.9784,1.9748,2.0726,0.0,0.0,0.0,0.0,0.0,0.0,0.0,0.0,0.0,0.0,0.0,0.0,0.0,0.0,0.0,0.0,0.0,0.0,0.0,0.0,0.0,0.0,0.0,0.0,0.0,0.0,0.639,0.639,0.6393,0.6199,-0.2322,-0.4147,-0.0202,-0.4452,-0.526,-0.3325,-0.5448,-0.6353,-0.6437,-0.6437,-0.7036,-0.8038,-0.8038,-0.932,-1.1194,-1.1194,-1.2175,-1.3443,-1.3539,-1.3823,-1.4298,-1.4298,-1.4298,-1.4298,-1.4298,-1.4298,-1.4298,-1.4298,-1.4298,-1.4298,-1.4298,-1.4298,-1.4298,-1.4298,-1.4298,-1.4394,-1.4688,-1.4885,-1.5172,-1.5452,-1.5642,-1.5832,-1.5832,-1.5832,-1.5832,-1.5832,-1.5832,-1.5832,-1.5832,-1.6028,-1.6414,-1.6979,-1.7153,-1.7326,-1.7326,-1.7326,-1.7326,-1.7326,-1.7326,-1.7326,-1.7326,-1.7527,-1.7815,-1.8087,-1.8381,-1.8566,-1.8827,-1.8827,-1.8827,-1.8827,-1.8827,-1.8827,2.0054,2.069,0.0,0.0,0.0,0.0,0.0,2.0688,0.0,0.0,0.0,0.0,0.0,0.0,0.0,0.0,0.0,0.0,0.0,0.0,0.0,0.0,0.0,0.0,0.0,0.0,0.0,0.0,0.0,0.0,0.0,0.0,0.0,0.0,0.0,0.0,0.639,0.6398,0.3337,-0.2625,-0.5164,-0.5775,-0.4452,-0.4241,-0.4673,-0.5649,-0.6191,-0.6502,-0.6559,-0.6472,-0.6936,-0.7733,-0.8329,-0.9324,-1.0511,-1.1389,-1.2273,-1.3055,-1.3346,-1.3823,-1.4298,-1.4298,-1.4298,-1.4298,-1.4298,-1.4298,-1.4298,-1.4298,-1.4298,-1.4298,-1.4298,-1.4298,-1.4298,-1.4298,-1.4298,-1.4394,-1.4688,-1.4885,-1.5172,-1.5452,-1.5642,-1.5832,-1.5832,-1.5832,-1.5832,-1.5832,-1.5832,-1.5832,-1.6028,-1.6312,-1.6595,-1.6979,-1.7153,-1.7326,-1.7326,-1.7326,-1.7326,-1.7326,-1.7527,-1.7621,-1.7621,-1.7807,-1.8094,-1.8381,-1.8566,-1.8743,-1.8827,-1.8827,-1.8827,-1.8827,-1.8827,-1.8962,2.1149,0.0,0.0,0.0,0.0,0.0,0.0,0.0,0.0,0.0,0.0,0.0,0.0,0.0,0.0,0.0,0.0,0.0,0.0,0.0,0.0,0.0,0.0,0.0,0.0,0.0,0.0,0.0,0.0,0.0,0.0,0.0,0.0,0.0,0.0,0.0,0.131,0.2119,-0.0,-0.5157,-0.5972,-0.638,-0.638,-0.5185,-0.5331,-0.6733,-0.6556,-0.6562,-0.6611,-0.6788,-0.7332,-0.8127,-0.8924,-0.9817,-1.0609,-1.1389,-1.1975,-1.2565,-1.3055,-1.3539,-1.4016,-1.4202,-1.4298,-1.4298,-1.4298,-1.4298,-1.4298,-1.4298,-1.4298,-1.4298,-1.4298,-1.4298,-1.4298,-1.4298,-1.4298,-1.4394,-1.479,-1.4987,-1.5172,-1.5547,-1.5737,-1.5832,-1.5832,-1.5832,-1.5832,-1.5832,-1.5927,-1.6028,-1.6312,-1.6595,-1.6871,-1.7066,-1.7239,-1.7326,-1.7326,-1.7326,-1.7326,-1.7326,-1.7527,-1.7721,-1.7815,-1.8094,-1.8288,-1.8481,-1.8743,-1.8827,-1.8827,-1.8827,-1.8827,-1.8827,-1.8978,-1.9161,2.2251,0.0,0.0,0.0,0.0,0.0,0.0,0.0,0.0,0.0,0.0,0.0,0.0,0.0,0.0,0.0,0.0,0.0,0.0,0.0,0.0,0.0,0.0,0.0,0.0,0.0,0.0,0.0,0.0,0.0,0.0,0.0,0.0,0.0,0.0,0.0,-0.639,-0.4442,-0.353,0.0,-0.5461,-0.6385,-0.6396,-0.6592,-0.6741,-0.6755,-0.6744,-0.6733,-0.6711,-0.739,-0.8226,-0.9023,-0.9723,-1.0511,-1.1194,-1.1194,-1.159,-1.2175,-1.2662,-1.3152,-1.363,-1.4106,-1.4298,-1.4298,-1.4298,-1.4298,-1.4298,-1.4298,-1.4298,-1.4298,-1.4298,-1.4298,-1.4298,-1.4298,-1.4298,-1.449,-1.4987,-1.5083,-1.5274,-1.5737,-1.5832,-1.5832,-1.5832,-1.5832,-1.5832,-1.5832,-1.6028,-1.6312,-1.6588,-1.6784,-1.7066,-1.7232,-1.7326,-1.7326,-1.7326,-1.7326,-1.7326,-1.7326,-1.7527,-1.7815,-1.8087,-1.8381,-1.8481,-1.8574,-1.8743,-1.8827,-1.8827,-1.8859,-1.8875,-1.8883,-1.9248,-1.9431,0.0,2.2982,0.0,0.0,0.0,0.0,0.0,0.0,0.0,0.0,0.0,0.0,0.0,0.0,0.0,0.0,0.0,0.0,0.0,0.0,0.0,0.0,0.0,0.0,0.0,0.0,0.0,0.0,0.0,0.0,0.0,0.0,0.0,0.0,0.0,-0.3382,-0.639,-0.5977,-0.5804,0.0,-0.639,-0.6643,-0.6728,-0.6654,-0.6673,-0.6766,-0.7392,-0.7641,-0.7632,-0.8292,-0.9023,-0.9723,-0.992,-1.0511,-1.1194,-1.1194,-1.1785,-1.2662,-1.2764,-1.334,-1.4106,-1.4298,-1.4298,-1.4298,-1.4298,-1.4298,-1.4298,-1.4298,-1.4298,-1.4298,-1.4298,-1.4298,-1.4298,-1.4298,-1.4298,-1.449,-1.4987,-1.5083,-1.5274,-1.5737,-1.5832,-1.5832,-1.5832,-1.5832,-1.5832,-1.5832,-1.6028,-1.6312,-1.6588,-1.6784,-1.7066,-1.7232,-1.7326,-1.7326,-1.7326,-1.7326,-1.7326,-1.7326,-1.7707,-1.7994,-1.8087,-1.8381,-1.8566,-1.8743,-1.8735,-1.8827,-1.8827,-1.9113,-1.9256,-1.9264,-1.9598,-1.9908,0.0,0.0,0.0,0.0,0.0,0.0,0.0,0.0,0.0,0.0,0.0,0.0,0.0,0.0,0.0,0.0,0.0,0.0,0.0,0.0,0.0,0.0,0.0,0.0,0.0,0.0,0.0,0.0,0.0,0.0,0.0,0.0,0.0,0.0,-0.1664,-0.3451,-0.6024,-0.607,-0.65,-0.7333,-0.727,-0.755,-0.8159,-0.7494,-0.7293,-0.7514,-0.8229,-0.8433,-0.8449,-0.9095,-0.962,-1.0019,-1.0408,-1.0801,-1.1194,-1.1194,-1.1585,-1.2078,-1.2662,-1.3147,-1.3624,-1.4106,-1.4298,-1.4298,-1.4298,-1.4298,-1.4298,-1.4298,-1.4298,-1.4298,-1.4298,-1.4298,-1.4298,-1.4298,-1.4394,-1.4592,-1.4987,-1.5172,-1.5356,-1.5737,-1.5832,-1.5832,-1.5832,-1.5832,-1.5832,-1.5933,-1.6218,-1.6501,-1.6784,-1.6972,-1.7211,-1.7545,-1.756,-1.7625,-1.7786,-1.7794,-1.7794,-1.7978,-1.8369,-1.8663,-1.8758,-1.9051,-1.9083,-1.8835,-1.9002,-1.909,-1.909,-1.9439,-1.9606,-1.9622,-1.9955,-2.0218,0.0,0.0,0.0,0.0,0.0,0.0,0.0,0.0,0.0,0.0,0.0,0.0,0.0,0.0,0.0,0.0,0.0,0.0,0.0,0.0,0.0,0.0,0.0,0.0,0.0,0.0,0.0,0.0,0.0,0.0,0.0,0.0,-0.0104,-0.0415,-0.2009,-0.3735,-0.5539,-0.5763,-0.6599,-0.8088,-0.8209,-0.8699,-0.9559,-0.8762,-0.8454,-0.8464,-0.9006,-0.9176,-0.9263,-0.9892,-1.0216,-1.0314,-1.09,-1.1194,-1.1194,-1.1194,-1.1296,-1.1487,-1.237,-1.2759,-1.3055,-1.3913,-1.4202,-1.4298,-1.4298,-1.4298,-1.4298,-1.4298,-1.4298,-1.4298,-1.4298,-1.4334,-1.4358,-1.431,-1.4629,-1.4846,-1.5089,-1.5261,-1.554,-1.573,-1.5832,-1.5845,-1.5899,-1.5905,-1.6027,-1.6273,-1.6654,-1.694,-1.7144,-1.7319,-1.7604,-1.7874,-1.7904,-1.8013,-1.8277,-1.8299,-1.8496,-1.8686,-1.8996,-1.9298,-1.9478,-1.9771,-1.959,-1.9018,-1.9304,-1.9455,-1.9455,-1.9789,-1.9955,-1.9963,-2.0321,-2.0488,0.0,0.0,0.0,0.0,0.0,0.0,0.0,0.0,0.0,0.0,0.0,0.0,0.0,0.0,0.0,0.0,0.0,0.0,0.0,0.0,0.0,0.0,0.0,0.0,0.0,0.0,0.0,0.0,0.0,0.0,0.0,-0.0313,-0.1054,-0.1763,-0.2143,-0.3243,-0.511,-0.5932,-0.6926,-0.8239,-0.9103,-0.9544,-0.9555,-0.9918,-0.9828,-0.9326,-0.9828,-1.0083,-1.0066,-1.078,-1.0998,-1.1096,-1.1194,-1.1194,-1.1194,-1.1194,-1.1487,-1.1878,-1.2078,-1.2662,-1.3443,-1.3539,-1.3919,-1.4298,-1.4298,-1.4298,-1.4298,-1.4298,-1.4298,-1.4298,-1.4298,-1.4479,-1.46,-1.4358,-1.4867,-1.5375,-1.5134,-1.5261,-1.554,-1.573,-1.5832,-1.5912,-1.6166,-1.6413,-1.6703,-1.6963,-1.74,-1.7697,-1.7795,-1.7985,-1.8189,-1.8233,-1.824,-1.8255,-1.8299,-1.8489,-1.8686,-1.8686,-1.9184,-1.9486,-1.9486,-1.9771,-1.982,-1.9733,-1.9773,-1.9797,-1.9797,-2.0154,-2.0321,-2.0329,-2.0686,-2.0853,2.1571,0.0,0.0,0.0,0.0,0.0,0.0,0.0,0.0,0.0,0.0,0.0,0.0,0.0,0.0,0.0,0.0,0.0,0.0,0.0,0.0,0.0,0.0,0.0,0.0,0.0,0.0,0.0,0.0,0.0,-0.0908,-0.1358,-0.2016,-0.2845,-0.2941,-0.3865,-0.58,-0.6275,-0.7553,-0.977,-1.0497,-1.0928,-1.0946,-1.107,-1.0664,-0.9892,-1.0549,-1.073,-1.0825,-1.1035,-1.1194,-1.1194,-1.1194,-1.1194,-1.1194,-1.1194,-1.1389,-1.1585,-1.1883,-1.2467,-1.3152,-1.3443,-1.3823,-1.4298,-1.4298,-1.4298,-1.4298,-1.4298,-1.4298,-1.4334,-1.4491,-1.4624,-1.4721,-1.4936,-1.5214,-1.5556,-1.5525,-1.5562,-1.5737,-1.5737,-1.6092,-1.6306,-1.6279,-1.6616,-1.7069,-1.7292,-1.7619,-1.7917,-1.8108,-1.8207,-1.8372,-1.8555,-1.8577,-1.865,-1.8833,-1.9145,-1.934,-1.9441,-1.9853,-2.0163,-2.0263,-2.0356,-2.0456,-2.0456,-2.0265,-2.0162,-2.0162,-2.0519,-2.0686,-2.0694,-2.0853,-2.0925,0.0,0.0,0.0,0.0,0.0,0.0,0.0,0.0,0.0,0.0,0.0,0.0,0.0,0.0,0.0,0.0,0.0,0.0,0.0,0.0,0.0,0.0,0.0,0.0,0.0,0.0,0.0,0.0,0.0,0.0,-0.193,-0.2304,-0.2776,-0.3433,-0.3533,-0.4479,-0.6262,-0.7056,-0.8635,-1.113,-1.1518,-1.1792,-1.1943,-1.1583,-1.108,-1.051,-1.0964,-1.1194,-1.1194,-1.1194,-1.1194,-1.1194,-1.1194,-1.1194,-1.1194,-1.1194,-1.1194,-1.1296,-1.1688,-1.2175,-1.2667,-1.3152,-1.363,-1.4106,-1.4298,-1.4298,-1.431,-1.4383,-1.4401,-1.4467,-1.4745,-1.4865,-1.5044,-1.5362,-1.5601,-1.5761,-1.6006,-1.5996,-1.5965,-1.6039,-1.6406,-1.666,-1.6626,-1.698,-1.7458,-1.783,-1.8053,-1.8354,-1.8547,-1.8547,-1.8642,-1.8884,-1.8913,-1.9008,-1.9354,-1.968,-1.9879,-2.0189,-2.0411,-2.0719,-2.0917,-2.0925,-2.0925,-2.0925,-2.0662,-2.0527,-2.0527,-2.0798,-2.0925,-2.0925,-2.0925,-2.0925,0.0,0.0,0.0,0.0,0.0,0.0,0.0,0.0,0.0,0.0,0.0,0.0,0.0,0.0,0.0,0.0,0.0,0.0,0.0,0.0,0.0,0.0,0.0,0.0,0.0,0.0,0.0,0.0,0.0,0.0,-0.2069,-0.2848,-0.3436,-0.3491,-0.3553,-0.4479,-0.6262,-0.8803,-1.0566,-1.1551,-1.1697,-1.1613,-1.1412,-1.1512,-1.1406,-1.1114,-1.1198,-1.1194,-1.1194,-1.1194,-1.1194,-1.1194,-1.1194,-1.1194,-1.1194,-1.1194,-1.1194,-1.1194,-1.1194,-1.1585,-1.2175,-1.2662,-1.3152,-1.3636,-1.4106,-1.4298,-1.4352,-1.4618,-1.4696,-1.4757,-1.5022,-1.527,-1.55,-1.5448,-1.589,-1.6234,-1.6295,-1.6259,-1.6333,-1.6607,-1.6687,-1.6894,-1.7483,-1.7742,-1.8154,-1.8776,-1.9027,-1.9228,-1.9228,-1.9228,-1.9228,-1.925,-1.925,-1.9354,-1.968,-1.9879,-2.0189,-2.0411,-2.0719,-2.0925,-2.0925,-2.0925,-2.0925,-2.0925,-2.0901,-2.0893,-2.0893,-2.0909,-2.0925,-2.0925,-2.0925,-2.0925,0.0,0.0,0.0,0.0,0.0,0.0,0.0,0.0,0.0,0.0,0.0,0.0,0.0,0.0,0.0,0.0,0.0,0.0,0.0,0.0,0.0,0.0,0.0,0.0,0.0,0.0,0.0,0.0,0.0,0.0,-0.2849,-0.322,-0.3799,-0.4582,-0.4772,-0.5924,-0.8254,-0.9805,-1.0911,-1.1564,-1.1267,-1.1182,-1.1399,-1.1304,-1.1202,-1.1194,-1.1194,-1.1194,-1.1194,-1.1194,-1.1194,-1.1194,-1.1194,-1.1194,-1.1194,-1.1194,-1.1194,-1.1194,-1.1194,-1.1785,-1.2565,-1.2764,-1.334,-1.401,-1.4202,-1.4298,-1.4358,-1.4636,-1.4714,-1.4817,-1.5246,-1.5536,-1.5792,-1.6202,-1.6562,-1.6883,-1.6881,-1.6834,-1.6807,-1.672,-1.7007,-1.7351,-1.7586,-1.7936,-1.8407,-1.8855,-1.9182,-1.9279,-1.9279,-1.9279,-1.9279,-1.9279,-1.948,-1.9576,-1.968,-2.0094,-2.0411,-2.0522,-2.0719,-2.0925,-2.0925,-2.0925,-2.0925,-2.0925,-2.0925,-2.0925,-2.0925,-2.0925,-2.0925,-2.0925,-2.0925,-2.0925,1.7693,0.0,0.0,0.0,0.0,0.0,0.0,0.0,0.0,0.0,0.0,0.0,0.0,0.0,0.0,0.0,0.0,0.0,0.0,0.0,0.0,0.0,0.0,0.0,0.0,0.0,0.0,0.0,0.0,0.0,-0.3439,-0.3476,-0.404,-0.5235,-0.6027,-0.7245,-0.9096,-1.0077,-1.0729,-1.1263,-1.097,-1.0954,-1.1394,-1.1231,-1.1169,-1.1298,-1.1227,-1.1194,-1.1194,-1.1194,-1.1194,-1.1194,-1.1194,-1.1194,-1.1194,-1.1194,-1.1194,-1.1194,-1.1194,-1.178,-1.2565,-1.2759,-1.334,-1.4112,-1.4298,-1.4358,-1.4491,-1.4769,-1.4914,-1.5077,-1.5517,-1.5946,-1.626,-1.6788,-1.7094,-1.7295,-1.7295,-1.7215,-1.7121,-1.7021,-1.7418,-1.7738,-1.7853,-1.8303,-1.8646,-1.8974,-1.9175,-1.9279,-1.9279,-1.9279,-1.9279,-1.9279,-1.9583,-1.9783,-1.9783,-2.0205,-2.0522,-2.0624,-2.0822,-2.0925,-2.0925,-2.0925,-2.0925,-2.0925,-2.0925,-2.0925,-2.0925,-2.0925,-2.0925,-2.0925,-2.0925,-2.0609,0.0,0.0,0.0,0.0,0.0,0.0,0.0,0.0,0.0,0.0,0.0,0.0,0.0,0.0,0.0,0.0,0.0,0.0,0.0,0.0,0.0,0.0,0.0,0.0,0.0,0.0,0.0,0.0,0.0,-0.2576,-0.3491,-0.3602,-0.4036,-0.512,-0.7275,-0.8479,-0.8479,-0.9634,-1.0369,-1.0573,-1.0604,-1.0915,-1.138,-1.1297,-1.1321,-1.1496,-1.1293,-1.1198,-1.1194,-1.1194,-1.1194,-1.1194,-1.1194,-1.1194,-1.1194,-1.1194,-1.1194,-1.1194,-1.1194,-1.1585,-1.2078,-1.2662,-1.3152,-1.3636,-1.4118,-1.4497,-1.4775,-1.504,-1.5306,-1.5559,-1.5819,-1.6311,-1.6842,-1.7173,-1.7378,-1.7582,-1.7582,-1.7361,-1.7248,-1.7528,-1.7799,-1.8122,-1.8318,-1.8646,-1.8974,-1.9279,-1.9279,-1.9279,-1.9279,-1.9279,-1.9279,-1.9272,-1.9576,-1.9776,-2.0086,-2.0403,-2.0617,-2.0925,-2.0925,-2.0925,-2.0925,-2.0925,-2.0925,-2.0925,-2.0925,-2.0925,-2.0925,-2.0925,-2.0925,-2.0925,-2.0925,-1.9983,1.5731,0.0,0.0,0.0,0.0,0.0,0.0,0.0,0.0,0.0,0.0,0.0,0.0,0.0,0.0,0.0,0.0,0.0,0.0,0.0,0.0,0.0,0.0,0.0,0.0,0.0,0.0,0.0,-0.2237,-0.3205,-0.3435,-0.5032,-0.5986,-0.6305,-0.8496,-0.9739,-0.9739,-1.0056,-1.0264,-1.0264,-1.0319,-1.0561,-1.0893,-1.1021,-1.1111,-1.1288,-1.1387,-1.134,-1.1194,-1.1194,-1.1194,-1.1194,-1.1194,-1.1194,-1.1194,-1.1194,-1.1194,-1.1194,-1.1194,-1.1785,-1.2565,-1.2764,-1.334,-1.4148,-1.4442,-1.4654,-1.4811,-1.5264,-1.5445,-1.5664,-1.6343,-1.6624,-1.6836,-1.7371,-1.7589,-1.7582,-1.7582,-1.7522,-1.7482,-1.7569,-1.7799,-1.8122,-1.8318,-1.8646,-1.8974,-1.9279,-1.9279,-1.9279,-1.9279,-1.9279,-1.9376,-1.9583,-1.9783,-2.0086,-2.0403,-2.0617,-2.0822,-2.0925,-2.0925,-2.0925,-2.0925,-2.0925,-2.0925,-2.0925,-2.0925,-2.0925,-2.0925,-2.0925,-2.0925,-2.0925,-2.0925,-1.9983,1.5281,1.5079,0.0,0.0,0.0,0.0,0.0,0.0,0.0,0.0,0.0,0.0,0.0,0.0,0.0,0.0,0.0,0.0,0.0,0.0,0.0,0.0,0.0,0.0,0.0,0.0,0.0,0.0,-0.2451,-0.3413,-0.3413,-0.5065,-0.619,-0.6711,-0.8419,-0.9524,-0.9941,-0.9941,-1.0039,-1.0145,-1.0145,-1.0332,-1.0712,-1.0839,-1.1015,-1.1258,-1.14,-1.1444,-1.1331,-1.1331,-1.1279,-1.1194,-1.1194,-1.1194,-1.1194,-1.1194,-1.1194,-1.1194,-1.1194,-1.178,-1.2467,-1.2764,-1.334,-1.4063,-1.4532,-1.4793,-1.4968,-1.5384,-1.5578,-1.5798,-1.648,-1.673,-1.6836,-1.7477,-1.7582,-1.7582,-1.7582,-1.7582,-1.7582,-1.7799,-1.801,-1.822,-1.8541,-1.8862,-1.9071,-1.9279,-1.9279,-1.9279,-1.9279,-1.9279,-1.9376,-1.968,-1.9983,-2.0189,-2.0522,-2.0719,-2.0925,-2.0925,-2.0925,-2.0925,-2.0925,-2.0925,-2.0925,-2.0925,-2.0925,-2.0925,-2.0925,-2.0925,-2.0925,-2.0925,-2.0925,-1.9983,1.5638,1.5476,0.0,0.0,0.0,0.0,1.6255,1.6209,0.0,0.0,0.0,0.0,0.0,0.0,0.0,0.0,0.0,0.0,0.0,0.0,0.0,0.0,0.0,0.0,0.0,0.0,-0.0953,-0.1058,-0.2436,-0.3392,-0.3392,-0.4373,-0.5355,-0.6481,-0.7488,-0.8524,-0.9628,-0.9628,-0.9727,-0.992,-0.992,-1.0211,-1.0672,-1.0712,-1.1034,-1.1362,-1.1494,-1.152,-1.1515,-1.1491,-1.1368,-1.1194,-1.1194,-1.1194,-1.1194,-1.1194,-1.1194,-1.1194,-1.1194,-1.1585,-1.2175,-1.2662,-1.3152,-1.3688,-1.4475,-1.492,-1.5167,-1.5457,-1.571,-1.6099,-1.6518,-1.673,-1.6948,-1.7477,-1.7582,-1.7582,-1.7582,-1.7582,-1.7694,-1.8016,-1.822,-1.8534,-1.8869,-1.9071,-1.9279,-1.9279,-1.9279,-1.9279,-1.9279,-1.9279,-1.9376,-1.968,-1.9983,-2.0189,-2.0514,-2.0719,-2.0925,-2.0925,-2.0925,-2.0925,-2.0925,-2.0925,-2.0925,-2.0925,-2.0925,-2.0925,-2.0925,-2.0925,-2.0925,-2.0925,-2.0822,-1.9879,1.6699,1.6081,1.5627,1.5149,0.0,0.0,0.0,1.4198,0.0,0.0,0.0,0.0,0.0,0.0,0.0,0.0,0.0,0.0,0.0,0.0,0.0,0.0,0.0,0.0,0.0,0.0,-0.1121,-0.1733,-0.2653,-0.3266,-0.3266,-0.4264,-0.5358,-0.6358,-0.7437,-0.8524,-0.9628,-0.9628,-0.9628,-0.9727,-0.9727,-0.9941,-1.0474,-1.0597,-1.0997,-1.147,-1.1534,-1.152,-1.1505,-1.1331,-1.1231,-1.1194,-1.1194,-1.1194,-1.1194,-1.1194,-1.1194,-1.1194,-1.1194,-1.178,-1.2662,-1.2764,-1.3437,-1.4292,-1.4883,-1.5071,-1.5203,-1.568,-1.6068,-1.6324,-1.663,-1.6955,-1.7173,-1.7477,-1.7582,-1.7582,-1.7582,-1.7799,-1.801,-1.8318,-1.8318,-1.8534,-1.8869,-1.9071,-1.9279,-1.9279,-1.9279,-1.9279,-1.9279,-1.9279,-1.948,-1.9983,-2.0086,-2.0292,-2.0814,-2.0822,-2.0925,-2.0925,-2.0925,-2.0925,-2.0925,-2.0925,-2.0925,-2.0925,-2.0925,-2.0925,-2.0925,-2.0925,-2.0925,-2.0925,-2.0197,-1.9361,0.0,1.6422,1.5859,1.5351,0.0,0.0,0.0,0.0,0.0,0.0,0.0,0.0,0.0,0.0,0.0,0.0,0.0,0.0,0.0,0.0,0.0,0.0,0.0,0.0,0.0,0.0,-0.131,-0.2522,-0.2927,-0.323,-0.323,-0.3732,-0.4531,-0.5529,-0.6625,-0.7723,-0.8825,-0.9327,-0.9628,-0.9628,-0.9628,-0.9826,-1.022,-1.0419,-1.0815,-1.1318,-1.1414,-1.152,-1.151,-1.1401,-1.1293,-1.1194,-1.1194,-1.1194,-1.1194,-1.1194,-1.1194,-1.1194,-1.1487,-1.198,-1.2467,-1.2958,-1.3539,-1.4013,-1.4843,-1.5288,-1.5553,-1.6031,-1.6217,-1.643,-1.6849,-1.7067,-1.7279,-1.7582,-1.7582,-1.7582,-1.7582,-1.7799,-1.8122,-1.8318,-1.8534,-1.8757,-1.9078,-1.9175,-1.9279,-1.9279,-1.9279,-1.9279,-1.9279,-1.9376,-1.968,-2.0078,-2.0189,-2.0506,-2.0917,-2.0925,-2.0925,-2.0925,-2.0925,-2.0925,-2.0925,-2.0925,-2.0925,-2.0925,-2.0925,-2.0925,-2.0925,-2.0506,-2.03,-2.03,-1.9887,-1.9049,0.0,0.0,0.0,0.0,0.0,1.4238,0.0,0.0,0.0,1.0545,0.0,0.0,0.0,0.0,0.0,0.0,0.0,0.0,0.0,0.0,0.0,0.0,0.0,0.0,0.0,0.0,-0.1801,-0.3127,-0.3209,-0.3206,-0.3229,-0.323,-0.3732,-0.4734,-0.5629,-0.6722,-0.8021,-0.8623,-0.9126,-0.9327,-0.9327,-0.9422,-0.9817,-1.0216,-1.0717,-1.1212,-1.1377,-1.1477,-1.1515,-1.1472,-1.135,-1.1194,-1.1194,-1.1194,-1.1194,-1.1292,-1.1389,-1.1389,-1.198,-1.2175,-1.2467,-1.3249,-1.3608,-1.3964,-1.4933,-1.5517,-1.5998,-1.6217,-1.643,-1.6537,-1.7067,-1.7279,-1.7384,-1.7589,-1.7582,-1.7582,-1.7687,-1.7905,-1.8122,-1.8429,-1.8757,-1.9078,-1.9279,-1.9279,-1.9279,-1.9279,-1.9279,-1.9279,-1.9279,-1.9576,-1.9776,-2.0078,-2.03,-2.0624,-2.0925,-2.0925,-2.0925,-2.0925,-2.0925,-2.0925,-2.0925,-2.0925,-2.0925,-2.0925,-2.0925,-2.0814,-2.0719,-1.999,-1.968,-1.968,-1.9361,-1.8513,0.0,0.0,0.0,0.0,1.5049,0.0,0.0,0.0,1.1527,0.9669,0.0,0.0,0.0,0.0,0.0,0.0,0.0,0.0,0.0,0.0,0.0,0.0,0.0,0.0,0.0,0.0,0.0,-0.3222,-0.3131,-0.3117,-0.3225,-0.323,-0.3732,-0.4734,-0.4935,-0.5932,-0.8021,-0.722,-0.722,-0.8223,-0.8223,-0.8418,-0.9004,-0.9912,-1.0821,-1.1409,-1.1316,-1.134,-1.1505,-1.1312,-1.1217,-1.1194,-1.1194,-1.1194,-1.1296,-1.1688,-1.1878,-1.198,-1.2565,-1.2953,-1.3346,-1.3443,-1.4138,-1.4969,-1.5366,-1.5872,-1.6217,-1.6324,-1.6643,-1.7073,-1.7179,-1.7378,-1.7582,-1.7582,-1.7582,-1.7687,-1.7905,-1.822,-1.8429,-1.8764,-1.9071,-1.9279,-1.9272,-1.9279,-1.9279,-1.9279,-1.9279,-1.9279,-1.9279,-1.9576,-1.9776,-2.0078,-2.03,-2.0624,-2.0925,-2.0925,-2.0925,-2.0925,-2.0925,-2.0925,-2.0925,-2.0925,-2.0925,-2.0925,-2.0925,-2.0506,-1.9887,-1.9783,-1.968,-1.968,-1.8199,-1.7358,0.0,0.0,0.0,0.0,0.0,0.0,0.0,0.0,1.006,0.0,0.0,0.0,0.0,0.0,0.0,0.0,0.0,0.0,0.0,0.0,0.0,0.0,0.0,0.0,0.0,0.0,0.0,0.0,0.0,-0.3087,-0.3173,-0.3211,-0.343,-0.3833,-0.4433,-0.5233,-0.6129,-0.6326,-0.6623,-0.712,-0.7819,-0.8414,-0.8806,-1.0105,-1.0852,-1.1326,-1.1236,-1.1246,-1.1326,-1.1231,-1.1194,-1.1194,-1.1194,-1.1194,-1.1292,-1.1785,-1.198,-1.2078,-1.2958,-1.3346,-1.3562,-1.4004,-1.4701,-1.5354,-1.5677,-1.6002,-1.6324,-1.6749,-1.6967,-1.7279,-1.7378,-1.7483,-1.7582,-1.7582,-1.7694,-1.7905,-1.8016,-1.8331,-1.8757,-1.8869,-1.9071,-1.9279,-1.9279,-1.9279,-1.9279,-1.9279,-1.9279,-1.9376,-1.9472,-1.9783,-1.9983,-2.03,-2.0617,-2.0822,-2.0917,-2.0925,-2.0925,-2.0925,-2.0925,-2.0925,-2.0925,-2.0925,-2.0925,-2.0925,-2.0403,-1.999,-1.968,-1.8729,-1.8199,-1.8199,-1.7569,-1.6935,2.049,0.0,0.0,0.0,0.0,0.0,0.0,0.0,0.0,0.0,0.0,0.0,0.0,0.0,0.0,0.0,0.0,0.0,0.0,0.0,0.0,0.0,0.0,0.0,0.0,0.0,0.0,0.0,0.0,0.0,-0.3134,-0.3181,-0.3213,-0.323,-0.3934,-0.4533,-0.4834,-0.5629,-0.6224,-0.652,-0.7915,-0.8609,-0.8905,-1.0203,-1.0998,-1.1194,-1.1194,-1.1194,-1.1194,-1.1194,-1.1292,-1.1394,-1.1394,-1.1526,-1.1771,-1.217,-1.2366,-1.266,-1.3545,-1.3837,-1.398,-1.464,-1.5131,-1.5615,-1.5909,-1.6274,-1.6643,-1.7073,-1.7279,-1.7378,-1.7589,-1.7582,-1.7582,-1.7582,-1.7799,-1.8016,-1.8122,-1.8548,-1.8869,-1.8974,-1.9175,-1.9279,-1.9279,-1.9279,-1.9279,-1.9279,-1.9279,-1.9376,-1.968,-1.9983,-2.0189,-2.0522,-2.0719,-2.0925,-2.0925,-2.0925,-2.0925,-2.0925,-2.0925,-2.0925,-2.0925,-2.0712,-2.0609,-2.0609,-1.9783,-1.9257,-1.9042,-1.7779,-1.7041,-1.6836,-1.6836,-1.6518,0.0,0.0,0.0,1.5177,0.0,0.0,0.0,0.0,0.8958,0.0,0.0,0.0,0.0,0.0,0.0,0.0,0.0,0.0,0.0,0.0,0.0,0.0,0.0,0.0,0.0,0.0,0.0,0.0,0.0,0.0,-0.3127,-0.3142,-0.3169,-0.3229,-0.323,-0.3732,-0.4834,-0.5131,-0.5724,-0.6816,-0.811,-0.8901,-0.9197,-1.0301,-1.0998,-1.1194,-1.1194,-1.1194,-1.1194,-1.1194,-1.1487,-1.198,-1.198,-1.2402,-1.3098,-1.3198,-1.3402,-1.3899,-1.4505,-1.4702,-1.4745,-1.501,-1.5487,-1.5971,-1.6237,-1.6743,-1.7179,-1.7179,-1.7384,-1.7582,-1.7582,-1.7582,-1.7582,-1.7582,-1.7799,-1.8122,-1.8318,-1.8646,-1.8974,-1.9279,-1.9272,-1.9279,-1.9279,-1.9279,-1.9279,-1.9279,-1.9279,-1.9376,-1.968,-1.9983,-2.0189,-2.0522,-2.0719,-2.0925,-2.0925,-2.0925,-2.0925,-2.0925,-2.0925,-2.0925,-2.0925,-2.0197,-1.9783,-1.9783,-1.884,-1.8101,-1.7252,-1.7252,-1.673,-1.5885,-1.5885,-1.5891,0.0,0.0,2.0051,1.6022,0.0,0.0,0.0,0.0,0.0,0.0,0.0,0.0,0.0,0.0,0.0,0.0,0.0,0.0,0.0,0.0,0.0,0.0,0.0,0.0,0.0,0.0,0.0,0.0,0.0,0.0,0.0,-0.4059,-0.4029,-0.3662,-0.4007,-0.4533,-0.5031,-0.5529,-0.6226,-0.712,-0.8407,-0.9099,-0.9197,-1.0498,-1.1096,-1.1194,-1.1194,-1.1194,-1.1194,-1.1194,-1.1487,-1.198,-1.198,-1.2211,-1.2469,-1.3171,-1.3672,-1.4257,-1.4773,-1.5089,-1.5252,-1.5548,-1.5866,-1.6312,-1.6723,-1.7067,-1.7279,-1.7378,-1.7477,-1.7582,-1.7582,-1.7582,-1.7687,-1.7799,-1.8115,-1.8325,-1.8646,-1.8966,-1.9175,-1.9279,-1.9279,-1.9279,-1.9279,-1.9279,-1.9279,-1.9279,-1.9279,-1.948,-1.9879,-2.0086,-2.0086,-1.999,-2.0506,-2.0712,-2.0197,-2.0609,-2.0925,-2.0925,-2.0925,-2.0609,-2.0094,-2.0403,-1.999,-1.884,-1.8527,-1.7996,-1.7252,-1.6624,-1.6205,-1.5891,-1.5891,-1.5891,2.3001,2.2337,0.0,1.734,1.6382,0.0,1.1174,0.0,0.0,0.0,0.0,0.0,0.0,0.0,0.0,0.0,0.0,0.0,0.0,0.0,0.0,0.0,0.0,0.0,0.0,0.0,-0.3112,-0.3597,0.0,0.0,0.0,0.0,-0.4473,-0.421,-0.4589,-0.5033,-0.5529,-0.6329,-0.712,-0.7912,-0.93,-0.9895,-0.9895,-1.0797,-1.1194,-1.1194,-1.1194,-1.1194,-1.1194,-1.1194,-1.1585,-1.2273,-1.2273,-1.2607,-1.3073,-1.3571,-1.4165,-1.483,-1.5143,-1.536,-1.5499,-1.5817,-1.6101,-1.653,-1.7073,-1.7279,-1.7378,-1.7582,-1.7582,-1.7582,-1.7582,-1.7687,-1.7799,-1.7911,-1.8331,-1.8646,-1.8869,-1.9071,-1.9279,-1.9279,-1.9279,-1.9279,-1.9279,-1.9279,-1.9279,-1.9279,-1.9376,-1.9576,-2.0086,-2.0189,-2.0197,-2.0094,-2.0609,-2.0712,-2.0197,-2.0609,-2.0814,-2.0506,-2.0506,-2.0094,-1.9257,-1.9457,-1.9034,-1.7996,-1.7996,-1.7575,-1.673,-1.6518,-1.6205,-1.5891,-1.5891,-1.5891]},{"header":{"parameterUnit":"m.s-1","parameterCategory":1,"la1":30.6,"la2":29.2853,"lo1":-89.7004,"lo2":-87.6739,"dy":0.0162,"dx":0.0183,"nx":112,"ny":82,"refTime":"2025-02-23T18:00:00:Z","depth":0,"parameterNumber":3,"parameterNumberName":"V-component_of_WINDS"},"data":[0.0,0.0,0.0,0.0,0.0,0.0,0.0,0.0,0.0,0.0,0.0,0.0,0.0,0.0,0.0,0.0,0.0,0.0,0.0,0.0,0.0,0.0,0.0,0.0,0.0,0.0,0.0,0.0,0.0,0.0,0.0,0.0,0.0,0.0,0.0,0.0,0.0,0.0,0.0,0.0,0.0,0.0,0.0,0.0,0.0,0.0,0.0,0.0,0.0,0.0,0.0,0.0,0.0,0.0,0.0,0.0,0.0,0.0,0.0,0.0,0.0,0.0,0.0,0.0,0.0,0.0,0.0,0.0,0.0,0.0,0.0,0.0,0.0,0.0,0.0,0.0,0.0,0.0,0.0,0.0,0.0,0.0,0.0,0.0,0.0,0.0,0.0,0.0,0.0,0.0,0.0,-3.7214,-3.9277,-4.0226,-3.9495,-3.9187,-3.7666,-3.4412,0.0,0.0,0.0,0.0,0.0,0.0,0.0,0.0,0.0,0.0,0.0,0.0,0.0,0.0,0.0,0.0,0.0,0.0,0.0,0.0,0.0,0.0,0.0,0.0,0.0,0.0,0.0,0.0,0.0,0.0,0.0,0.0,0.0,0.0,0.0,0.0,0.0,0.0,0.0,0.0,0.0,0.0,0.0,0.0,0.0,0.0,0.0,0.0,0.0,0.0,0.0,0.0,0.0,0.0,0.0,0.0,0.0,0.0,0.0,0.0,0.0,0.0,0.0,0.0,0.0,0.0,0.0,0.0,0.0,0.0,0.0,0.0,0.0,0.0,0.0,0.0,0.0,0.0,0.0,0.0,0.0,0.0,0.0,0.0,0.0,0.0,0.0,0.0,0.0,0.0,0.0,0.0,0.0,0.0,0.0,0.0,0.0,0.0,0.0,0.0,0.0,0.0,0.0,0.0,-3.5858,-3.8877,-4.0076,-4.063,-4.0475,-3.9223,-3.7517,-3.5315,0.0,0.0,0.0,0.0,0.0,0.0,0.0,0.0,0.0,0.0,0.0,0.0,0.0,0.0,0.0,0.0,0.0,0.0,0.0,0.0,0.0,0.0,0.0,0.0,0.0,0.0,0.0,0.0,0.0,0.0,0.0,0.0,0.0,0.0,0.0,0.0,0.0,0.0,0.0,0.0,0.0,0.0,0.0,0.0,0.0,0.0,0.0,0.0,0.0,0.0,0.0,0.0,0.0,0.0,0.0,0.0,0.0,0.0,0.0,0.0,0.0,0.0,0.0,0.0,0.0,0.0,0.0,0.0,0.0,0.0,0.0,0.0,0.0,0.0,0.0,0.0,0.0,0.0,0.0,0.0,0.0,0.0,0.0,0.0,0.0,0.0,0.0,0.0,0.0,0.0,0.0,0.0,0.0,0.0,0.0,0.0,0.0,0.0,0.0,0.0,0.0,0.0,0.0,-3.5521,-3.7131,-4.0108,-4.0645,-4.0818,-4.0818,-3.9267,-3.7462,-3.5528,-3.4217,0.0,0.0,0.0,0.0,0.0,0.0,0.0,0.0,0.0,0.0,0.0,0.0,0.0,0.0,0.0,0.0,0.0,0.0,0.0,0.0,0.0,0.0,0.0,0.0,0.0,0.0,0.0,0.0,0.0,0.0,0.0,0.0,0.0,0.0,0.0,0.0,0.0,0.0,0.0,0.0,0.0,0.0,0.0,0.0,0.0,0.0,0.0,0.0,0.0,0.0,0.0,0.0,0.0,0.0,0.0,0.0,0.0,0.0,0.0,0.0,0.0,0.0,0.0,0.0,0.0,0.0,0.0,0.0,0.0,0.0,0.0,0.0,0.0,0.0,0.0,0.0,0.0,0.0,0.0,0.0,0.0,0.0,0.0,0.0,0.0,0.0,0.0,0.0,0.0,0.0,0.0,0.0,0.0,0.0,0.0,0.0,0.0,0.0,0.0,0.0,0.0,0.0,-3.7384,-3.8602,-4.0851,-4.1023,-4.0943,-4.0943,-3.9166,-3.7308,-3.556,-3.3716,0.0,0.0,0.0,0.0,0.0,0.0,0.0,0.0,0.0,0.0,0.0,0.0,0.0,0.0,0.0,0.0,0.0,0.0,0.0,0.0,0.0,0.0,0.0,0.0,0.0,0.0,0.0,0.0,0.0,0.0,0.0,0.0,0.0,0.0,0.0,0.0,0.0,0.0,0.0,0.0,0.0,0.0,0.0,0.0,0.0,0.0,0.0,0.0,0.0,0.0,0.0,0.0,0.0,0.0,0.0,0.0,0.0,0.0,0.0,0.0,0.0,0.0,0.0,0.0,0.0,0.0,0.0,0.0,0.0,0.0,0.0,0.0,0.0,0.0,0.0,0.0,0.0,0.0,0.0,0.0,0.0,0.0,0.0,0.0,0.0,0.0,0.0,0.0,0.0,0.0,0.0,0.0,0.0,0.0,0.0,0.0,0.0,0.0,0.0,0.0,0.0,0.0,-3.8072,-3.9994,-4.0994,-4.1085,-4.1085,-4.1085,-3.8747,-3.6779,-3.5667,-3.3198,0.0,0.0,0.0,0.0,0.0,0.0,0.0,0.0,0.0,0.0,0.0,0.0,0.0,0.0,0.0,0.0,0.0,0.0,0.0,0.0,0.0,0.0,0.0,0.0,0.0,0.0,0.0,0.0,0.0,0.0,0.0,0.0,0.0,0.0,0.0,0.0,0.0,0.0,0.0,0.0,0.0,0.0,0.0,0.0,0.0,0.0,0.0,0.0,0.0,0.0,0.0,0.0,0.0,0.0,0.0,0.0,0.0,0.0,0.0,0.0,0.0,0.0,0.0,0.0,0.0,0.0,0.0,0.0,0.0,0.0,0.0,0.0,0.0,0.0,0.0,0.0,0.0,0.0,0.0,0.0,0.0,0.0,0.0,0.0,0.0,0.0,0.0,0.0,0.0,0.0,0.0,0.0,0.0,0.0,0.0,0.0,0.0,0.0,0.0,0.0,0.0,0.0,-3.7617,-3.9434,0.0,-4.111,-4.0877,-4.0351,-3.8889,-3.7085,-3.4932,0.0,0.0,0.0,0.0,0.0,0.0,0.0,0.0,0.0,0.0,0.0,0.0,0.0,0.0,0.0,0.0,0.0,0.0,0.0,0.0,0.0,0.0,0.0,0.0,0.0,0.0,0.0,0.0,0.0,0.0,0.0,0.0,0.0,0.0,0.0,0.0,0.0,0.0,0.0,0.0,0.0,0.0,0.0,0.0,0.0,0.0,0.0,0.0,0.0,0.0,0.0,0.0,0.0,0.0,0.0,0.0,0.0,0.0,0.0,0.0,0.0,0.0,0.0,0.0,0.0,0.0,0.0,0.0,0.0,0.0,0.0,0.0,0.0,0.0,0.0,0.0,0.0,0.0,0.0,0.0,0.0,0.0,0.0,0.0,0.0,0.0,0.0,0.0,0.0,0.0,0.0,0.0,0.0,0.0,0.0,0.0,0.0,0.0,0.0,0.0,0.0,0.0,-3.5638,-3.7797,-3.968,0.0,-4.111,-4.076,-3.9864,-3.85,-3.6708,-3.4408,0.0,0.0,0.0,0.0,0.0,0.0,0.0,0.0,0.0,0.0,0.0,0.0,0.0,0.0,0.0,0.0,0.0,0.0,0.0,0.0,0.0,0.0,0.0,0.0,0.0,0.0,0.0,0.0,0.0,0.0,0.0,0.0,0.0,0.0,0.0,0.0,0.0,0.0,0.0,0.0,0.0,0.0,0.0,0.0,0.0,0.0,0.0,0.0,0.0,0.0,0.0,0.0,0.0,0.0,0.0,0.0,0.0,0.0,0.0,0.0,0.0,0.0,0.0,0.0,0.0,0.0,0.0,0.0,0.0,0.0,0.0,0.0,0.0,0.0,0.0,0.0,0.0,0.0,0.0,0.0,0.0,0.0,0.0,0.0,0.0,0.0,0.0,0.0,0.0,0.0,0.0,0.0,0.0,0.0,0.0,0.0,0.0,0.0,0.0,0.0,0.0,0.0,-3.5631,-3.8821,-4.111,-4.111,-4.1091,-4.074,-3.9864,-3.7409,-3.5417,0.0,0.0,0.0,0.0,0.0,0.0,0.0,0.0,0.0,0.0,0.0,0.0,0.0,0.0,0.0,0.0,0.0,0.0,0.0,0.0,0.0,0.0,0.0,0.0,0.0,0.0,0.0,0.0,0.0,0.0,0.0,0.0,0.0,0.0,0.0,0.0,0.0,0.0,0.0,0.0,0.0,0.0,0.0,0.0,0.0,0.0,0.0,0.0,0.0,0.0,0.0,0.0,0.0,0.0,0.0,0.0,0.0,0.0,0.0,0.0,0.0,0.0,0.0,0.0,0.0,0.0,0.0,0.0,0.0,0.0,0.0,0.0,0.0,0.0,0.0,0.0,0.0,0.0,0.0,0.0,0.0,0.0,0.0,0.0,0.0,0.0,0.0,0.0,0.0,0.0,0.0,0.0,0.0,0.0,0.0,0.0,0.0,0.0,0.0,0.0,0.0,0.0,0.0,-3.5682,-3.8882,-4.111,-4.111,-4.0545,-3.9812,-3.8896,-3.7027,-3.4902,-3.2524,0.0,0.0,0.0,0.0,0.0,0.0,0.0,0.0,0.0,0.0,0.0,0.0,0.0,0.0,0.0,0.0,0.0,0.0,0.0,0.0,0.0,0.0,0.0,0.0,0.0,0.0,0.0,0.0,0.0,0.0,0.0,0.0,0.0,0.0,0.0,0.0,0.0,0.0,0.0,0.0,0.0,0.0,0.0,0.0,0.0,0.0,0.0,0.0,0.0,0.0,0.0,0.0,0.0,0.0,0.0,0.0,0.0,0.0,0.0,0.0,0.0,0.0,0.0,0.0,0.0,0.0,0.0,0.0,0.0,0.0,0.0,0.0,0.0,0.0,0.0,0.0,0.0,0.0,0.0,0.0,0.0,0.0,0.0,0.0,0.0,0.0,0.0,0.0,0.0,0.0,0.0,0.0,0.0,0.0,0.0,0.0,0.0,0.0,0.0,0.0,0.0,0.0,-3.5616,-3.8882,-4.111,-4.111,-4.0299,-3.939,-3.8474,-3.6844,-3.4811,-3.2323,0.0,0.0,0.0,0.0,0.0,0.0,0.0,0.0,0.0,0.0,0.0,0.0,0.0,0.0,0.0,0.0,0.0,0.0,0.0,0.0,0.0,0.0,0.0,0.0,0.0,0.0,0.0,0.0,0.0,0.0,0.0,0.0,0.0,0.0,0.0,0.0,0.0,0.0,0.0,0.0,0.0,0.0,0.0,0.0,0.0,0.0,0.0,0.0,0.0,0.0,0.0,0.0,0.0,0.0,0.0,0.0,0.0,0.0,0.0,0.0,0.0,0.0,0.0,0.0,0.0,0.0,0.0,0.0,0.0,0.0,0.0,0.0,0.0,0.0,0.0,0.0,0.0,0.0,0.0,0.0,0.0,0.0,0.0,0.0,0.0,0.0,0.0,0.0,0.0,0.0,0.0,0.0,0.0,0.0,0.0,0.0,0.0,0.0,0.0,0.0,0.0,0.0,-3.5514,-3.8762,-4.0968,-4.0968,-4.0116,-3.9217,-3.8335,-3.6653,-3.4855,-3.2984,0.0,0.0,0.0,0.0,0.0,0.0,0.0,0.0,0.0,0.0,0.0,0.0,0.0,0.0,0.0,0.0,0.0,0.0,0.0,0.0,0.0,0.0,0.0,0.0,0.0,0.0,0.0,0.0,0.0,0.0,0.0,0.0,0.0,0.0,0.0,0.0,0.0,0.0,0.0,0.0,0.0,0.0,0.0,0.0,0.0,0.0,0.0,0.0,0.0,0.0,0.0,0.0,0.0,0.0,0.0,0.0,0.0,0.0,0.0,0.0,-3.1659,0.0,0.0,0.0,0.0,0.0,0.0,0.0,0.0,0.0,0.0,0.0,0.0,0.0,0.0,0.0,0.0,0.0,0.0,0.0,0.0,0.0,0.0,0.0,0.0,0.0,0.0,0.0,0.0,0.0,0.0,0.0,0.0,0.0,0.0,0.0,0.0,0.0,0.0,0.0,0.0,0.0,-3.5566,-3.8237,-3.9999,-3.9999,-3.9101,-3.8141,-3.7218,-3.5492,-3.3711,-3.193,0.0,0.0,0.0,0.0,0.0,0.0,0.0,0.0,0.0,0.0,0.0,0.0,0.0,0.0,0.0,0.0,0.0,0.0,0.0,0.0,0.0,0.0,0.0,0.0,0.0,0.0,0.0,0.0,0.0,0.0,0.0,0.0,0.0,0.0,0.0,0.0,0.0,0.0,0.0,0.0,0.0,0.0,0.0,0.0,0.0,0.0,0.0,0.0,0.0,0.0,0.0,0.0,0.0,0.0,0.0,0.0,0.0,0.0,0.0,0.0,0.0,-3.2566,0.0,0.0,0.0,0.0,0.0,0.0,0.0,0.0,0.0,0.0,0.0,0.0,0.0,0.0,0.0,0.0,0.0,0.0,0.0,0.0,0.0,0.0,0.0,0.0,0.0,0.0,0.0,0.0,0.0,0.0,0.0,0.0,0.0,0.0,0.0,0.0,0.0,0.0,0.0,0.0,-3.5538,-3.8066,-3.9684,-3.9668,-3.8743,-3.7773,-3.6868,-3.5495,-3.4098,-3.2785,-3.1101,0.0,0.0,0.0,0.0,0.0,0.0,0.0,0.0,0.0,0.0,0.0,0.0,0.0,0.0,0.0,0.0,0.0,0.0,0.0,0.0,0.0,0.0,0.0,0.0,0.0,0.0,0.0,0.0,0.0,0.0,0.0,0.0,0.0,0.0,0.0,0.0,0.0,0.0,0.0,0.0,0.0,0.0,0.0,0.0,0.0,0.0,0.0,0.0,0.0,0.0,0.0,0.0,0.0,-3.4922,-3.512,-3.5224,-3.5267,-3.5693,-3.641,-3.5698,-3.5177,-3.4714,0.0,0.0,0.0,0.0,0.0,0.0,0.0,0.0,0.0,0.0,0.0,0.0,0.0,0.0,0.0,0.0,0.0,0.0,0.0,0.0,0.0,0.0,0.0,0.0,0.0,-3.647,-3.668,0.0,0.0,0.0,0.0,0.0,0.0,0.0,0.0,0.0,0.0,0.0,0.0,-3.5715,-3.7858,-3.9235,-3.9335,-3.8423,-3.7463,-3.6595,-3.5724,-3.4871,-3.4025,-3.2497,-3.1215,0.0,0.0,0.0,0.0,0.0,0.0,0.0,0.0,0.0,0.0,0.0,0.0,0.0,0.0,0.0,0.0,0.0,0.0,0.0,0.0,0.0,0.0,0.0,0.0,0.0,0.0,0.0,0.0,0.0,0.0,0.0,0.0,-3.0162,-2.9729,0.0,0.0,0.0,0.0,0.0,0.0,0.0,0.0,0.0,0.0,0.0,0.0,0.0,0.0,-3.3568,-3.5399,-3.6345,-3.6389,-3.7782,-3.8478,-3.8577,-3.8693,-3.8845,-3.9008,-3.8952,0.0,-3.5653,-3.4658,0.0,0.0,0.0,0.0,0.0,0.0,0.0,0.0,0.0,0.0,0.0,0.0,0.0,0.0,0.0,0.0,0.0,0.0,0.0,0.0,0.0,0.0,-3.8007,-3.8007,-3.817,-3.8003,0.0,-3.5461,-3.376,-3.1135,-3.0721,0.0,0.0,0.0,0.0,0.0,0.0,0.0,-3.6596,-3.7075,-3.7464,-3.8218,-3.7286,-3.6277,-3.54,-3.5092,-3.4639,-3.3865,-3.2953,-3.2095,-3.1257,-2.9446,0.0,0.0,0.0,0.0,0.0,0.0,0.0,0.0,0.0,0.0,0.0,0.0,0.0,0.0,0.0,0.0,0.0,0.0,0.0,0.0,0.0,0.0,0.0,0.0,0.0,0.0,0.0,0.0,0.0,-3.0451,-3.1568,-3.1672,-3.1394,-3.0903,0.0,0.0,0.0,0.0,0.0,0.0,0.0,0.0,0.0,-3.3555,-3.4321,-3.5059,-3.5827,-3.7294,-3.8069,-3.8096,-3.8821,-3.9229,-3.9354,-3.9425,-3.9495,-3.9571,-3.9596,-3.9,-3.7868,-3.6535,-3.5522,-3.4714,0.0,0.0,0.0,0.0,-3.4396,-3.4472,-3.6186,-3.6535,0.0,0.0,0.0,0.0,0.0,0.0,0.0,0.0,0.0,0.0,0.0,0.0,0.0,-3.9107,-3.9598,-3.9726,-3.8858,-3.8088,-3.6654,0.0,-3.2947,-3.2382,-3.0687,0.0,0.0,0.0,0.0,0.0,-3.6114,-3.7003,-3.7456,-3.728,-3.6725,-3.6056,-3.5181,-3.4982,-3.4756,-3.4432,-3.3653,-3.3045,-3.2721,-3.0614,-2.9289,0.0,0.0,0.0,0.0,0.0,0.0,0.0,0.0,0.0,0.0,0.0,0.0,0.0,0.0,0.0,0.0,0.0,0.0,0.0,0.0,0.0,0.0,0.0,0.0,0.0,0.0,0.0,0.0,-3.1982,-3.3066,-3.3223,-3.3157,-3.2686,0.0,0.0,0.0,0.0,0.0,0.0,-3.3231,-3.3266,-3.3776,-3.4934,-3.589,-3.6789,-3.7709,-3.8655,-3.9156,-3.921,-3.921,-3.9328,-3.9495,-3.9495,-3.9546,-3.9602,-3.9602,-3.9602,-3.9508,-3.8,-3.7042,-3.6423,-3.5559,-3.524,-3.534,-3.6234,-3.6255,-3.6178,-3.8383,-3.8816,-3.844,-3.8672,0.0,-3.7197,-3.5899,0.0,0.0,0.0,0.0,-3.6484,-3.7589,-3.8356,-3.9041,-3.9934,-4.0623,-4.092,-4.0271,-3.9967,-3.8909,0.0,-3.5265,-3.472,-3.3025,0.0,0.0,0.0,0.0,-3.6172,-3.6499,-3.7379,-3.768,-3.6949,-3.6549,-3.5986,-3.5129,-3.4945,-3.4908,-3.4908,-3.4339,-3.4017,-3.4017,-3.2046,-3.0739,-3.0322,0.0,0.0,0.0,0.0,0.0,0.0,0.0,0.0,0.0,0.0,0.0,0.0,0.0,0.0,0.0,0.0,0.0,0.0,0.0,0.0,0.0,0.0,0.0,0.0,0.0,0.0,0.0,0.0,0.0,-3.3542,-3.4701,0.0,0.0,0.0,0.0,-3.3318,-3.3371,-3.4038,-3.5565,-3.5636,-3.6158,-3.7309,-3.7753,-3.814,-3.8524,-3.898,-3.9183,-3.921,-3.9328,-3.9444,-3.9495,-3.9495,-3.9546,-3.9602,-3.9602,-3.9602,-3.9545,-3.8619,-3.8225,-3.8112,-3.7286,-3.6967,-3.7017,-3.7395,-3.7946,-3.8594,-3.9257,-3.9379,-3.9399,-4.0408,-3.9656,-3.8324,-3.8227,-3.7042,0.0,0.0,-3.7039,-3.7526,-3.9238,-3.9691,-3.9954,-4.0833,-4.1075,-4.1089,-4.1039,-4.039,-3.926,0.0,-3.7077,-3.6512,-3.4778,0.0,-3.5664,-3.5626,-3.6261,-3.7327,-3.891,-3.8243,-3.7602,-3.7563,-3.6749,-3.5856,-3.4984,-3.4889,-3.4908,-3.4908,-3.4851,-3.4832,-3.4832,-3.3998,-3.2766,-3.1174,-3.0208,0.0,0.0,0.0,0.0,0.0,0.0,0.0,0.0,0.0,0.0,0.0,0.0,0.0,0.0,0.0,0.0,0.0,0.0,0.0,0.0,0.0,0.0,0.0,0.0,0.0,0.0,0.0,0.0,-3.572,-3.6233,0.0,0.0,-3.4161,-3.4179,-3.4916,-3.4986,-3.5443,-3.6513,-3.6566,-3.6864,-3.7487,-3.7929,-3.8328,-3.867,-3.9101,-3.9346,-3.9399,-3.9444,-3.9495,-3.9552,-3.9552,-3.9596,-3.9602,-3.9602,-3.9602,-3.9583,-3.9258,-3.9126,-3.9107,-3.8807,-3.8794,-3.8937,-3.9185,-3.9522,-3.9906,-4.023,-4.0319,-4.0311,-4.017,-3.9713,-3.912,-3.8576,-3.8366,-3.8377,-3.8694,-3.9231,-3.9844,-4.0487,-4.0642,-4.0716,-4.1042,-4.1109,-4.1097,-4.1091,-4.0857,-4.0448,-3.9825,-3.8792,-3.7662,-3.6473,-3.693,-3.7272,-3.6727,-3.7646,-3.8421,-3.8392,-3.8427,-3.7985,-3.6825,-3.6406,-3.5836,-3.4965,-3.4908,-3.4908,-3.4908,-3.4908,-3.4908,-3.4908,-3.4131,-3.3164,-3.1989,-3.0663,-2.8995,0.0,0.0,0.0,0.0,0.0,0.0,0.0,0.0,0.0,0.0,0.0,0.0,0.0,0.0,0.0,0.0,0.0,0.0,0.0,0.0,0.0,0.0,0.0,0.0,0.0,0.0,-3.6689,-3.6952,-3.769,-3.7654,-3.6338,-3.5987,-3.5952,-3.6197,-3.6197,-3.6443,-3.6952,-3.7126,-3.7281,-3.7542,-3.808,-3.8468,-3.873,-3.9202,-3.9444,-3.9495,-3.952,-3.9571,-3.9602,-3.9602,-3.9602,-3.9602,-3.9602,-3.9602,-3.9602,-3.9602,-3.9602,-3.9602,-3.9602,-3.9727,-3.9916,-4.012,-4.0334,-4.0535,-4.0765,-4.0868,-4.0801,-4.0276,-4.0111,-3.9994,-3.9412,-3.9653,-4.0142,-4.0131,-4.0596,-4.109,-4.1101,-4.1094,-4.1095,-4.1109,-4.1097,-4.111,-4.111,-4.111,-4.111,-4.111,-4.0175,-3.9104,-3.8227,-3.8734,-3.8941,-3.8022,-3.8876,-3.9403,-3.8741,-3.8993,-3.8669,-3.7202,-3.703,-3.6576,-3.5438,-3.5344,-3.5211,-3.4927,-3.4643,-3.4491,-3.4491,-3.3695,-3.2861,-3.2008,-3.0397,-2.9014,-2.7896,0.0,0.0,0.0,0.0,0.0,0.0,0.0,0.0,0.0,0.0,0.0,0.0,0.0,0.0,0.0,0.0,0.0,0.0,0.0,0.0,0.0,0.0,0.0,-3.4653,-3.6707,-3.7883,-3.7198,-3.9129,-3.9663,-3.7338,-3.776,-3.7865,-3.711,-3.7058,-3.7097,-3.7097,-3.741,-3.7595,-3.7685,-3.8396,-3.8803,-3.8892,-3.933,-3.957,-3.957,-3.9608,-3.9658,-3.9658,-3.962,-3.9602,-3.9602,-3.9602,-3.9602,-3.9602,-3.9602,-3.9602,-3.9602,-3.962,-3.9731,-3.9937,-4.0157,-4.0345,-4.0552,-4.0819,-4.0907,-4.0907,-4.0907,-4.0907,-4.0907,-4.0907,-4.0957,-4.0992,-4.0991,-4.1053,-4.1105,-4.1096,-4.1095,-4.1089,-4.1091,-4.111,-4.111,-4.111,-4.111,-4.111,-4.111,-4.111,-4.0831,-3.9974,-4.0416,-4.0568,-3.958,-3.9918,0.0,-4.012,-3.9979,-3.9589,-3.8774,-3.87,-3.8016,-3.6367,-3.6196,-3.5817,-3.4965,-3.4131,-3.3695,-3.3695,-3.2899,-3.2065,-3.125,-2.9604,-2.8752,-2.8733,0.0,0.0,0.0,0.0,0.0,0.0,0.0,0.0,0.0,0.0,0.0,0.0,0.0,0.0,0.0,0.0,0.0,0.0,0.0,0.0,0.0,0.0,-3.6092,-3.632,-3.7865,-3.9322,-4.0235,-4.0902,-4.1042,-4.0393,-4.0024,-3.9498,-3.8725,-3.8673,-3.88,-3.91,-3.9198,-3.9388,-3.9766,-4.0304,-4.0621,-4.0674,-4.1091,-4.1316,-4.1316,-4.0741,-4.0459,-4.044,-3.9858,-3.9602,-3.9602,-3.9602,-3.9602,-3.9602,-3.9602,-3.9602,-3.9602,-3.9754,-3.9939,-4.0138,-4.0332,-4.0582,-4.0796,-4.0869,-4.0907,-4.0907,-4.0907,-4.0907,-4.0907,-4.0907,-4.0942,-4.1007,-4.0999,-4.1053,-4.1105,-4.11,-4.1109,-4.1097,-4.1091,-4.111,-4.111,-4.111,-4.111,-4.111,-4.111,-4.1071,-4.0918,-4.0585,-4.0655,-4.0614,-4.0188,-4.0145,0.0,-4.0101,-3.9979,-3.9589,-3.8774,-3.87,-3.8243,-3.7163,-3.6538,-3.5817,-3.4965,-3.4131,-3.3695,-3.3695,-3.3468,-3.2937,-3.2103,-3.1042,-3.0208,0.0,0.0,0.0,0.0,0.0,0.0,0.0,0.0,0.0,0.0,0.0,0.0,0.0,0.0,0.0,0.0,0.0,0.0,0.0,0.0,0.0,0.0,-3.6856,-3.8181,-3.8831,-3.9427,-4.013,-4.1025,-4.1411,-4.1481,-4.1165,-4.0744,-4.0165,-3.9375,-3.9305,-3.9494,-3.9878,-4.0107,-4.0402,-4.0899,-4.1299,-4.1574,-4.1642,-4.1873,-4.1991,-4.1972,-4.1529,-4.1304,-4.1285,-4.0459,-4.029,0.0,-3.9877,-3.9808,-4.0065,-3.9727,-3.9602,0.0,0.0,0.0,0.0,0.0,-4.0761,-4.0908,-4.0898,-4.0907,-4.0907,-4.0907,-4.0907,-4.0907,-4.0935,-4.0967,-4.1001,-4.1009,-4.1045,-4.1095,-4.1109,-4.1097,-4.111,-4.111,-4.111,-4.111,-4.111,-4.1064,-4.1023,-4.1023,-4.0926,0.0,-4.0623,-4.0623,-4.0571,-4.0345,-4.0175,-4.0081,-4.002,-3.9935,-3.9721,-3.9248,-3.9191,-3.885,-3.8016,-3.7182,0.0,0.0,0.0,-3.3543,-3.3164,-3.3164,0.0,0.0,0.0,0.0,0.0,0.0,0.0,0.0,-3.2236,-3.2255,0.0,0.0,0.0,0.0,0.0,0.0,0.0,0.0,0.0,0.0,0.0,0.0,0.0,0.0,0.0,0.0,-3.848,-3.9954,-4.1411,-4.1025,-4.0639,-4.0727,-4.1341,-4.1481,-4.0797,-4.0744,-4.0411,-3.9638,-3.961,-3.9782,-4.0224,0.0,0.0,0.0,0.0,-4.22,-4.2273,-4.2273,-4.2273,-4.2273,-4.2179,-4.2168,-4.213,-4.1323,-4.1323,-4.1916,-4.0478,-4.0272,-4.0891,-4.0159,-3.9889,-3.9948,-3.9927,-4.0081,-4.0332,-4.075,-4.0908,-4.0907,-4.0907,0.0,0.0,-4.0907,-4.0907,-4.0926,-4.0976,-4.1008,-4.1008,-4.0996,-4.1055,-4.1109,-4.1091,-4.111,-4.111,-4.111,-4.1085,-4.1078,-4.1078,-4.098,-4.0869,-4.0869,-4.0723,-4.0535,-4.0315,-4.0442,-4.0472,-4.0211,-4.012,-4.004,-3.9911,-3.9889,-3.9889,-3.9889,0.0,0.0,-3.8888,-3.8035,-3.7201,-3.6386,-3.4851,-3.3638,-3.2861,-3.2842,-3.2842,-3.2842,-3.2842,-3.3562,-3.504,-3.5135,-3.5571,-3.6272,-3.4017,-3.3714,0.0,0.0,0.0,0.0,0.0,0.0,0.0,0.0,0.0,0.0,0.0,0.0,0.0,0.0,0.0,-3.848,-3.9638,-4.0569,-4.1464,-4.1481,-4.1622,-4.2289,-4.2482,-4.2517,-4.2377,-4.2359,-4.2026,-4.1218,-4.1456,-4.1832,-4.2244,-4.2684,0.0,-4.3692,-4.3839,-4.3943,-4.4026,-4.4026,-4.4026,-4.4026,0.0,0.0,-4.3013,-4.2168,-4.1841,-4.1972,-4.168,-4.1623,-4.1773,-4.1605,-4.1747,-4.1971,-4.0653,-4.0408,-4.0773,-4.0868,-4.0898,-4.0907,-4.0907,-4.0907,-4.0907,-4.0907,-4.0935,-4.0976,-4.1007,-4.1007,0.0,-4.099,-4.1055,-4.1091,-4.111,-4.111,-4.111,-4.111,-4.1023,-4.0935,-4.0935,-4.0839,-4.073,-4.073,-4.0623,-4.0477,-4.0334,-4.0281,-4.0211,-3.9979,-3.9956,-3.9933,-3.9911,-3.9889,-3.9889,-3.9889,-3.9889,-3.9854,-3.9683,-3.8925,-3.8073,-3.722,-3.6253,-3.5628,-3.5457,-3.5457,-3.5457,-3.5457,-3.5457,-3.5609,-3.595,-3.6594,-3.6992,-3.7163,-3.6651,-3.6253,0.0,0.0,0.0,0.0,0.0,0.0,0.0,0.0,0.0,0.0,0.0,-3.5019,-3.6197,0.0,-3.8655,-4.0217,-4.0797,-4.1323,-4.2096,-4.185,-4.1745,-4.2166,-4.2201,-4.2201,-4.2201,-4.2201,-4.2115,-4.1934,-4.2092,-4.2462,-4.3069,-4.3422,-4.3823,-4.4285,-4.4401,-4.4487,-4.4515,-4.4515,-4.4515,-4.4515,-4.4102,-4.3895,-4.3876,-4.3031,-4.2881,-4.3192,-4.2348,-4.2302,-4.2793,-4.2507,-4.2602,-4.2813,-4.1963,-4.1602,-4.1548,-4.1558,-4.1276,-4.0907,-4.0907,-4.0907,-4.0907,-4.0907,-4.0941,-4.1007,-4.1008,-4.1006,-4.1009,-4.1035,-4.1076,-4.111,-4.111,-4.1045,-4.0996,-4.0996,-4.0907,-4.0807,-4.0807,-4.0694,-4.0588,-4.0588,-4.0454,-4.0323,-4.0214,-4.0139,-4.0041,-3.9933,-3.9889,-3.9889,-3.9889,-3.9889,-3.9889,-3.9889,-3.9889,-3.9889,-3.9889,-3.9153,-3.8319,-3.7447,-3.7011,-3.6803,-3.6803,-3.6803,-3.6803,-3.6803,-3.6803,-3.7011,-3.7447,-3.7845,-3.8262,-3.866,-3.866,-3.8224,0.0,0.0,0.0,0.0,0.0,0.0,0.0,0.0,-3.3757,-3.4812,-3.6289,-3.7568,-3.8427,-3.9621,-4.0727,-4.1481,-4.1604,-4.1832,-4.2482,-4.2008,-4.1604,-4.1604,-4.1604,-4.1604,-4.1604,-4.1604,-4.1744,-4.2175,-4.2279,-4.2619,-4.3371,-4.3642,-4.3955,-4.4285,-4.443,-4.4515,-4.4515,-4.4515,-4.4515,-4.4515,-4.4515,-4.4515,-4.4496,-4.3839,-4.3895,-4.4439,-4.3122,-4.3033,-4.3847,-4.3484,-4.3448,-4.3626,-4.3653,-4.3264,-4.2684,-4.251,-4.2015,-4.1412,-4.1412,-4.1412,-4.1412,-4.1401,-4.1454,-4.1505,-4.1518,-4.1406,-4.1286,-4.1324,-4.1217,-4.111,-4.111,-4.0996,-4.0907,-4.0907,-4.0784,-4.0655,-4.0655,-4.0564,-4.046,-4.046,-4.0326,-4.0176,-4.0117,-4.0057,-3.9975,-3.9911,-3.9889,-3.9889,-3.9889,-3.9889,-3.9889,-3.9889,-3.9889,-3.9889,-3.9889,-3.9304,-3.8622,-3.7921,-3.7883,-3.7883,-3.7883,-3.7732,-3.7732,-3.7883,-3.7732,-3.8073,-3.8925,-3.8925,-3.9267,-3.9889,-3.9889,-3.9551,-3.1202,-3.0069,-2.9358,-2.9832,-3.0513,-3.1822,0.0,0.0,-3.6257,-3.8096,-3.8667,-3.9143,-4.0059,-4.0401,-4.0727,-4.1481,-4.1604,-4.1639,-4.1727,-4.1657,-4.1604,-4.1604,-4.1604,-4.1604,-4.1604,-4.1604,-4.1744,-4.2175,-4.2541,-4.2922,-4.3371,-4.3923,-4.4237,-4.4285,-4.443,-4.4515,-4.4515,-4.4515,-4.4515,-4.4515,-4.4515,-4.4515,-4.4515,-4.4421,-4.4421,-4.4496,-4.4499,-4.4592,-4.4767,-4.5148,-4.5349,-4.5443,-4.5619,-4.5209,-4.4423,-4.3646,-4.3297,-4.3219,-4.3219,-4.3219,-4.3219,-4.3201,-4.3256,-4.3313,-4.3319,-4.2809,-4.2221,-4.2181,-4.1656,-4.111,-4.111,-4.0996,-4.0907,-4.0907,-4.0706,-4.0519,-4.0519,-4.0413,-4.0328,-4.0328,-4.0272,-4.0176,-4.0117,-4.0057,-3.9975,-3.9911,-3.9889,-3.9889,-3.9889,-3.9889,-3.9889,-3.9889,-3.9889,-3.9889,-3.9889,-3.9835,-3.9721,-3.9646,-3.9627,-3.9627,-3.9627,-3.8925,-3.8888,-3.9627,-3.8925,-3.8944,-3.9778,-3.9778,-3.9816,-3.9889,-3.9889,-3.9832,-3.3335,-3.2566,0.0,0.0,-3.3283,-3.484,-3.5794,-3.7205,-3.8528,-3.9361,-4.0366,-4.1093,-4.1016,-4.1472,-4.1797,0.0,-4.1604,-4.1604,-4.1604,-4.1604,-4.1604,-4.1604,-4.1788,-4.1874,-4.1648,-4.1831,-4.2133,-4.2501,-4.2922,-4.3371,-4.3828,-4.4147,-4.4314,-4.4373,-4.4458,-4.4515,-4.4515,-4.4515,-4.4515,-4.4515,-4.4515,-4.4515,-4.4515,-4.4515,-4.456,-4.4707,-4.4924,-4.5145,-4.5323,-4.5699,-4.5861,-4.5879,-4.5975,-4.5783,-4.5394,-4.4559,-4.3938,-4.351,-4.351,-4.3499,-4.3506,-4.3506,-4.3551,-4.3593,-4.3601,-4.3006,-4.2343,-4.2299,-4.1714,-4.1078,-4.0996,-4.0878,-4.0754,-4.0681,-4.0519,-4.0379,-4.0379,-4.0346,-4.031,-4.031,-4.0291,-4.0234,-4.0176,-4.0118,-4.0077,-3.9975,-3.9933,-3.9889,-3.9889,-3.9889,-3.9889,-3.9889,-3.9889,-3.9889,-3.9889,-3.9889,-3.9889,-3.9889,-3.9889,-3.9889,-3.9889,-3.9589,-3.957,-3.9889,-3.957,-3.957,-3.9889,-3.9889,-3.9889,-3.9889,-3.9889,-3.9889,-3.4352,0.0,0.0,-3.3704,-3.5218,-3.6809,-3.6605,-3.8198,-3.9821,-4.0135,-4.1267,-4.2015,-4.1485,-4.1943,0.0,-4.1692,-4.1604,-4.1604,-4.1604,-4.1604,-4.1604,-4.1604,-4.1941,-4.2092,-4.1788,-4.2133,-4.2541,-4.2959,-4.3248,-4.366,-4.4184,-4.4285,-4.4344,-4.4383,-4.4487,-4.4515,-4.4515,-4.4515,-4.4515,-4.4515,-4.4515,-4.4515,-4.4515,-4.456,-4.4681,-4.4849,-4.5166,-4.5432,-4.5654,-4.5893,-4.5994,-4.5997,-4.5997,-4.5997,-4.5919,-4.5356,-4.4734,-4.419,-4.42,-4.4211,-4.4226,-4.4239,-4.4276,-4.4315,-4.4321,-4.3704,-4.302,-4.302,-4.226,-4.1402,-4.1265,-4.0962,-4.0668,-4.0534,-4.0396,-4.031,-4.031,-4.031,-4.031,-4.031,-4.031,-4.0291,-4.0215,-4.0196,-4.0176,-4.0038,-3.9994,-3.9933,-3.9911,-3.9889,-3.9889,-3.9889,-3.9889,-3.9889,-3.9889,-3.9889,-3.9889,-3.9889,-3.9889,-3.9889,-3.9889,-3.9889,-3.9889,-3.9889,-3.9889,-3.9889,-3.9889,-3.9889,-3.9889,-3.9889,-3.9889,-3.9867,0.0,0.0,-3.4288,-3.4257,-3.5331,-3.6685,-3.7788,-3.8645,-3.9594,-4.0806,-4.1111,-4.1204,-4.1398,-4.1443,-4.1506,-4.156,-4.1604,-4.1604,-4.1604,-4.1604,-4.1604,-4.1604,-4.1941,-4.2216,0.0,-4.2541,-4.2959,-4.3353,-4.3437,-4.3707,-4.4184,-4.4314,-4.4383,-4.4383,-4.4487,-4.4515,-4.4515,-4.4515,-4.4515,-4.4515,-4.4515,-4.4515,-4.4515,-4.4764,-4.4872,-4.4919,-4.5378,-4.5619,-4.5718,-4.5925,-4.5994,-4.5997,-4.5997,-4.5997,-4.5997,-4.5958,-4.5938,-4.5939,-4.599,-4.6014,-4.603,-4.6094,-4.6124,-4.6131,-4.6131,-4.5521,-4.4812,-4.4812,-4.3585,-4.222,-4.2101,-4.1388,-4.0668,-4.0534,-4.0396,-4.031,-4.031,-4.031,-4.031,-4.031,-4.031,-4.0291,-4.0215,-4.0196,-4.0176,-4.0117,-4.0096,-4.0036,-3.9911,-3.9889,-3.9889,-3.9889,-3.9889,-3.9889,-3.9889,-3.9889,-3.9889,-3.9889,-3.9889,-3.9889,-3.9889,-3.9889,-3.9889,-3.9889,-3.9889,-3.9889,-3.9889,-3.9889,-3.9889,-3.9889,-3.9889,-3.9758,0.0,0.0,-3.571,-3.571,-3.7026,-3.8456,-3.8764,-3.9671,-4.0543,-4.0896,-4.1475,-4.1806,-4.1359,-4.1845,-4.2191,-4.1692,-4.1604,-4.1604,-4.1604,-4.1604,-4.1604,-4.1604,-4.2198,0.0,0.0,0.0,0.0,-4.3406,-4.3744,-4.4036,-4.4274,-4.4354,-4.4411,-4.444,-4.4487,-4.4515,-4.4515,-4.4515,-4.4515,-4.4515,-4.4515,-4.456,-4.4688,-4.4843,-4.5077,-4.5381,-4.5591,-4.5761,-4.5893,-4.5964,-4.5997,-4.5997,-4.5997,-4.5997,-4.6007,-4.6054,-4.608,-4.606,-4.6091,-4.6128,-4.6171,-4.6189,-4.6202,-4.6195,-4.6209,-4.5592,-4.489,-4.489,-4.3997,-4.2878,-4.2156,-4.1674,-4.1193,-4.053,-4.0328,-4.031,-4.031,-4.031,-4.031,-4.031,-4.031,-4.0291,-4.0272,-4.0253,-4.0253,-4.0176,-4.0137,-4.0077,-4.0036,-4.0036,-4.0015,-3.9975,-3.9954,-3.9954,-3.9911,-3.9889,-3.9889,-3.9889,-3.9889,-3.9889,-3.9889,-3.9889,-3.9889,-3.9889,-3.9889,-3.9804,-3.9623,-3.9623,-3.9532,-3.9294,-3.9294,-3.9389,-3.5047,-3.5916,-3.6864,-3.7117,-3.83,-3.9473,-3.9517,-4.0204,-4.0778,-4.0882,-4.141,-4.1742,-4.1296,-4.1765,-4.2111,-4.1692,-4.1604,-4.1604,-4.1604,-4.1604,-4.1604,-4.1604,-4.232,0.0,0.0,0.0,0.0,-4.3627,-4.4005,-4.4255,-4.4285,-4.4401,-4.4458,-4.4515,-4.4515,-4.4515,-4.4515,-4.4515,-4.4515,-4.4515,-4.4587,-4.4681,-4.4849,-4.5058,-4.5323,-4.5642,-4.5761,-4.5873,-4.5994,-4.5997,-4.5997,-4.5997,-4.5997,-4.5997,-4.6017,-4.6068,-4.6118,-4.6142,-4.6143,-4.6166,-4.6202,-4.6192,-4.6192,-4.6196,-4.6196,-4.5806,-4.5358,-4.5309,-4.4588,-4.3693,-4.2949,-4.2221,-4.1536,-4.0864,-4.052,-4.031,-4.031,-4.031,-4.031,-4.031,-4.031,-4.031,-4.031,-4.031,-4.0291,-4.0253,-4.0215,-4.0157,-4.0117,-4.0117,-4.0077,-4.0036,-4.0036,-4.0015,-3.9994,-3.9954,-3.9933,-3.9933,-3.9911,-3.9889,-3.9889,-3.9889,-3.9889,-3.9889,-3.9823,-3.967,-3.9502,-3.9364,-3.9216,-3.9008,-3.9136,-3.9181,-3.6058,-3.6959,-3.7686,-3.8349,-3.9013,-3.9606,-4.0064,-4.0178,-4.0358,-4.0817,-4.0935,-4.0948,0.0,0.0,-4.13,-4.156,-4.1604,-4.1622,-4.1657,-4.1639,-4.1604,0.0,0.0,0.0,0.0,0.0,0.0,-4.4005,0.0,-4.4314,-4.4314,-4.443,-4.4515,-4.4515,-4.4515,-4.4515,-4.4515,-4.4515,-4.4515,-4.4515,-4.4714,-4.4825,-4.4919,-4.5378,-4.5634,-4.5733,-4.5922,-4.5997,-4.5997,-4.5997,-4.5997,-4.5997,-4.5997,-4.6007,-4.5998,-4.6076,-4.6147,-4.6192,-4.6191,-4.6205,-4.6198,-4.6211,-4.6196,-4.6196,-4.6196,-4.6196,-4.6162,-4.6027,-4.5394,-4.4669,-4.4395,-4.3069,-4.175,-4.1552,-4.0922,-4.0348,-4.031,-4.031,-4.031,-4.031,-4.031,-4.031,-4.031,-4.031,-4.031,-4.031,-4.031,-4.0253,-4.0137,-4.0117,-4.0117,-4.0117,-4.0117,-4.0098,-4.0117,-4.0036,-3.9996,-3.9975,-3.9933,-3.9889,-3.9867,-3.9889,-3.9889,-3.9848,-3.9623,-3.9483,-3.9458,-3.9136,-3.898,-3.8952,-3.9287,-3.9127,-3.6327,-3.7306,-3.8302,-3.8476,-3.9013,-3.9606,-4.0064,-4.0178,-4.0358,-4.0817,-4.0995,-4.0961,-4.045,0.0,0.0,-4.1604,-4.1604,0.0,-4.2412,-4.199,0.0,0.0,0.0,-4.2462,-4.2772,-4.3248,0.0,0.0,-4.4226,-4.4314,-4.4354,-4.444,-4.4515,-4.4515,-4.4515,-4.4515,-4.4515,-4.4515,-4.4515,-4.4515,-4.4714,-4.49,-4.5125,-4.5449,-4.5713,-4.5937,-4.5975,-4.5997,-4.5997,-4.5997,-4.5997,-4.5997,-4.5997,-4.6027,-4.6076,-4.6147,-4.6192,-4.621,-4.6256,-4.6234,-4.6206,-4.6206,-4.6203,-4.6196,-4.6196,-4.6196,-4.6162,-4.6027,-4.5716,-4.5272,-4.4498,-4.3865,-4.3101,-4.182,-4.1342,-4.1036,-4.0444,-4.031,-4.031,-4.031,-4.031,-4.031,-4.031,-4.031,-4.031,-4.031,-4.031,-4.0291,-4.0253,-4.0253,-4.0234,-4.0176,-4.0176,-4.0157,-4.0098,-4.0036,-3.9914,-3.9693,-3.9845,-3.9693,-3.9242,-3.9651,-3.9693,-3.9242,-3.9408,-3.9279,-3.8836,-3.8748,-3.8615,-3.8401,-3.8478,-3.8572,-3.7259,-3.8128,-3.8886,-3.8586,-3.9198,-3.9875,-3.9726,-4.0197,-4.0471,-4.0006,-4.0251,0.0,-3.9703,0.0,0.0,0.0,0.0,0.0,-4.2745,-4.2412,-4.2008,0.0,-4.2133,0.0,-4.2772,-4.3318,-4.3828,0.0,-4.4255,-4.4344,-4.4383,-4.444,-4.4515,-4.4515,-4.4515,-4.4515,-4.4515,-4.4515,-4.4532,-4.4629,-4.4872,-4.5125,-4.5378,-4.565,-4.5861,-4.5994,0.0,-4.5997,-4.5997,-4.5997,-4.5997,-4.6007,-4.6027,-4.608,-4.6112,-4.6186,-4.6208,-4.621,-4.6284,-4.6255,-4.6206,-4.6201,-4.6203,-4.6196,-4.6196,-4.6154,-4.6084,-4.5914,-4.575,-4.5491,-4.4899,-4.4364,-4.3768,-4.2832,-4.2335,-4.1953,-4.1495,-4.1094,-4.0731,-4.0368,-4.031,-4.031,-4.031,-4.031,-4.031,-4.031,-4.031,-4.0253,-4.0157,-4.0234,-4.0291,-4.0253,-4.0138,-4.0038,-4.0036,-3.9848,-3.967,-3.9526,-3.9551,-3.9452,-3.91,-3.9364,-3.9345,-3.9008,-3.9073,-3.8952,-3.8585,-3.8478,-3.8354,-3.8192,-3.8322,-3.8401,-3.8476,-3.9139,-3.9487,-3.8807,-3.9489,-4.0151,-3.9303,-3.9993,-4.0391,-3.8917,0.0,-3.9334,-3.8929,-3.9478,-4.035,-4.1402,0.0,-4.2763,-4.3061,-4.2851,-4.2429,-4.1832,-4.2351,-4.2734,-4.2792,-4.3474,-4.4005,-4.4214,-4.4274,-4.4344,-4.4383,-4.444,-4.4515,-4.4515,-4.4515,-4.4515,-4.4515,-4.4524,-4.4621,-4.48,-4.5104,-4.536,-4.5619,-4.588,-4.5994,-4.5997,0.0,0.0,-4.5997,-4.5997,-4.6007,-4.6008,-4.6076,-4.6112,-4.6123,-4.6186,-4.6211,-4.6229,-4.6284,-4.626,-4.6206,-4.6209,-4.619,-4.6196,-4.6196,-4.6102,-4.5956,-4.5764,-4.5584,-4.5473,-4.532,-4.4743,-4.415,-4.4036,-4.3482,-4.2928,-4.2813,-4.2202,-4.1476,-4.0769,-4.0635,-4.0635,-4.0635,-4.054,-4.0463,-4.0463,-4.0368,-4.0196,-3.9935,-4.0098,-4.0234,-4.0215,-3.9996,-3.9848,-3.9848,-3.9575,-3.9376,-3.935,-3.9245,-3.9156,-3.9073,-3.9045,-3.8952,-3.8915,-3.8718,-3.8585,-3.8541,-3.8322,-3.8192,-3.8225,-3.8433,-3.8433,-3.9297,-3.9866,-4.023,-3.9518,-3.9902,-4.0151,-3.9303,-3.9174,0.0,0.0,0.0,-3.8121,-3.8042,-3.8779,0.0,-4.1376,0.0,0.0,0.0,0.0,-4.2008,0.0,0.0,0.0,0.0,0.0,0.0,0.0,0.0,0.0,-4.4383,-4.444,-4.4515,-4.4515,-4.4515,-4.4515,-4.4515,-4.4655,-4.477,-4.48,-4.5304,-4.5558,-4.5619,-4.588,-4.5994,-4.5997,-4.5997,0.0,-4.5997,-4.5997,-4.6036,-4.6084,-4.6098,-4.6123,-4.6189,-4.6191,-4.6246,-4.629,-4.63,-4.6264,-4.6206,-4.6209,-4.619,-4.6196,-4.6196,-4.6102,-4.5956,-4.5764,-4.5584,-4.5473,-4.532,-4.5182,-4.4895,-4.4169,-4.3902,-4.3615,-4.2947,-4.2679,-4.2526,-4.2393,-4.2374,-4.2374,-4.2374,-4.1762,-4.1285,-4.1285,-4.0731,-4.0196,-3.9935,-3.9935,-3.9892,-3.967,-3.9599,-3.9575,-3.9575,-3.9477,-3.9279,-3.898,-3.9119,-3.8989,-3.8483,-3.8818,-3.8799,-3.8354,-3.851,-3.8478,-3.8274,-3.8207,-3.8192,-3.8192,-3.8241,-3.8241,-3.9977,-4.0324,-4.034,-3.925,-3.9454,-3.956,-3.8266,0.0,0.0,0.0,-3.7551,-3.7592,-3.7311,0.0,0.0,0.0,0.0,0.0,0.0,0.0,0.0,0.0,0.0,0.0,0.0,0.0,0.0,0.0,0.0,0.0,-4.444,-4.4487,-4.4515,-4.4515,-4.4515,-4.4515,-4.4515,-4.4688,-4.4872,-4.5007,-4.5417,-4.5654,-4.5756,-4.5929,-4.6005,-4.5997,-4.5997,0.0,-4.6007,-4.6036,-4.6068,-4.6105,-4.6147,-4.6163,-4.6191,-4.6246,-4.6276,-4.63,-4.6296,-4.6284,-4.6231,-4.6164,-4.6119,-4.6093,-4.6093,-4.5925,-4.5728,-4.5619,-4.549,-4.5381,-4.5319,-4.5297,-4.5182,-4.4781,-4.4685,-4.4456,-4.3615,-4.3424,-4.331,-4.2889,-4.2794,-4.2794,-4.2794,-4.245,-4.2183,-4.2183,-4.1339,-4.0623,-4.0363,-3.982,-3.9502,-3.9502,-3.9376,-3.9298,-3.9298,-3.9129,-3.896,-3.8815,-3.8796,-3.8664,-3.8368,-3.8491,-3.8478,-3.8225,-3.8322,-3.8322,-3.8192,-3.8192,-3.8192,-3.8192,-3.8192,-3.8375,-4.0451,-4.0704,-4.0482,-3.9076,-3.9182,-3.9137,-3.7291,-3.782,0.0,0.0,-3.6911,-3.7255,-3.6806,0.0,0.0,0.0,0.0,0.0,0.0,0.0,0.0,0.0,0.0,0.0,0.0,0.0,0.0,0.0,0.0,0.0,-4.4515,-4.4515,-4.4515,-4.4515,-4.4515,-4.4515,-4.4515,-4.4764,-4.5007,-4.5201,-4.5524,-4.5761,-4.5898,-4.5964,-4.5997,-4.5997,-4.5997,0.0,0.0,-4.6076,-4.6118,-4.6133,-4.6186,-4.6211,-4.6229,-4.627,-4.63,-4.63,-4.6292,-4.6279,-4.624,-4.6135,-4.6056,-4.6017,-4.5966,-4.5742,-4.5526,-4.549,-4.54,-4.5297,-4.5297,-4.5297,-4.5297,-4.5297,-4.5297,-4.5105,-4.4437,-4.4223,-4.4012,-4.3443,-4.3288,-4.3228,-4.3228,-4.3116,-4.3002,-4.2878,-4.2009,-4.1184,-4.0678,-3.9898,-3.9342,-3.9343,-3.9156,-3.9017,-3.9017,-3.8822,-3.8707,-3.8707,-3.8496,-3.8382,-3.8382,-3.8256,-3.8192,-3.8192,-3.8192,-3.8192,-3.8192,-3.8192,-3.8192,-3.8192,-3.8192,-3.8574,-4.0577,-4.1035,-4.1162,-3.9756,-3.9825,-3.9697,-3.7406,0.0,0.0,-3.6688,-3.6655,-3.6771,-3.6806,-3.7521,-3.8638,-4.0217,0.0,-4.1622,0.0,0.0,0.0,0.0,0.0,0.0,0.0,0.0,0.0,0.0,0.0,0.0,0.0,-4.4515,-4.4515,-4.4515,-4.4515,-4.4515,-4.4515,-4.4934,-4.518,-4.5201,-4.5661,-4.5887,-4.5886,-4.596,-4.5994,-4.5997,-4.5997,0.0,0.0,-4.6098,-4.6147,-4.619,-4.6191,-4.6246,-4.6284,-4.6303,-4.63,-4.63,-4.63,-4.6226,-4.6123,-4.6088,-4.6091,-4.6066,-4.5859,-4.5699,-4.558,-4.5526,-4.54,-4.5297,-4.5297,-4.5297,-4.5297,-4.5297,-4.5297,-4.5277,-4.5201,-4.4931,-4.4782,-4.5025,-4.4817,-4.4616,-4.4616,-4.4211,-4.3697,-4.3163,-4.2567,-4.1731,-4.0496,-4.0262,-3.9833,-3.8884,-3.875,-3.8738,-3.8738,-3.8689,-3.8707,-3.8707,-3.8496,-3.8382,-3.8382,-3.8256,-3.8192,-3.8192,-3.8192,-3.8192,-3.8192,-3.8192,-3.8192,-3.8192,-3.8192,-3.8574,-4.0482,-4.1083,-4.1257,-3.985,-3.992,-3.9778,-3.7423,0.0,-3.7614,-3.6671,-3.6626,-3.6748,-3.6788,-3.7154,-3.7935,-3.9515,-3.9375,-4.0147,0.0,0.0,0.0,0.0,0.0,0.0,0.0,0.0,0.0,0.0,0.0,0.0,0.0,-4.4515,-4.4515,-4.4515,-4.4515,-4.456,-4.4681,-4.5026,-4.5244,-4.5381,-4.5723,-4.5899,-4.5886,-4.596,-4.5994,-4.6007,-4.6046,0.0,0.0,-4.6136,-4.6184,-4.6191,-4.6245,-4.6273,-4.6296,-4.6211,-4.6181,-4.6176,-4.6091,-4.6024,-4.5979,-4.5936,-4.5922,-4.5886,-4.5733,-4.558,-4.5477,-4.54,-4.5341,-4.5297,-4.5297,-4.5297,-4.5297,-4.5297,-4.5297,-4.5235,-4.5045,-4.4891,-4.4776,-4.4745,-4.4643,-4.4546,-4.4546,-4.4386,-4.4178,-4.3922,-4.3127,-4.2361,-4.1805,-4.0774,-3.9909,-3.9491,-3.9001,-3.8707,-3.8707,-3.8707,-3.8658,-3.859,-3.8465,-3.8401,-3.8354,-3.8241,-3.8192,-3.8192,-3.8192,-3.8192,-3.8192,-3.8192,-3.8192,-3.8192,-3.8594,-3.9175,-4.0324,-4.1038,-4.1304,-4.0119,-4.008,-3.9826,0.0,-3.76,-3.7643,-3.6755,-3.6708,-3.6829,-3.6869,-3.6948,-3.7409,-3.8743,-3.8673,-3.9392,-4.2078,0.0,0.0,0.0,0.0,0.0,0.0,0.0,0.0,0.0,0.0,0.0,0.0,-4.4515,-4.4515,-4.4515,-4.4515,-4.4595,-4.48,-4.5074,-4.5304,-4.549,-4.5757,-4.5887,-4.5886,-4.5949,-4.5983,-4.6007,0.0,0.0,0.0,-4.6186,-4.621,-4.6228,-4.627,-4.6273,-4.624,-4.6138,-4.6064,-4.6033,-4.593,-4.5897,-4.5852,-4.5822,-4.5771,-4.5712,-4.5616,-4.5495,-4.5399,-4.5317,-4.5297,-4.5297,-4.5297,-4.5235,-4.5132,-4.5132,-4.5087,-4.4976,-4.4726,-4.4624,-4.4519,-4.4411,-4.4346,-4.426,-4.426,-4.4346,-4.4327,-4.4173,-4.3539,-4.2953,-4.2619,-4.142,-4.0524,-4.0286,-3.9753,-3.9221,-3.8744,-3.8707,-3.8658,-3.851,-3.8446,-3.8368,-3.8307,-3.8259,-3.8192,-3.8192,-3.8192,-3.8192,-3.8192,-3.8427,-3.8536,-3.8554,-3.9246,-3.9914,-4.0167,-4.0959,-4.143,-4.0751,-4.0464,-3.9998,0.0,-3.8002,-3.7689,-3.6963,-3.6788,-3.6829,-3.697,-3.6987,-3.7233,-3.7988,-3.8778,-3.9831,-4.1394,0.0,0.0,0.0,0.0,0.0,0.0,0.0,0.0,0.0,0.0,0.0,0.0,-4.4515,-4.4515,-4.4515,-4.4515,-4.4595,-4.48,-4.5074,-4.5304,-4.549,-4.5688,-4.5841,-4.5905,-4.5886,-4.5941,0.0,0.0,0.0,0.0,-4.6209,-4.6246,-4.63,-4.63,-4.6216,-4.6098,-4.6098,-4.6033,-4.5899,-4.5899,-4.5859,-4.5814,-4.58,-4.5715,-4.5586,-4.5513,-4.5438,-4.5381,-4.5319,-4.5297,-4.5297,-4.5297,-4.5045,-4.4819,-4.4819,-4.4599,-4.443,-4.4383,-4.421,-4.4079,-4.4346,-4.421,-4.3986,-4.3986,-4.4221,-4.4202,-4.3615,-4.3763,-4.3582,-4.2463,-4.2286,-4.1974,-4.1185,-4.1093,-4.0432,-3.8836,-3.8707,-3.8658,-3.851,-3.8446,-3.8368,-3.8307,-3.8259,-3.8192,-3.8192,-3.8192,-3.8192,-3.8192,-3.8989,-3.9387,-3.9405,-4.0077,-4.0723,-3.9434,-4.0001,-4.0252,-3.9048,-3.9018,-3.8954,-3.753,-3.7536,-3.7655,-3.694,-3.6851,-3.6948,-3.6987,-3.6987,-3.7584,-3.9427,-3.9024,0.0,0.0,0.0,0.0,0.0,0.0,0.0,0.0,0.0,0.0,0.0,0.0,0.0,0.0,-4.4515,-4.4515,-4.4515,-4.4629,-4.4819,-4.5074,-4.5304,-4.5526,-4.5708,-4.5766,-4.5841,-4.5905,-4.5905,0.0,0.0,0.0,0.0,0.0,-4.6246,-4.627,-4.6296,-4.6206,-4.6138,-4.6084,-4.5958,-4.5866,-4.5815,-4.5737,-4.568,-4.5651,-4.5651,-4.5618,-4.5586,-4.5513,-4.5495,-4.5457,-4.5399,-4.5378,-4.5317,-4.5023,-4.4868,-4.4751,-4.4572,-4.4465,-4.4346,-4.4181,-4.4048,-4.3955,-4.3809,-4.373,-4.3649,-4.3649,-4.373,-4.3712,-4.3513,-4.3582,-4.3523,-4.3183,-4.2635,-4.2194,-4.1956,-4.1442,-4.0671,-3.9606,-3.9515,-3.9195,-3.8483,-3.8415,-3.8336,-3.8259,-3.8225,-3.8192,-3.8192,-3.8735,-3.9007,-3.9007,-3.9786,-4.0366,-4.076,-4.0935,-4.1339,0.0,-3.9358,-3.9473,-3.855,-3.8605,-3.8599,-3.7522,-3.7602,-3.769,-3.7026,-3.6948,-3.6987,-3.6987,-3.6987,-3.7461,-3.8918,-3.8831,0.0,0.0,0.0,0.0,0.0,0.0,0.0,0.0,0.0,0.0,0.0,0.0,0.0,0.0,0.0,-4.4551,-4.4621,-4.472,-4.4938,-4.5201,-4.5399,-4.561,-4.58,-4.58,-4.5841,-4.5893,-4.5933,0.0,0.0,0.0,0.0,0.0,-4.6276,-4.6273,-4.6216,-4.6138,-4.6041,-4.5969,-4.5848,-4.5771,-4.5696,-4.5637,-4.5586,-4.5586,-4.5586,-4.5586,-4.5586,-4.555,-4.5457,-4.5341,-4.5298,-4.5213,-4.5084,-4.4833,-4.4643,-4.4493,-4.4318,-4.4173,-4.3992,-4.386,-4.3814,-4.3749,-4.3548,-4.3497,-4.3497,-4.3497,-4.3497,-4.3497,-4.3497,-4.3497,-4.3497,-4.3497,-4.3057,-4.2745,-4.2745,-4.2304,-4.157,-4.0451,-4.0052,-3.9585,-3.8907,-3.8532,-3.8322,-3.8207,-3.8192,-3.8337,-3.8645,-3.9134,-3.9532,-3.9822,-4.0565,-4.1232,-4.1854,-4.1773,-4.194,0.0,-3.8689,-3.8887,-3.8838,-3.8824,-3.8673,-3.8052,-3.7897,0.0,-3.7058,-3.69,-3.6917,-3.697,-3.6935,-3.697,-3.7198,-3.8392,0.0,0.0,0.0,0.0,0.0,0.0,0.0,0.0,0.0,0.0,0.0,0.0,0.0,0.0,0.0,-4.4595,-4.4776,-4.4825,-4.4966,-4.5222,-4.5418,-4.561,-4.58,-4.58,-4.5847,-4.5906,-4.5988,0.0,0.0,0.0,0.0,0.0,-4.6251,-4.6211,-4.6098,-4.6091,-4.5959,-4.58,-4.58,-4.5715,-4.5586,-4.5586,-4.5586,-4.5586,-4.5586,-4.5586,-4.5605,-4.5568,-4.5361,-4.5125,-4.5084,-4.4919,-4.4693,-4.4667,-4.4402,-4.4091,-4.4079,-4.3795,-4.3532,-4.3532,-4.3479,-4.3497,-4.3497,-4.3497,-4.3497,-4.3497,-4.3497,-4.3497,-4.3497,-4.3497,-4.3497,-4.3497,-4.3497,-4.3497,-4.3497,-4.3497,-4.2892,-4.1372,-4.0408,-3.9794,-3.9513,-3.874,-3.8274,-3.8192,-3.8246,-3.8627,-3.9387,-3.9514,-3.993,-4.0655,-4.1341,-4.1967,-4.2609,-4.2526,-4.2405,-3.5084,0.0,-3.7735,-3.7199,-3.7102,-3.7102,0.0,-3.7091,-3.6881,-3.6211,0.0,-3.6268,-3.6865,-3.6496,-3.6865,-3.9269,-3.9463,0.0,0.0,0.0,0.0,0.0,0.0,0.0,0.0,0.0,0.0,0.0,0.0,0.0,0.0,0.0,-4.4745,-4.48,-4.5144,-4.5381,-4.5418,-4.5626,-4.5752,-4.58,-4.5896,-4.5963,-4.5984,-4.6054,0.0,0.0,0.0,0.0,-4.627,-4.6187,-4.6131,-4.6091,-4.5936,-4.5848,-4.5786,-4.5684,-4.5637,-4.5586,-4.5586,-4.5586,-4.5586,-4.5586,-4.5586,-4.5568,-4.5342,-4.5241,-4.5178,-4.5115,-4.491,-4.4636,-4.4365,-4.4269,-4.4121,-4.3929,-4.3734,-4.3582,-4.3582,-4.3532,-4.3497,-4.3497,-4.3497,-4.3497,-4.3497,-4.3497,-4.3497,-4.3497,-4.3497,-4.3497,-4.3497,-4.3497,-4.3497,-4.3497,-4.3497,-4.3316,-4.2898,-4.1528,-4.0141,-3.878,-3.8431,-3.8274,-3.8192,-3.879,-3.9206,-3.9387,-4.0564,-4.1523,-4.2262,-4.2327,-4.2408,-4.2526,-4.2387,-4.2328,-3.399,-3.5232,-3.6377,-3.5987,-3.6243,-3.6498,-3.6255,-3.6287,0.0,0.0,0.0,-3.553,-3.6303,-3.6391,0.0,-3.9059,0.0,0.0,0.0,0.0,0.0,0.0,0.0,0.0,0.0,0.0,0.0,0.0,0.0,0.0,0.0,0.0,-4.4868,-4.4985,-4.5304,-4.549,-4.549,-4.5708,-4.5819,-4.5877,-4.5969,-4.6028,-4.6056,-4.6113,-4.618,0.0,0.0,0.0,-4.6296,-4.6157,-4.6072,-4.5988,-4.5848,-4.5757,-4.57,-4.5637,-4.5586,-4.5586,-4.5586,-4.5586,-4.5586,-4.5476,-4.5419,-4.5381,-4.5096,-4.4919,-4.4825,-4.48,-4.4572,-4.4336,-4.4151,-4.4079,-4.4036,-4.3883,-4.3786,-4.3667,-4.3615,-4.3548,-4.3532,-4.3532,-4.3497,-4.3497,-4.3497,-4.3497,-4.3497,-4.3497,-4.3497,-4.3497,-4.3497,-4.3497,-4.3497,-4.3497,-4.3497,-4.3316,-4.2882,-4.1988,-4.1024,-4.0081,-3.9579,-3.9277,-3.926,-3.9677,-4.0075,-4.0456,-4.1632,-4.2389,-4.2783,-4.2627,-4.2526,-4.2503,-4.2346,-4.2287,-3.3835,-3.4628,-3.5197,-3.5238,-3.5948,-3.651,-3.5832,0.0,0.0,0.0,0.0,0.0,0.0,0.0,0.0,0.0,0.0,0.0,0.0,0.0,0.0,0.0,0.0,0.0,0.0,0.0,0.0,0.0,0.0,0.0,0.0,0.0,0.0,-4.5201,-4.5418,-4.556,-4.556,-4.5723,-4.5858,-4.6007,-4.6009,-4.6042,-4.6127,-4.617,-4.6228,0.0,0.0,0.0,-4.6269,-4.6137,-4.6008,-4.5887,-4.58,-4.57,-4.5586,-4.5586,-4.5586,-4.5586,-4.5586,-4.5586,-4.5568,-4.5302,-4.5201,-4.514,-4.4825,-4.4572,-4.4383,-4.4346,-4.4181,-4.4005,-4.4005,-4.3961,-4.3929,-4.3929,-4.3851,-4.3786,-4.3667,-4.3615,-4.3582,-4.3532,-4.3532,-4.3497,-4.3497,-4.3497,-4.3497,-4.3497,-4.3497,-4.3497,-4.3497,-4.3497,-4.3497,-4.3497,-4.3497,-4.3171,-4.2408,-4.2247,-4.2122,-4.2069,-4.1071,-4.0564,-4.0691,-4.0691,-4.1071,-4.1886,-4.2479,-4.2783,-4.2783,-4.2584,-4.2503,-4.2463,-4.2346,-4.2287,-3.3697,-3.4628,-3.5238,-3.5336,-3.5948,-3.655,-3.6591,0.0,0.0,0.0,0.0,0.0,0.0,0.0,0.0,0.0,0.0,0.0,0.0,0.0,0.0,0.0,0.0,0.0,0.0,0.0,0.0,0.0,0.0,0.0,0.0,0.0,0.0,-4.5201,-4.556,-4.5752,-4.5752,-4.578,-4.5858,-4.6007,-4.6066,-4.6115,-4.6183,-4.626,-4.6286,0.0,0.0,-4.6273,-4.6196,-4.6001,-4.5891,-4.5802,-4.5665,-4.562,-4.5586,-4.5586,-4.5586,-4.5586,-4.5586,-4.5586,-4.5568,-4.5302,-4.5201,-4.5096,-4.4624,-4.4438,-4.4346,-4.4121,-4.4017,-4.4005,-4.4005,-4.4005,-4.3974,-4.3974,-4.3929,-4.3883,-4.3865,-4.3734,-4.3582,-4.3582,-4.3548,-4.3497,-4.3497,-4.3497,-4.3497,-4.3497,-4.3497,-4.3497,-4.3497,-4.3497,-4.3497,-4.3497,-4.3446,-4.3339,-4.3086,-4.2978,-4.2868,-4.2757,-4.1325,-4.0818,-4.1506,-4.1542,-4.1904,-4.2701,-4.2788,-4.2745,-4.2649,-4.2526,-4.2445,-4.2328,-4.2287,-4.2287,-3.2703,-3.3757,-3.48,-3.5335,-3.6325,-3.7026,-3.6272,-3.6199,0.0,0.0,0.0,0.0,0.0,0.0,0.0,0.0,0.0,0.0,0.0,0.0,0.0,0.0,0.0,0.0,0.0,0.0,0.0,0.0,0.0,0.0,0.0,0.0,0.0,0.0,-4.5594,-4.58,-4.58,-4.5858,-4.5969,-4.6046,-4.6116,-4.6192,-4.6261,-4.628,-4.6308,-4.6308,0.0,-4.6249,-4.618,-4.6025,-4.5886,-4.58,-4.569,-4.564,-4.5586,-4.5438,-4.5381,-4.5362,-4.5222,-4.518,-4.5118,-4.4849,-4.4776,-4.4682,-4.4289,-4.4162,-4.4151,-4.4017,-4.4005,-4.4005,-4.4005,-4.4005,-4.4005,-4.4005,-4.3974,-4.3942,-4.3897,-4.3818,-4.3686,-4.3615,-4.3566,-4.3497,-4.3497,-4.3497,-4.3497,-4.3497,-4.3497,-4.3497,-4.3497,-4.3497,-4.3497,-4.3497,-4.3446,-4.334,-4.3214,-4.3123,-4.3049,-4.29,-4.2212,-4.1959,-4.2339,-4.2357,-4.25,-4.2842,-4.2727,-4.2627,-4.2566,-4.2427,-4.2346,-4.2287,-4.2287,-4.2287,-3.2605,-3.3575,-3.4614,-3.5322,0.0,-3.7228,-3.6493,-3.6282,0.0,0.0,0.0,0.0,0.0,0.0,0.0,0.0,0.0,0.0,0.0,0.0,0.0,0.0,0.0,0.0,0.0,0.0,0.0,0.0,0.0,0.0,0.0,0.0,0.0,0.0,-4.561,-4.5819,-4.5838,-4.5969,-4.6054,-4.6099,-4.617,-4.624,-4.6308,-4.6308,-4.6286,-4.6284,-4.6284,-4.6227,-4.6143,-4.6032,-4.5916,-4.578,-4.5728,-4.5622,-4.5495,-4.5282,-4.5159,-4.5074,-4.4872,-4.48,-4.4751,-4.4493,-4.4383,-4.4346,-4.4079,-4.4005,-4.4005,-4.4005,-4.4005,-4.4005,-4.4005,-4.4005,-4.4005,-4.4005,-4.4005,-4.3974,-4.3929,-4.3851,-4.3771,-4.3667,-4.3566,-4.3497,-4.3497,-4.3497,-4.3497,-4.3497,-4.3497,-4.3497,-4.3497,-4.3497,-4.3479,-4.3463,-4.3411,-4.3305,-4.3123,-4.3068,-4.3012,-4.29,-4.2882,-4.2882,-4.2882,-4.2882,-4.2862,-4.2783,-4.2649,-4.2588,-4.2503,-4.2346,-4.2287,-4.2287,-4.2287,-4.2287,-3.4701,-3.5186,-3.5209,-3.5439,-3.5965,0.0,-3.8457,-3.8213,0.0,-3.8789,0.0,0.0,0.0,0.0,0.0,0.0,0.0,0.0,0.0,0.0,0.0,0.0,0.0,0.0,0.0,0.0,0.0,0.0,0.0,0.0,0.0,0.0,0.0,0.0,0.0,-4.5858,-4.5988,-4.6065,-4.6096,-4.6103,-4.6162,-4.624,-4.6308,-4.6308,-4.6275,-4.6197,-4.6197,-4.6145,-4.6013,-4.595,-4.5862,-4.5785,-4.5726,-4.5513,-4.5222,-4.5201,-4.5052,-4.4843,-4.48,-4.48,-4.4751,-4.4493,-4.4383,-4.4346,-4.4079,-4.4005,-4.4005,-4.4005,-4.4005,-4.4005,-4.4005,-4.4005,-4.4005,-4.4005,-4.4005,-4.4005,-4.4005,-4.3883,-4.3804,-4.3804,-4.3634,-4.3497,-4.3497,-4.3497,-4.3497,-4.3497,-4.3497,-4.3497,-4.3497,-4.3497,-4.3463,-4.3411,-4.3286,-4.3123,-4.2938,-4.2938,-4.292,-4.2882,-4.2882,-4.2882,-4.2882,-4.2882,-4.2862,-4.2783,-4.2649,-4.2588,-4.2503,-4.2346,-4.2287,-4.2287,-4.2287,-4.2287,-3.3265,-3.412,-3.4898,-3.5479,-3.6094,0.0,0.0,-3.7807,-3.8257,-3.9105,-3.9305,0.0,0.0,0.0,0.0,0.0,0.0,0.0,0.0,0.0,0.0,0.0,0.0,0.0,0.0,0.0,0.0,0.0,0.0,0.0,0.0,0.0,0.0,0.0,0.0,-4.5949,-4.6007,-4.6104,-4.6158,-4.6158,-4.6227,-4.628,-4.6308,-4.6308,-4.627,-4.6201,-4.6201,-4.6123,-4.6007,-4.5979,-4.5907,-4.58,-4.5637,-4.5495,-4.5342,-4.4962,-4.4751,-4.4624,-4.4374,-4.4308,-4.4279,-4.4162,-4.4151,-4.4121,-4.4017,-4.4005,-4.4005,-4.4005,-4.4005,-4.4005,-4.4005,-4.4005,-4.4005,-4.4005,-4.4005,-4.4005,-4.4005,-4.3897,-4.3804,-4.3804,-4.3652,-4.3497,-4.3497,-4.3497,-4.3497,-4.3497,-4.3497,-4.3497,-4.3497,-4.3497,-4.3463,-4.3429,-4.3233,-4.3068,-4.292,-4.2882,-4.2882,-4.2882,-4.2882,-4.2882,-4.2882,-4.288,-4.2765,-4.2688,-4.2588,-4.2468,-4.2387,-4.2328,-4.2287,-4.2287,-4.2287,-4.2287,-3.2693,-3.3288,-3.404,-3.4644,0.0,0.0,-3.6866,-3.7696,-3.8807,-4.0147,-4.0217,0.0,0.0,0.0,0.0,0.0,0.0,0.0,0.0,0.0,0.0,0.0,0.0,0.0,0.0,0.0,0.0,0.0,0.0,0.0,0.0,0.0,0.0,0.0,0.0,-4.6046,-4.6065,-4.6143,-4.622,-4.6234,-4.6264,-4.627,-4.6308,-4.6287,-4.6235,-4.6162,-4.6145,-4.6065,-4.5949,-4.5949,-4.5853,-4.5719,-4.5603,-4.5438,-4.526,-4.4838,-4.461,-4.4467,-4.417,-4.4036,-4.4005,-4.4005,-4.4005,-4.4005,-4.4005,-4.4005,-4.4005,-4.4005,-4.4005,-4.4005,-4.4005,-4.4005,-4.4005,-4.4005,-4.4005,-4.4005,-4.3974,-4.3883,-4.3804,-4.3771,-4.36,-4.3497,-4.3497,-4.3497,-4.3497,-4.3497,-4.3497,-4.3497,-4.3497,-4.3497,-4.3446,-4.3323,-4.3123,-4.2994,-4.29,-4.2882,-4.2882,-4.2882,-4.2882,-4.2882,-4.2882,-4.286,-4.2745,-4.2609,-4.2526,-4.2445,-4.2287,-4.2287,-4.2287,-4.2287,-4.2287,-4.2287,-3.3432,-3.3076,-3.2613,0.0,0.0,0.0,-3.7067,-3.8209,-3.9826,-4.2261,0.0,0.0,0.0,0.0,0.0,0.0,0.0,0.0,0.0,0.0,0.0,0.0,0.0,0.0,0.0,0.0,0.0,0.0,0.0,0.0,0.0,0.0,0.0,0.0,0.0,0.0,-4.6201,-4.6201,-4.622,-4.6306,-4.6231,-4.624,-4.6308,-4.6231,-4.6166,-4.6111,-4.6026,-4.593,-4.58,-4.58,-4.5712,-4.5586,-4.5586,-4.5301,-4.4895,-4.4895,-4.4659,-4.4314,-4.4285,-4.4177,-4.4005,-4.4005,-4.4005,-4.4005,-4.4005,-4.4005,-4.4005,-4.4005,-4.4005,-4.4005,-4.4005,-4.4005,-4.4005,-4.4005,-4.4005,-4.3974,-4.3897,-4.3851,-4.3753,-4.3634,-4.3566,-4.3497,-4.3497,-4.3497,-4.3497,-4.3497,-4.3497,-4.3497,-4.3497,-4.3446,-4.3323,-4.3104,-4.2994,-4.2882,-4.2882,-4.2882,-4.2882,-4.2882,-4.2882,-4.2882,-4.2882,-4.2842,-4.2745,-4.2609,-4.2526,-4.2445,-4.2287,-4.2287,-4.2287,-4.2287,-4.2287,-4.2287,-3.1178,-3.186,0.0,0.0,0.0,0.0,0.0,-3.9742,0.0,0.0,0.0,0.0,0.0,0.0,0.0,0.0,0.0,0.0,0.0,0.0,0.0,0.0,0.0,0.0,0.0,0.0,0.0,0.0,0.0,0.0,0.0,0.0,0.0,0.0,0.0,0.0,-4.6201,-4.6259,-4.6266,-4.6234,-4.6216,-4.6203,-4.6231,-4.6153,-4.6406,-4.6848,-4.6247,-4.6264,-4.667,-4.6051,-4.5727,-4.5599,-4.5494,-4.532,-4.508,-4.4846,-4.4632,-4.443,-4.4344,-4.4177,-4.4005,-4.4005,-4.4005,-4.4005,-4.4005,-4.4005,-4.4005,-4.4005,-4.4005,-4.4005,-4.4005,-4.4005,-4.4005,-4.4005,-4.4005,-4.3974,-4.3897,-4.3851,-4.3753,-4.3634,-4.3566,-4.3497,-4.3497,-4.3497,-4.3497,-4.3497,-4.3497,-4.3497,-4.3446,-4.334,-4.3233,-4.3104,-4.2994,-4.2882,-4.2882,-4.2882,-4.2882,-4.2882,-4.2842,-4.2804,-4.2804,-4.2727,-4.2627,-4.2526,-4.2445,-4.2346,-4.2287,-4.2287,-4.2287,-4.2287,-4.2287,-4.259,-3.1062,0.0,0.0,0.0,0.0,0.0,0.0,0.0,0.0,0.0,0.0,0.0,0.0,0.0,0.0,0.0,0.0,0.0,0.0,0.0,0.0,0.0,0.0,0.0,0.0,0.0,0.0,0.0,0.0,0.0,0.0,0.0,0.0,0.0,0.0,0.0,-4.6192,-4.6221,-4.6191,-4.6158,-4.6138,-4.6123,-4.6123,-4.641,-4.6787,-4.7158,-4.6651,-4.6689,-4.7038,-4.6104,-4.5645,-4.551,-4.5381,-4.5216,-4.5057,-4.4846,-4.4693,-4.4551,-4.443,-4.4285,-4.4116,-4.4036,-4.4005,-4.4005,-4.4005,-4.4005,-4.4005,-4.4005,-4.4005,-4.4005,-4.4005,-4.4005,-4.4005,-4.4005,-4.4005,-4.3974,-4.3883,-4.3837,-4.3753,-4.36,-4.3532,-4.3497,-4.3497,-4.3497,-4.3497,-4.3497,-4.3463,-4.3446,-4.334,-4.3233,-4.3105,-4.3049,-4.2938,-4.2882,-4.2882,-4.2882,-4.2882,-4.2882,-4.2842,-4.2783,-4.2745,-4.2627,-4.2566,-4.2503,-4.2346,-4.2287,-4.2287,-4.2287,-4.2287,-4.2287,-4.2626,-4.3036,-3.2224,0.0,0.0,0.0,0.0,0.0,0.0,0.0,0.0,0.0,0.0,0.0,0.0,0.0,0.0,0.0,0.0,0.0,0.0,0.0,0.0,0.0,0.0,0.0,0.0,0.0,0.0,0.0,0.0,0.0,0.0,0.0,0.0,0.0,0.0,0.0,-4.6201,-4.6134,-4.6135,0.0,-4.6143,-4.6162,-4.6239,-4.6902,-4.7216,-4.7313,-4.7236,-4.7158,-4.7004,-4.6012,-4.5493,-4.5361,-4.5256,-4.508,-4.4895,-4.4895,-4.4815,-4.4659,-4.4524,-4.4401,-4.4237,-4.4067,-4.4005,-4.4005,-4.4005,-4.4005,-4.4005,-4.4005,-4.4005,-4.4005,-4.4005,-4.4005,-4.4005,-4.4005,-4.4005,-4.3942,-4.3837,-4.3804,-4.3738,-4.3532,-4.3497,-4.3497,-4.3497,-4.3497,-4.3497,-4.3497,-4.3446,-4.334,-4.3214,-4.316,-4.3049,-4.292,-4.2882,-4.2882,-4.2882,-4.2882,-4.2882,-4.2882,-4.2842,-4.2745,-4.2609,-4.2526,-4.2503,-4.2463,-4.2346,-4.2287,-4.2287,-4.2358,-4.2394,-4.2412,-4.3233,-4.3643,0.0,-3.1924,0.0,0.0,0.0,0.0,0.0,0.0,0.0,0.0,0.0,0.0,0.0,0.0,0.0,0.0,0.0,0.0,0.0,0.0,0.0,0.0,0.0,0.0,0.0,0.0,0.0,0.0,0.0,0.0,0.0,0.0,0.0,0.0,0.0,-4.689,-4.6201,-4.6177,-4.6435,0.0,-4.695,-4.727,-4.7869,-4.7347,-4.7482,-4.814,-4.8028,-4.7574,-4.6863,-4.5858,-4.5361,-4.5256,-4.5213,-4.508,-4.4895,-4.4895,-4.4764,-4.4524,-4.4515,-4.4325,-4.4067,-4.4005,-4.4005,-4.4005,-4.4005,-4.4005,-4.4005,-4.4005,-4.4005,-4.4005,-4.4005,-4.4005,-4.4005,-4.4005,-4.4005,-4.3942,-4.3837,-4.3804,-4.3738,-4.3532,-4.3497,-4.3497,-4.3497,-4.3497,-4.3497,-4.3497,-4.3446,-4.334,-4.3214,-4.316,-4.3049,-4.292,-4.2882,-4.2882,-4.2882,-4.2882,-4.2882,-4.2882,-4.2747,-4.2649,-4.2609,-4.2526,-4.2445,-4.2346,-4.2328,-4.2287,-4.2287,-4.2929,-4.3251,-4.3268,-4.4018,-4.4714,0.0,0.0,0.0,0.0,0.0,0.0,0.0,0.0,0.0,0.0,0.0,0.0,0.0,0.0,0.0,0.0,0.0,0.0,0.0,0.0,0.0,0.0,0.0,0.0,0.0,0.0,0.0,0.0,0.0,0.0,0.0,0.0,0.0,0.0,-4.7647,-4.7844,-4.7353,-4.6894,-4.6994,-4.7642,-4.7237,-4.7667,-4.8756,-4.7993,-4.8083,-4.882,-4.7892,-4.7222,-4.6723,-4.5725,-4.5258,-4.5192,-4.5084,-4.4991,-4.4895,-4.4895,-4.4796,-4.4685,-4.4524,-4.4383,-4.4218,-4.4067,-4.4005,-4.4005,-4.4005,-4.4005,-4.4005,-4.4005,-4.4005,-4.4005,-4.4005,-4.4005,-4.4005,-4.4005,-4.3974,-4.3929,-4.3837,-4.3753,-4.3667,-4.3532,-4.3497,-4.3497,-4.3497,-4.3497,-4.3497,-4.3481,-4.3376,-4.3269,-4.316,-4.3086,-4.3139,-4.3425,-4.3462,-4.3625,-4.4023,-4.4041,-4.4041,-4.3945,-4.3804,-4.3701,-4.366,-4.3555,-4.3114,-4.2305,-4.268,-4.2876,-4.2876,-4.3661,-4.4036,-4.4071,-4.4821,-4.541,0.0,0.0,0.0,0.0,0.0,0.0,0.0,0.0,0.0,0.0,0.0,0.0,0.0,0.0,0.0,0.0,0.0,0.0,0.0,0.0,0.0,0.0,0.0,0.0,0.0,0.0,0.0,0.0,0.0,0.0,0.0,0.0,-4.7656,-4.7498,-4.8435,-4.8822,-4.8611,-4.7798,-4.771,-4.8332,-4.7776,-4.8106,-4.9177,-4.8452,-4.8566,-4.9258,-4.7434,-4.6665,-4.6568,-4.5559,-4.5148,-4.5125,-4.4967,-4.4895,-4.4895,-4.4895,-4.4889,-4.4821,-4.4605,-4.4496,-4.443,-4.4128,-4.4036,-4.4005,-4.4005,-4.4005,-4.4005,-4.4005,-4.4005,-4.4005,-4.4005,-4.4116,-4.4191,-4.4042,-4.404,-4.405,-4.3822,-4.3701,-4.3582,-4.3513,-4.3497,-4.3534,-4.3681,-4.3699,-4.3738,-4.3814,-4.367,-4.356,-4.3522,-4.3411,-4.357,-4.424,-4.4313,-4.4584,-4.5236,-4.5291,-4.521,-4.5111,-4.5024,-4.4917,-4.4796,-4.4668,-4.4,-4.2715,-4.3358,-4.3697,-4.3697,-4.4446,-4.4821,-4.4839,-4.5641,-4.6016,0.0,0.0,0.0,0.0,0.0,0.0,0.0,0.0,0.0,0.0,0.0,0.0,0.0,0.0,0.0,0.0,0.0,0.0,0.0,0.0,0.0,0.0,0.0,0.0,0.0,0.0,0.0,0.0,0.0,0.0,0.0,-4.7772,-4.8289,-4.7526,-4.9074,-4.9484,-4.8619,-4.8309,-4.8512,-4.9237,-4.972,-4.9677,-4.9158,-4.8209,-4.8307,-4.9122,-4.725,-4.6437,-4.6361,-4.5337,-4.4943,-4.4919,-4.4895,-4.4895,-4.4895,-4.4895,-4.4821,-4.4719,-4.4685,-4.4524,-4.4314,-4.4285,-4.4147,-4.4005,-4.4005,-4.4005,-4.4005,-4.4005,-4.4005,-4.4005,-4.4005,-4.4562,-4.4934,-4.4191,-4.4434,-4.4653,-4.3952,-4.3701,-4.3582,-4.3513,-4.3497,-4.3718,-4.4415,-4.4491,-4.4675,-4.537,-4.533,-4.5215,-4.5176,-4.508,-4.5019,-4.5128,-4.5146,-4.5182,-4.5291,-4.5192,-4.5111,-4.5111,-4.4923,-4.4814,-4.4814,-4.4668,-4.4517,-4.4321,-4.441,-4.4464,-4.4464,-4.5267,-4.5641,-4.5659,-4.6462,-4.6837,-2.969,0.0,0.0,0.0,0.0,0.0,0.0,0.0,0.0,0.0,0.0,0.0,0.0,0.0,0.0,0.0,0.0,0.0,0.0,0.0,0.0,0.0,0.0,0.0,0.0,0.0,0.0,0.0,0.0,0.0,-4.6241,-4.7871,-4.861,-4.8236,-4.9874,-5.0516,-4.9938,-4.9329,-4.907,-4.9116,-4.9385,-4.9291,-4.8867,-4.7476,-4.7129,-4.7556,-4.6153,-4.557,-4.5527,-4.5095,-4.4895,-4.4895,-4.4895,-4.4895,-4.4895,-4.4895,-4.4846,-4.4796,-4.4738,-4.4578,-4.4401,-4.4314,-4.4177,-4.4005,-4.4005,-4.4005,-4.4005,-4.4005,-4.4005,-4.4116,-4.4599,-4.5008,-4.5305,-4.5296,-4.5142,-4.486,-4.4457,-4.3947,-4.3532,-4.3532,-4.4213,-4.48,-4.4727,-4.504,-4.5351,-4.5643,-4.5601,-4.5485,-4.5388,-4.5349,-4.5472,-4.5924,-4.5979,-4.616,-4.6613,-4.6506,-4.6404,-4.6362,-4.6209,-4.6096,-4.6052,-4.5989,-4.5945,-4.5945,-4.5517,-4.5285,-4.5285,-4.6088,-4.6462,-4.648,-4.6837,-4.6998,0.0,0.0,0.0,0.0,0.0,0.0,0.0,0.0,0.0,0.0,0.0,0.0,0.0,0.0,0.0,0.0,0.0,0.0,0.0,0.0,0.0,0.0,0.0,0.0,0.0,0.0,0.0,0.0,0.0,0.0,-4.6522,-4.7972,-4.8886,-4.9099,-5.0521,-5.1191,-5.1004,-5.021,-4.9605,-4.9186,-4.8916,-4.865,-4.8351,-4.6891,-4.6149,-4.5982,-4.5233,-4.4895,-4.4895,-4.4895,-4.4895,-4.4895,-4.4895,-4.4895,-4.4895,-4.4895,-4.4895,-4.4889,-4.4789,-4.4659,-4.4542,-4.4401,-4.4237,-4.4067,-4.4005,-4.4005,-4.4042,-4.4265,-4.4321,-4.4525,-4.5379,-4.5751,-4.596,-4.6246,-4.5959,-4.545,-4.4888,-4.4248,-4.3864,-4.4066,-4.5076,-4.5773,-4.537,-4.5718,-4.6081,-4.6148,-4.6124,-4.6005,-4.5906,-4.5906,-4.6142,-4.6739,-4.6812,-4.7047,-4.7603,-4.7511,-4.7407,-4.7276,-4.7223,-4.7088,-4.698,-4.6998,-4.6998,-4.6998,-4.6409,-4.6105,-4.6105,-4.6712,-4.6998,-4.6998,-4.6998,-4.6998,0.0,0.0,0.0,0.0,0.0,0.0,0.0,0.0,0.0,0.0,0.0,0.0,0.0,0.0,0.0,0.0,0.0,0.0,0.0,0.0,0.0,0.0,0.0,0.0,0.0,0.0,0.0,0.0,0.0,0.0,-4.7396,-4.8295,-4.9138,-4.9917,-5.0813,-5.1191,-5.1004,-5.0568,-5.0249,-5.0032,-4.9195,-4.8371,-4.7536,-4.6607,-4.5748,-4.4995,-4.4914,-4.4895,-4.4895,-4.4895,-4.4895,-4.4895,-4.4895,-4.4895,-4.4895,-4.4895,-4.4895,-4.4895,-4.4895,-4.4796,-4.4659,-4.4524,-4.4401,-4.4255,-4.4067,-4.4005,-4.4172,-4.4989,-4.5231,-4.5417,-4.6234,-4.6995,-4.7352,-4.6505,-4.681,-4.6816,-4.5075,-4.4672,-4.4874,-4.5626,-4.5847,-4.6104,-4.676,-4.683,-4.6986,-4.7666,-4.7692,-4.7591,-4.7591,-4.7591,-4.7591,-4.7645,-4.7645,-4.7603,-4.7511,-4.7407,-4.7276,-4.7223,-4.7088,-4.6998,-4.6998,-4.6998,-4.6998,-4.6998,-4.6944,-4.6926,-4.6926,-4.6962,-4.6998,-4.6998,-4.6998,-4.6998,0.0,0.0,0.0,0.0,0.0,0.0,0.0,0.0,0.0,0.0,0.0,0.0,0.0,0.0,0.0,0.0,0.0,0.0,0.0,0.0,0.0,0.0,0.0,0.0,0.0,0.0,0.0,0.0,0.0,0.0,-4.8314,-4.9133,-4.9659,-4.9868,-5.0713,-5.1005,-5.068,-5.0442,-5.0255,-5.0089,-4.9295,-4.8433,-4.7479,-4.6638,-4.5778,-4.4895,-4.4895,-4.4895,-4.4895,-4.4895,-4.4895,-4.4895,-4.4895,-4.4895,-4.4895,-4.4895,-4.4895,-4.4895,-4.4895,-4.4764,-4.4551,-4.4515,-4.4325,-4.4097,-4.4036,-4.4005,-4.4191,-4.5045,-4.5287,-4.5602,-4.6921,-4.7463,-4.7543,-4.7054,-4.7095,-4.7022,-4.6379,-4.625,-4.6177,-4.5938,-4.6728,-4.7351,-4.7035,-4.7341,-4.7642,-4.7866,-4.7777,-4.7717,-4.7717,-4.7717,-4.7717,-4.7717,-4.7615,-4.7554,-4.7511,-4.7338,-4.7223,-4.7196,-4.7088,-4.6998,-4.6998,-4.6998,-4.6998,-4.6998,-4.6998,-4.6998,-4.6998,-4.6998,-4.6998,-4.6998,-4.6998,-4.6998,-2.7773,0.0,0.0,0.0,0.0,0.0,0.0,0.0,0.0,0.0,0.0,0.0,0.0,0.0,0.0,0.0,0.0,0.0,0.0,0.0,0.0,0.0,0.0,0.0,0.0,0.0,0.0,0.0,0.0,0.0,-4.9177,-4.9703,-4.9934,-4.9804,-4.9989,-4.9966,-4.9682,-4.9532,-4.9415,-4.9276,-4.8481,-4.7924,-4.746,-4.6334,-4.5645,-4.5312,-4.5028,-4.4895,-4.4895,-4.4895,-4.4895,-4.4895,-4.4895,-4.4895,-4.4895,-4.4895,-4.4895,-4.4895,-4.4895,-4.4745,-4.4551,-4.4496,-4.4325,-4.4085,-4.4005,-4.4191,-4.4599,-4.5454,-4.59,-4.6401,-4.7757,-4.8007,-4.7901,-4.7739,-4.761,-4.7517,-4.7517,-4.7297,-4.704,-4.6764,-4.7534,-4.8082,-4.7435,-4.7682,-4.7947,-4.7861,-4.7759,-4.7717,-4.7717,-4.7717,-4.7717,-4.7717,-4.7572,-4.7468,-4.7468,-4.7312,-4.7196,-4.7151,-4.7043,-4.6998,-4.6998,-4.6998,-4.6998,-4.6998,-4.6998,-4.6998,-4.6998,-4.6998,-4.6998,-4.6998,-4.6998,-4.7116,0.0,0.0,0.0,0.0,0.0,0.0,0.0,0.0,0.0,0.0,0.0,0.0,0.0,0.0,0.0,0.0,0.0,0.0,0.0,0.0,0.0,0.0,0.0,0.0,0.0,0.0,0.0,0.0,0.0,-4.9151,-4.9917,-4.9948,-4.9895,-4.9757,-4.8678,-4.8086,-4.8086,-4.7888,-4.7754,-4.769,-4.6862,-4.6811,-4.7403,-4.5735,-4.5407,-4.6108,-4.5293,-4.4914,-4.4895,-4.4895,-4.4895,-4.4895,-4.4895,-4.4895,-4.4895,-4.4895,-4.4895,-4.4895,-4.4895,-4.4796,-4.4685,-4.4524,-4.4401,-4.4255,-4.4104,-4.4618,-4.5472,-4.629,-4.7107,-4.7887,-4.8686,-4.875,-4.8569,-4.8494,-4.8401,-4.8306,-4.8306,-4.77,-4.7388,-4.8159,-4.8247,-4.8148,-4.8032,-4.7947,-4.7861,-4.7717,-4.7717,-4.7717,-4.7717,-4.7717,-4.7717,-4.7699,-4.7554,-4.745,-4.732,-4.7205,-4.7133,-4.6998,-4.6998,-4.6998,-4.6998,-4.6998,-4.6998,-4.6998,-4.6998,-4.6998,-4.6998,-4.6998,-4.6998,-4.6998,-4.6998,-4.7363,-2.7947,0.0,0.0,0.0,0.0,0.0,0.0,0.0,0.0,0.0,0.0,0.0,0.0,0.0,0.0,0.0,0.0,0.0,0.0,0.0,0.0,0.0,0.0,0.0,0.0,0.0,0.0,0.0,-4.8796,-4.8899,-4.9118,-4.8902,-4.8755,-4.8715,-4.8182,-4.7867,-4.7867,-4.7821,-4.7777,-4.7777,-4.7525,-4.7152,-4.6716,-4.6806,-4.6282,-4.5274,-4.5672,-4.5483,-4.4895,-4.4895,-4.4895,-4.4895,-4.4895,-4.4895,-4.4895,-4.4895,-4.4895,-4.4895,-4.4895,-4.4764,-4.4551,-4.4515,-4.4325,-4.4197,-4.4779,-4.5101,-4.5584,-4.6977,-4.7534,-4.7853,-4.8492,-4.8623,-4.855,-4.8382,-4.8324,-4.8306,-4.8306,-4.8141,-4.8031,-4.8269,-4.8247,-4.8148,-4.8032,-4.7947,-4.7861,-4.7717,-4.7717,-4.7717,-4.7717,-4.7717,-4.7657,-4.7572,-4.7468,-4.732,-4.7205,-4.7133,-4.7043,-4.6998,-4.6998,-4.6998,-4.6998,-4.6998,-4.6998,-4.6998,-4.6998,-4.6998,-4.6998,-4.6998,-4.6998,-4.6998,-4.6998,-4.7363,-2.844,-2.8966,0.0,0.0,0.0,0.0,0.0,0.0,0.0,0.0,0.0,0.0,0.0,0.0,0.0,0.0,0.0,0.0,0.0,0.0,0.0,0.0,0.0,0.0,0.0,0.0,0.0,0.0,-4.8806,-4.8806,-4.8806,-4.8191,-4.7824,-4.7753,-4.7145,-4.6814,-4.6768,-4.6768,-4.6727,-4.6724,-4.6724,-4.6603,-4.6397,-4.6487,-4.6326,-4.6006,-4.6152,-4.5899,-4.5445,-4.5445,-4.5236,-4.4895,-4.4895,-4.4895,-4.4895,-4.4895,-4.4895,-4.4895,-4.4895,-4.4745,-4.4578,-4.4515,-4.4325,-4.4265,-4.5058,-4.5528,-4.6067,-4.7348,-4.7943,-4.8261,-4.8549,-4.8587,-4.855,-4.8344,-4.8306,-4.8306,-4.8306,-4.8306,-4.8306,-4.8247,-4.8169,-4.809,-4.7988,-4.7884,-4.7801,-4.7717,-4.7717,-4.7717,-4.7717,-4.7717,-4.7657,-4.7511,-4.7363,-4.7276,-4.7196,-4.7088,-4.6998,-4.6998,-4.6998,-4.6998,-4.6998,-4.6998,-4.6998,-4.6998,-4.6998,-4.6998,-4.6998,-4.6998,-4.6998,-4.6998,-4.6998,-4.7363,-2.8802,-2.9729,0.0,0.0,0.0,0.0,-3.4465,-3.496,0.0,0.0,0.0,0.0,0.0,0.0,0.0,0.0,0.0,0.0,0.0,0.0,0.0,0.0,0.0,0.0,0.0,0.0,-4.8506,-4.8504,-4.8513,-4.8514,-4.8514,-4.7592,-4.7,-4.6858,-4.5976,-4.5438,-4.5297,-4.5297,-4.5275,-4.5213,-4.5213,-4.5589,-4.6225,-4.5494,-4.596,-4.7327,-4.6531,-4.6203,-4.6184,-4.6089,-4.5596,-4.4895,-4.4895,-4.4895,-4.4895,-4.4895,-4.4895,-4.4895,-4.4895,-4.4796,-4.4659,-4.4524,-4.4401,-4.4423,-4.522,-4.5918,-4.668,-4.7571,-4.8351,-4.882,-4.866,-4.8587,-4.8532,-4.8344,-4.8306,-4.8306,-4.8306,-4.8306,-4.8286,-4.8187,-4.809,-4.797,-4.7902,-4.7801,-4.7717,-4.7717,-4.7717,-4.7717,-4.7717,-4.7717,-4.7657,-4.7511,-4.7363,-4.7276,-4.7178,-4.7088,-4.6998,-4.6998,-4.6998,-4.6998,-4.6998,-4.6998,-4.6998,-4.6998,-4.6998,-4.6998,-4.6998,-4.6998,-4.6998,-4.6998,-4.7043,-4.7407,-2.9666,-3.0404,-3.0836,-3.0552,0.0,0.0,0.0,-3.2076,0.0,0.0,0.0,0.0,0.0,0.0,0.0,0.0,0.0,0.0,0.0,0.0,0.0,0.0,0.0,0.0,0.0,0.0,-4.6705,-4.6706,-4.6721,-4.6702,-4.6702,-4.6406,-4.6135,-4.5969,-4.5668,-4.5438,-4.5297,-4.5297,-4.5297,-4.5275,-4.5275,-4.5309,-4.5369,-4.5902,-4.625,-4.6436,-4.6259,-4.6203,-4.6146,-4.5445,-4.5047,-4.4895,-4.4895,-4.4895,-4.4895,-4.4895,-4.4895,-4.4895,-4.4895,-4.4745,-4.4524,-4.4515,-4.4296,-4.4315,-4.5807,-4.6382,-4.6791,-4.8259,-4.8728,-4.8787,-4.8642,-4.855,-4.8494,-4.8344,-4.8306,-4.8306,-4.8306,-4.8247,-4.8169,-4.8032,-4.8032,-4.797,-4.7902,-4.7801,-4.7717,-4.7717,-4.7717,-4.7717,-4.7717,-4.7717,-4.7615,-4.7363,-4.732,-4.7232,-4.7025,-4.7043,-4.6998,-4.6998,-4.6998,-4.6998,-4.6998,-4.6998,-4.6998,-4.6998,-4.6998,-4.6998,-4.6998,-4.6998,-4.6998,-4.6998,-4.7294,-4.7621,0.0,-3.0886,-3.1463,-3.1301,0.0,0.0,0.0,0.0,0.0,0.0,0.0,0.0,0.0,0.0,0.0,0.0,0.0,0.0,0.0,0.0,0.0,0.0,0.0,0.0,0.0,0.0,-4.6192,-4.6201,-4.6196,-4.6196,-4.6196,-4.6138,-4.6008,-4.5859,-4.5694,-4.5541,-4.54,-4.5339,-4.5297,-4.5297,-4.5297,-4.5254,-4.5167,-4.5582,-4.5931,-4.6252,-4.6209,-4.6203,-4.6165,-4.5729,-4.5293,-4.4895,-4.4895,-4.4895,-4.4895,-4.4895,-4.4895,-4.4895,-4.4821,-4.4712,-4.4578,-4.4458,-4.4285,-4.4445,-4.6025,-4.7051,-4.7868,-4.8616,-4.8822,-4.8751,-4.8587,-4.8532,-4.8457,-4.8306,-4.8306,-4.8306,-4.8306,-4.8247,-4.8148,-4.8032,-4.797,-4.7925,-4.7819,-4.7759,-4.7717,-4.7717,-4.7717,-4.7717,-4.7717,-4.7657,-4.7511,-4.7302,-4.7276,-4.716,-4.698,-4.6998,-4.6998,-4.6998,-4.6998,-4.6998,-4.6998,-4.6998,-4.6998,-4.6998,-4.6998,-4.6998,-4.6998,-4.716,-4.7249,-4.7249,-4.7425,-4.7747,0.0,0.0,0.0,0.0,0.0,-3.255,0.0,0.0,0.0,-3.56,0.0,0.0,0.0,0.0,0.0,0.0,0.0,0.0,0.0,0.0,0.0,0.0,0.0,0.0,0.0,0.0,-4.5843,-4.6164,-4.5884,-4.5845,-4.6176,-4.6196,-4.6138,-4.6007,-4.5847,-4.566,-4.549,-4.5419,-4.5361,-4.5339,-4.5339,-4.53,-4.5216,-4.5148,-4.5513,-4.6258,-4.6057,-4.6032,-4.6184,-4.6013,-4.552,-4.4895,-4.4895,-4.4895,-4.4895,-4.487,-4.4846,-4.4846,-4.4712,-4.4659,-4.4578,-4.4373,-4.4509,-4.4972,-4.6304,-4.7757,-4.8874,-4.8822,-4.8751,-4.8715,-4.8532,-4.8457,-4.8419,-4.8324,-4.8306,-4.8306,-4.8267,-4.8208,-4.8148,-4.801,-4.7925,-4.7819,-4.7717,-4.7717,-4.7717,-4.7717,-4.7717,-4.7717,-4.7717,-4.7554,-4.745,-4.7302,-4.7249,-4.7151,-4.6998,-4.6998,-4.6998,-4.6998,-4.6998,-4.6998,-4.6998,-4.6998,-4.6998,-4.6998,-4.6998,-4.7025,-4.7088,-4.7381,-4.7511,-4.7511,-4.7621,-4.7915,0.0,0.0,0.0,0.0,-3.3214,0.0,0.0,0.0,-3.2551,-3.2641,0.0,0.0,0.0,0.0,0.0,0.0,0.0,0.0,0.0,0.0,0.0,0.0,0.0,0.0,0.0,0.0,0.0,-4.6079,-4.4773,-4.4579,-4.6118,-4.6196,-4.6138,-4.6007,-4.5986,-4.5829,-4.549,-4.5584,-4.5584,-4.5473,-4.5473,-4.5418,-4.5265,-4.5175,-4.5508,-4.619,-4.5388,-4.5483,-4.6146,-4.5369,-4.499,-4.4895,-4.4895,-4.4895,-4.4889,-4.4789,-4.4719,-4.4712,-4.4551,-4.444,-4.4344,-4.4314,-4.5183,-4.6415,-4.7293,-4.8134,-4.8822,-4.8787,-4.8679,-4.855,-4.8513,-4.8401,-4.8306,-4.8306,-4.8306,-4.8267,-4.8208,-4.809,-4.801,-4.7943,-4.7801,-4.7717,-4.7699,-4.7717,-4.7717,-4.7717,-4.7717,-4.7717,-4.7717,-4.7554,-4.745,-4.7302,-4.7249,-4.7151,-4.6998,-4.6998,-4.6998,-4.6998,-4.6998,-4.6998,-4.6998,-4.6998,-4.6998,-4.6998,-4.6998,-4.716,-4.7425,-4.7468,-4.7511,-4.7511,-4.8035,-4.8345,0.0,0.0,0.0,0.0,0.0,0.0,0.0,0.0,-3.24,0.0,0.0,0.0,0.0,0.0,0.0,0.0,0.0,0.0,0.0,0.0,0.0,0.0,0.0,0.0,0.0,0.0,0.0,0.0,0.0,-4.415,-4.5377,-4.5923,-4.6162,-4.613,-4.6037,-4.5933,-4.5783,-4.5736,-4.5675,-4.56,-4.5505,-4.5399,-4.5304,-4.5113,-4.52,-4.5426,-4.5066,-4.5103,-4.5426,-4.5047,-4.4895,-4.4895,-4.4895,-4.4895,-4.487,-4.4764,-4.4712,-4.4685,-4.4458,-4.4344,-4.436,-4.4755,-4.5927,-4.7256,-4.754,-4.8173,-4.8787,-4.8642,-4.8587,-4.8457,-4.8401,-4.8363,-4.8306,-4.8306,-4.8286,-4.8208,-4.8187,-4.8068,-4.7925,-4.7902,-4.7801,-4.7717,-4.7717,-4.7717,-4.7717,-4.7717,-4.7717,-4.7657,-4.7597,-4.7468,-4.7363,-4.7249,-4.7133,-4.7043,-4.698,-4.6998,-4.6998,-4.6998,-4.6998,-4.6998,-4.6998,-4.6998,-4.6998,-4.6998,-4.7205,-4.7381,-4.7511,-4.7852,-4.8035,-4.8035,-4.8269,-4.8495,-3.3601,0.0,0.0,0.0,0.0,0.0,0.0,0.0,0.0,0.0,0.0,0.0,0.0,0.0,0.0,0.0,0.0,0.0,0.0,0.0,0.0,0.0,0.0,0.0,0.0,0.0,0.0,0.0,0.0,0.0,-4.4812,-4.5494,-4.5942,-4.6196,-4.6122,-4.6027,-4.5997,-4.5847,-4.5731,-4.567,-4.5468,-4.5342,-4.5285,-4.509,-4.4943,-4.4895,-4.4895,-4.4895,-4.4895,-4.4895,-4.487,-4.4865,-4.4865,-4.4972,-4.511,-4.5025,-4.4971,-4.4889,-4.4651,-4.4561,-4.468,-4.5393,-4.6568,-4.7705,-4.7895,-4.8288,-4.8679,-4.855,-4.8457,-4.8401,-4.8324,-4.8306,-4.8306,-4.8306,-4.8247,-4.8187,-4.8148,-4.8006,-4.7902,-4.7861,-4.7759,-4.7717,-4.7717,-4.7717,-4.7717,-4.7717,-4.7717,-4.7657,-4.7511,-4.7363,-4.7276,-4.7196,-4.7088,-4.6998,-4.6998,-4.6998,-4.6998,-4.6998,-4.6998,-4.6998,-4.6998,-4.707,-4.7116,-4.7116,-4.7468,-4.7663,-4.7728,-4.8192,-4.8458,-4.855,-4.855,-4.866,0.0,0.0,0.0,-3.3692,0.0,0.0,0.0,0.0,-3.343,0.0,0.0,0.0,0.0,0.0,0.0,0.0,0.0,0.0,0.0,0.0,0.0,0.0,0.0,0.0,0.0,0.0,0.0,0.0,0.0,0.0,-4.4715,-4.4929,-4.5319,-4.6176,-4.6196,-4.6138,-4.5997,-4.5925,-4.5796,-4.5607,-4.5414,-4.5266,-4.5207,-4.5068,-4.4943,-4.4895,-4.4895,-4.4895,-4.4895,-4.4895,-4.4821,-4.4712,-4.4712,-4.5103,-4.5679,-4.565,-4.5611,-4.5462,-4.5313,-4.5249,-4.5379,-4.6197,-4.6965,-4.7731,-4.8527,-4.8624,-4.8513,-4.8513,-4.8419,-4.8306,-4.8306,-4.8306,-4.8306,-4.8306,-4.8247,-4.8148,-4.8032,-4.7947,-4.7861,-4.7717,-4.7699,-4.7717,-4.7717,-4.7717,-4.7717,-4.7717,-4.7717,-4.7657,-4.7511,-4.7363,-4.7276,-4.7196,-4.7088,-4.6998,-4.6998,-4.6998,-4.6998,-4.6998,-4.6998,-4.6998,-4.6998,-4.7294,-4.7468,-4.7468,-4.7829,-4.8093,-4.8383,-4.8383,-4.8587,-4.889,-4.889,-4.8909,0.0,0.0,-3.7317,-3.5775,0.0,0.0,0.0,0.0,0.0,0.0,0.0,0.0,0.0,0.0,0.0,0.0,0.0,0.0,0.0,0.0,0.0,0.0,0.0,0.0,0.0,0.0,0.0,0.0,0.0,0.0,0.0,-4.4169,-4.4917,-4.5262,-4.5802,-4.6027,-4.5936,-4.5859,-4.575,-4.56,-4.536,-4.5227,-4.5207,-4.5023,-4.4919,-4.4895,-4.4895,-4.4895,-4.4895,-4.4895,-4.4821,-4.4712,-4.4712,-4.4791,-4.4963,-4.4824,-4.5428,-4.6271,-4.615,-4.6438,-4.694,-4.7151,-4.7766,-4.8399,-4.8569,-4.8532,-4.8457,-4.8401,-4.8344,-4.8306,-4.8306,-4.8306,-4.8267,-4.8247,-4.813,-4.805,-4.7947,-4.7842,-4.7759,-4.7717,-4.7717,-4.7717,-4.7717,-4.7717,-4.7717,-4.7717,-4.7717,-4.7615,-4.7407,-4.732,-4.732,-4.7381,-4.716,-4.707,-4.7294,-4.7116,-4.6998,-4.6998,-4.6998,-4.7116,-4.7338,-4.7205,-4.7381,-4.7829,-4.7951,-4.8132,-4.8383,-4.8623,-4.8785,-4.8909,-4.8909,-4.8909,-3.717,-3.7732,0.0,-3.6976,-3.5741,0.0,-3.3395,0.0,0.0,0.0,0.0,0.0,0.0,0.0,0.0,0.0,0.0,0.0,0.0,0.0,0.0,0.0,0.0,0.0,0.0,0.0,-3.6489,-3.823,0.0,0.0,0.0,0.0,-4.4424,-4.4744,-4.557,-4.5956,-4.5859,-4.5756,-4.56,-4.5449,-4.5206,-4.5099,-4.5099,-4.4972,-4.4895,-4.4895,-4.4895,-4.4895,-4.4895,-4.4895,-4.4796,-4.4632,-4.4632,-4.4701,-4.4852,-4.5092,-4.5973,-4.7034,-4.6954,-4.7274,-4.7701,-4.7617,-4.812,-4.8697,-4.855,-4.8457,-4.8401,-4.8306,-4.8306,-4.8306,-4.8306,-4.8267,-4.8247,-4.8226,-4.8068,-4.7947,-4.7902,-4.7801,-4.7717,-4.7717,-4.7717,-4.7717,-4.7717,-4.7717,-4.7717,-4.7717,-4.7657,-4.7554,-4.732,-4.7276,-4.7294,-4.7338,-4.7116,-4.707,-4.7294,-4.7116,-4.7025,-4.716,-4.716,-4.7338,-4.7663,-4.756,-4.771,-4.8132,-4.8132,-4.8288,-4.8587,-4.866,-4.8785,-4.8909,-4.8909,-4.8909]}]]